[[{"header":{"parameterUnit":"m.s-1","parameterCategory":1,"la1":30.6,"la2":28.766,"lo1":-90.7593,"lo2":-88.6598,"dy":0.0162,"dx":0.0183,"nx":116,"ny":114,"refTime":"2023-03-06T06:00:00:Z","depth":0,"parameterNumber":2,"parameterNumberName":"U-component_of_WINDS"},"data":[0.0,0.0,0.0,0.0,0.0,0.0,0.0,0.0,0.0,0.0,0.0,0.0,0.0,0.0,0.0,0.0,0.0,0.0,0.0,0.0,0.0,0.0,0.0,0.0,0.0,0.0,0.0,0.0,0.0,0.0,0.0,0.0,0.0,0.0,0.0,0.0,0.0,0.0,0.0,0.0,0.0,0.0,0.0,0.0,0.0,0.0,0.0,0.0,0.0,0.0,0.0,0.0,0.0,0.0,0.0,0.0,0.0,0.0,0.0,0.0,0.0,0.0,0.0,0.0,0.0,0.0,0.0,0.0,0.0,0.0,0.0,0.0,0.0,0.0,0.0,0.0,0.0,0.0,0.0,0.0,0.0,0.0,0.0,0.0,0.0,0.0,0.0,0.0,0.0,0.0,0.0,0.0,0.0,0.0,0.0,0.0,0.0,0.0,0.0,0.0,0.0,0.0,0.0,0.0,0.0,0.0,0.0,0.0,0.0,0.0,0.0,0.0,0.0,0.0,0.0,0.0,0.0,0.0,0.0,0.0,0.0,0.0,0.0,0.0,0.0,0.0,0.0,0.0,0.0,0.0,0.0,0.0,0.0,0.0,0.0,0.0,0.0,0.0,0.0,0.0,0.0,0.0,0.0,0.0,0.0,0.0,0.0,0.0,0.0,0.0,0.0,0.0,0.0,0.0,0.0,0.0,0.0,0.0,0.0,0.0,0.0,0.0,0.0,0.0,0.0,0.0,0.0,0.0,0.0,0.0,0.0,0.0,0.0,0.0,0.0,0.0,0.0,0.0,0.0,0.0,0.0,0.0,0.0,0.0,0.0,0.0,0.0,0.0,0.0,0.0,0.0,0.0,0.0,0.0,0.0,0.0,0.0,0.0,0.0,0.0,0.0,0.0,0.0,0.0,0.0,0.0,0.0,0.0,0.0,0.0,0.0,0.0,0.0,0.0,0.0,0.0,0.0,0.0,0.0,0.0,0.0,0.0,0.0,0.0,0.0,0.0,0.0,0.0,0.0,0.0,0.0,0.0,0.0,0.0,0.0,0.0,0.0,0.0,0.0,0.0,0.0,0.0,0.0,0.0,0.0,0.0,0.0,0.0,0.0,0.0,0.0,0.0,0.0,0.0,0.0,0.0,0.0,0.0,0.0,0.0,0.0,0.0,0.0,0.0,0.0,0.0,0.0,0.0,0.0,0.0,0.0,0.0,0.0,0.0,0.0,0.0,0.0,0.0,0.0,0.0,0.0,0.0,0.0,0.0,0.0,0.0,0.0,0.0,0.0,0.0,0.0,0.0,0.0,0.0,0.0,0.0,0.0,0.0,0.0,0.0,0.0,0.0,0.0,0.0,0.0,0.0,0.0,0.0,0.0,0.0,0.0,0.0,0.0,0.0,0.0,0.0,0.0,0.0,0.0,0.0,0.0,0.0,0.0,0.0,0.0,0.0,0.0,0.0,0.0,0.0,0.0,0.0,0.0,0.0,0.0,0.0,0.0,0.0,0.0,0.0,0.0,0.0,0.0,0.0,0.0,0.0,0.0,0.0,0.0,0.0,0.0,0.0,0.0,0.0,0.0,0.0,0.0,0.0,0.0,0.0,0.0,0.0,0.0,0.0,0.0,0.0,0.0,0.0,0.0,0.0,0.0,0.0,0.0,0.0,0.0,0.0,0.0,0.0,0.0,0.0,0.0,0.0,0.0,0.0,0.0,0.0,0.0,0.0,0.0,0.0,0.0,0.0,0.0,0.0,0.0,0.0,0.0,0.0,0.0,0.0,0.0,0.0,0.0,0.0,0.0,0.0,0.0,0.0,0.0,0.0,0.0,0.0,0.0,0.0,0.0,0.0,0.0,0.0,0.0,0.0,0.0,0.0,0.0,0.0,0.0,0.0,0.0,0.0,0.0,0.0,0.0,0.0,0.0,0.0,0.0,0.0,0.0,0.0,0.0,0.0,0.0,0.0,0.0,0.0,0.0,0.0,0.0,0.0,0.0,0.0,0.0,0.0,0.0,0.0,0.0,0.0,0.0,0.0,0.0,0.0,0.0,0.0,0.0,0.0,0.0,0.0,0.0,0.0,0.0,0.0,0.0,0.0,0.0,0.0,0.0,0.0,0.0,0.0,0.0,0.0,0.0,0.0,0.0,0.0,0.0,0.0,0.0,0.0,0.0,0.0,0.0,0.0,0.0,0.0,0.0,0.0,0.0,0.0,0.0,0.0,0.0,0.0,0.0,0.0,0.0,0.0,0.0,0.0,0.0,0.0,0.0,0.0,0.0,0.0,0.0,0.0,0.0,0.0,0.0,0.0,0.0,0.0,0.0,0.0,0.0,0.0,0.0,0.0,0.0,0.0,0.0,0.0,0.0,0.0,0.0,0.0,0.0,0.0,0.0,0.0,0.0,0.0,0.0,0.0,0.0,0.0,0.0,0.0,0.0,0.0,0.0,0.0,0.0,0.0,0.0,0.0,0.0,0.0,0.0,0.0,0.0,0.0,0.0,0.0,0.0,0.0,0.0,0.0,0.0,0.0,0.0,0.0,0.0,0.0,0.0,0.0,0.0,0.0,0.0,0.0,0.0,0.0,0.0,0.0,0.0,0.0,0.0,0.0,0.0,0.0,0.0,0.0,0.0,0.0,0.0,0.0,0.0,0.0,0.0,0.0,0.0,0.0,0.0,0.0,0.0,0.0,0.0,0.0,0.0,0.0,0.0,0.0,0.0,0.0,0.0,0.0,0.0,0.0,0.0,0.0,0.0,0.0,0.0,0.0,0.0,0.0,0.0,0.0,0.0,0.0,0.0,0.0,0.0,0.0,0.0,0.0,0.0,0.0,0.0,0.0,0.0,0.0,0.0,0.0,0.0,0.0,0.0,0.0,0.0,0.0,0.0,0.0,0.0,0.0,0.0,0.0,0.0,0.0,0.0,0.0,0.0,0.0,0.0,0.0,0.0,0.0,0.0,0.0,0.0,0.0,0.0,0.0,0.0,0.0,0.0,0.0,0.0,0.0,0.0,0.0,0.0,0.0,0.0,0.0,0.0,0.0,0.0,0.0,0.0,0.0,0.0,0.0,0.0,0.0,0.0,0.0,0.0,0.0,0.0,0.0,0.0,0.0,0.0,0.0,0.0,0.0,0.0,0.0,0.0,0.0,0.0,0.0,0.0,0.0,0.0,0.0,0.0,0.0,0.0,0.0,0.0,0.0,0.0,0.0,0.0,0.0,0.0,0.0,0.0,0.0,0.0,0.0,0.0,0.0,0.0,0.0,0.0,0.0,0.0,0.0,0.0,0.0,0.0,0.0,0.0,0.0,0.0,0.0,0.0,0.0,0.0,0.0,0.0,0.0,0.0,0.0,0.0,0.0,0.0,0.0,0.0,0.0,0.0,0.0,0.0,0.0,0.0,0.0,0.0,0.0,0.0,0.0,0.0,0.0,0.0,0.0,0.0,0.0,0.0,0.0,0.0,0.0,0.0,0.0,0.0,0.0,0.0,0.0,0.0,0.0,0.0,0.0,0.0,0.0,0.0,0.0,0.0,0.0,0.0,0.0,0.0,0.0,0.0,0.0,0.0,0.0,0.0,0.0,0.0,0.0,0.0,0.0,0.0,0.0,0.0,0.0,0.0,0.0,0.0,0.0,0.0,0.0,0.0,0.0,0.0,0.0,0.0,0.0,0.0,0.0,0.0,0.0,0.0,0.0,0.0,0.0,0.0,0.0,0.0,0.0,0.0,0.0,0.0,0.0,0.0,0.0,0.0,0.0,0.0,0.0,0.0,0.0,0.0,0.0,0.0,0.0,0.0,0.0,0.0,0.0,0.0,0.0,0.0,0.0,0.0,0.0,0.0,0.0,0.0,0.0,0.0,0.0,0.0,0.0,0.0,0.0,0.0,0.0,0.0,0.0,0.0,0.0,0.0,0.0,0.0,0.0,0.0,0.0,0.0,0.0,0.0,0.0,0.0,0.0,0.0,0.0,0.0,0.0,0.0,0.0,0.0,0.0,0.0,0.0,0.0,0.0,0.0,0.0,0.0,0.0,0.0,0.0,0.0,0.0,0.0,0.0,0.0,0.0,0.0,0.0,0.0,0.0,0.0,0.0,0.0,0.0,0.0,0.0,0.0,0.0,0.0,0.0,0.0,0.0,0.0,0.0,0.0,0.0,0.0,0.0,0.0,0.0,0.0,0.0,0.0,0.0,0.0,0.0,0.0,0.0,0.0,0.0,0.0,0.0,0.0,0.0,0.0,0.0,0.0,0.0,0.0,0.0,0.0,0.0,0.0,0.0,0.0,0.0,0.0,0.0,0.0,0.0,0.0,0.0,0.0,0.0,0.0,0.0,0.0,0.0,0.0,0.0,0.0,0.0,0.0,0.0,0.0,0.0,0.0,0.0,0.0,0.0,0.0,0.0,0.0,0.0,0.0,0.0,0.0,0.0,0.0,0.0,0.0,0.0,0.0,0.0,0.0,0.0,0.0,0.0,0.0,0.0,0.0,0.0,0.0,0.0,0.0,0.0,0.0,0.0,0.0,0.0,0.0,0.0,0.0,0.0,0.0,0.0,0.0,0.0,0.0,0.0,0.0,0.0,0.0,0.0,0.0,0.0,0.0,0.0,0.0,0.0,0.0,0.0,0.0,0.0,0.0,0.0,0.0,0.0,0.0,0.0,0.0,0.0,0.0,0.0,0.0,0.0,0.0,0.0,0.0,0.0,0.0,0.0,0.0,0.0,0.0,0.0,0.0,0.0,0.0,0.0,0.0,0.0,0.0,0.0,0.0,0.0,0.0,0.0,0.0,0.0,0.0,0.0,0.0,0.0,0.0,0.0,0.0,0.0,0.0,0.0,0.0,0.0,0.0,0.0,0.0,0.0,0.0,0.0,0.0,0.0,0.0,0.0,0.0,0.0,0.0,0.0,0.0,0.0,0.0,0.0,0.0,0.0,0.0,0.0,0.0,0.0,0.0,0.0,0.0,0.0,0.0,0.0,0.0,0.0,0.0,0.0,0.0,0.0,0.0,0.0,0.0,0.0,0.0,0.0,0.0,0.0,0.0,0.0,0.0,0.0,0.0,0.0,0.0,0.0,0.0,0.0,0.0,0.0,0.0,0.0,0.0,0.0,0.0,0.0,0.0,0.0,0.0,0.0,0.0,0.0,0.0,0.0,0.0,0.0,0.0,0.0,0.0,0.0,0.0,0.0,0.0,0.0,0.0,0.0,0.0,0.0,0.0,0.0,0.0,0.0,0.0,0.0,0.0,0.0,0.0,0.0,0.0,0.0,0.0,0.0,0.0,0.0,0.0,0.0,0.0,0.0,0.0,0.0,0.0,0.0,0.0,0.0,0.0,0.0,0.0,0.0,0.0,0.0,0.0,0.0,0.0,0.0,0.0,0.0,0.0,0.0,0.0,0.0,0.0,0.0,0.0,0.0,0.0,0.0,0.0,0.0,0.0,0.0,0.0,0.0,0.0,0.0,0.0,0.0,0.0,0.0,0.0,0.0,0.0,0.0,0.0,0.0,0.0,0.0,0.0,0.0,0.0,0.0,0.0,0.0,0.0,0.0,0.0,0.0,0.0,0.0,0.0,0.0,0.0,0.0,0.0,0.0,0.0,0.0,0.0,0.0,0.0,0.0,0.0,0.0,0.0,0.0,0.0,0.0,0.0,0.0,0.0,0.0,0.0,0.0,0.0,0.0,0.0,0.0,0.0,0.0,0.0,0.0,0.0,0.0,0.0,0.0,0.0,0.0,0.0,0.0,0.0,0.0,0.0,0.0,0.0,0.0,0.0,0.0,0.0,0.0,0.0,0.0,0.0,0.0,0.0,0.0,0.0,0.0,0.0,0.0,0.0,0.0,0.0,0.0,0.0,0.0,0.0,0.0,0.0,0.0,0.0,0.0,0.0,0.0,0.0,0.0,0.0,0.0,0.0,0.0,0.0,0.0,0.0,0.0,0.0,0.0,0.0,0.0,0.0,0.0,0.0,0.0,0.0,0.0,0.0,0.0,0.0,0.0,0.0,0.0,0.0,0.0,0.0,0.0,0.0,0.0,0.0,0.0,0.0,0.0,0.0,0.0,0.0,0.0,0.0,0.0,0.0,0.0,0.0,0.0,0.0,0.0,-0.6648,0.0,0.0,0.0,0.0,0.0,0.0,0.0,0.0,0.0,0.0,0.0,0.0,0.0,0.0,0.0,0.0,0.0,0.0,0.0,0.0,0.0,0.0,0.0,0.0,0.0,0.0,0.0,0.0,0.0,0.0,0.0,0.0,0.0,0.0,0.0,0.0,0.0,0.0,0.0,0.0,0.0,0.0,0.0,0.0,0.0,0.0,0.0,0.0,0.0,0.0,0.0,0.0,0.0,0.0,0.0,0.0,0.0,0.0,0.0,0.0,0.0,0.0,0.0,0.0,0.0,0.0,0.0,0.0,0.0,0.0,0.0,0.0,0.0,0.0,0.0,0.0,0.0,0.0,0.0,0.0,0.0,0.0,0.0,0.0,0.0,0.0,0.0,0.0,0.0,0.0,0.0,0.0,0.0,0.0,0.0,0.0,0.0,0.0,0.0,0.0,0.0,0.0,0.0,0.0,0.0,0.0,0.0,0.0,0.0,0.0,0.0,0.0,0.0,0.0,0.0,0.0,-0.6168,0.0,0.0,0.0,0.0,0.0,0.0,0.0,0.0,0.0,0.0,0.0,0.0,0.0,0.0,0.0,0.0,0.0,0.0,0.0,0.0,0.0,0.0,0.0,0.0,0.0,0.0,0.0,0.0,0.0,0.0,0.0,0.0,0.0,0.0,0.0,0.0,0.0,0.0,0.0,0.0,0.0,0.0,0.0,0.0,0.0,0.0,0.0,0.0,0.0,0.0,0.0,0.0,0.0,0.0,0.0,0.0,0.0,0.0,0.0,0.0,0.0,0.0,0.0,0.0,0.0,0.0,0.0,0.0,0.0,0.0,0.0,0.0,0.0,0.0,0.0,0.0,0.0,0.0,0.0,0.0,0.0,0.0,0.0,0.0,0.0,0.0,0.0,0.0,0.0,0.0,0.0,0.0,0.0,0.0,0.0,0.0,0.0,0.0,0.0,0.0,0.0,0.0,0.0,0.0,0.0,0.0,0.0,0.0,-0.5784,-0.5812,-0.5827,-0.5949,-0.6194,-0.6509,-0.6433,-0.6602,-0.6929,-0.6751,0.0,0.0,0.0,0.0,0.0,0.0,0.0,0.0,0.0,0.0,0.0,0.0,0.0,0.0,0.0,0.0,0.0,0.0,0.0,0.0,0.0,0.0,0.0,0.0,0.0,0.0,0.0,0.0,0.0,0.0,0.0,0.0,0.0,0.0,0.0,0.0,0.0,0.0,-1.209,-1.2609,-1.3195,-1.372,0.0,0.0,0.0,0.0,0.0,0.0,0.0,0.0,0.0,0.0,0.0,0.0,0.0,0.0,0.0,0.0,0.0,0.0,0.0,0.0,0.0,0.0,0.0,0.0,0.0,0.0,0.0,0.0,0.0,0.0,0.0,0.0,0.0,0.0,0.0,0.0,0.0,0.0,0.0,0.0,0.0,0.0,0.0,0.0,-0.8087,-1.0049,0.0,0.0,0.0,0.0,0.0,0.0,0.0,0.0,0.0,0.0,0.0,0.0,0.0,-0.5913,-0.5913,-0.6937,-0.7428,-0.7405,-0.767,-0.7835,-0.7801,-0.7362,-0.7399,-0.7738,-0.7017,0.0,-0.6689,-0.699,0.0,0.0,0.0,0.0,0.0,0.0,0.0,0.0,0.0,0.0,0.0,0.0,0.0,0.0,0.0,0.0,0.0,0.0,0.0,0.0,0.0,0.0,0.0,0.0,0.0,0.0,0.0,0.0,0.0,0.0,0.0,0.0,0.0,0.0,0.0,0.0,-1.1349,-1.2027,-1.2847,-1.3433,-1.3858,-1.4072,-1.3909,-1.3921,-1.4072,-1.3833,0.0,0.0,0.0,0.0,0.0,0.0,0.0,0.0,0.0,0.0,0.0,0.0,0.0,0.0,0.0,0.0,0.0,0.0,0.0,0.0,0.0,0.0,0.0,0.0,0.0,0.0,0.0,0.0,0.0,0.0,0.0,0.0,0.0,0.0,0.0,0.0,0.0,0.0,0.0,-0.8646,-0.9043,-0.9717,-0.9608,-0.9385,0.0,0.0,0.0,0.0,0.0,0.0,0.0,0.0,0.0,-0.6682,-0.6538,-0.6601,-0.6848,-0.7093,-0.707,-0.6869,-0.7172,-0.7233,-0.7072,-0.7334,-0.7433,-0.7444,-0.7426,-0.7291,-0.7096,-0.6921,-0.6737,-0.662,0.0,0.0,0.0,0.0,-0.7128,-0.7268,0.0,0.0,0.0,0.0,0.0,0.0,0.0,0.0,0.0,0.0,0.0,0.0,0.0,0.0,0.0,-1.2598,0.0,0.0,0.0,0.0,0.0,0.0,0.0,0.0,0.0,0.0,0.0,0.0,-1.2215,-1.2918,-1.3837,-1.4425,-1.4714,-1.4739,-1.5155,-1.4951,-1.4261,-1.4014,-1.3201,0.0,0.0,0.0,0.0,0.0,0.0,0.0,0.0,0.0,0.0,0.0,0.0,0.0,0.0,0.0,0.0,0.0,0.0,0.0,0.0,0.0,0.0,0.0,0.0,0.0,0.0,0.0,0.0,0.0,0.0,0.0,0.0,0.0,0.0,0.0,0.0,0.0,0.0,-0.9244,-1.0078,-0.9531,-0.9385,-0.9093,0.0,0.0,0.0,0.0,0.0,0.0,-0.6785,-0.6439,-0.6604,-0.7357,-0.7355,-0.7501,-0.7734,-0.7833,-0.769,-0.7395,-0.7379,-0.7287,-0.7087,-0.7456,-0.7468,-0.7238,-0.7689,-0.7796,-0.7542,-0.7027,-0.6767,-0.672,-0.6941,-0.6979,-0.7027,-0.7108,-0.7275,-0.752,0.0,0.0,0.0,0.0,0.0,0.0,0.0,0.0,0.0,0.0,0.0,0.0,0.0,0.0,-1.3989,-1.4588,-1.4169,-1.3784,0.0,0.0,0.0,0.0,0.0,0.0,0.0,0.0,0.0,-1.2366,-1.3935,-1.5041,-1.558,-1.6132,-1.6396,-1.6396,-1.6421,-1.5782,-1.4708,-1.3748,-1.3271,-1.3073,0.0,0.0,0.0,0.0,0.0,0.0,0.0,0.0,0.0,0.0,0.0,0.0,0.0,0.0,0.0,0.0,0.0,0.0,0.0,0.0,0.0,0.0,0.0,0.0,0.0,0.0,0.0,0.0,0.0,0.0,0.0,0.0,0.0,0.0,0.0,0.0,0.0,0.0,0.0,-0.9641,-0.9152,0.0,0.0,0.0,0.0,-0.8829,-0.7921,-0.7392,-0.7544,-0.7295,-0.6881,-0.6286,-0.7804,-0.8475,-0.8181,-0.9836,-1.0688,-1.0647,-0.9926,-0.9559,-0.9497,-0.8386,-0.7848,-0.7842,-0.7868,-0.7875,-0.7882,-0.7555,-0.7255,-0.7001,-0.7014,-0.6979,-0.7054,-0.7341,-0.75,-0.7553,0.0,0.0,0.0,0.0,0.0,0.0,0.0,0.0,0.0,0.0,0.0,0.0,0.0,-1.4423,-1.5171,-1.5424,-1.5432,-1.476,-1.3252,0.0,0.0,0.0,0.0,0.0,0.0,0.0,-1.2235,-1.3493,-1.445,-1.5329,-1.6233,-1.6421,-1.6522,-1.6522,-1.6522,-1.604,-1.5278,-1.4959,-1.4046,-1.2777,-1.2467,-1.1997,0.0,0.0,0.0,0.0,0.0,0.0,0.0,0.0,0.0,0.0,0.0,0.0,0.0,0.0,0.0,0.0,0.0,0.0,0.0,0.0,0.0,0.0,0.0,0.0,0.0,0.0,0.0,0.0,0.0,0.0,0.0,0.0,0.0,0.0,0.0,0.0,0.0,-0.9651,-0.9686,0.0,-0.8579,-0.8388,-0.8273,-0.8237,-0.8052,-0.8152,-0.8664,-0.8363,-0.8279,-0.8577,-0.8388,-0.8395,-0.853,-0.8812,-0.9199,-0.9595,-0.9086,-0.9179,-0.9794,-0.8898,-0.8634,-0.8888,-0.904,-0.9012,-0.8866,-0.875,-0.8285,-0.7563,-0.7563,-0.7563,-0.757,-0.7722,-0.7882,-0.8111,0.0,0.0,0.0,0.0,0.0,0.0,0.0,0.0,0.0,0.0,0.0,-1.3376,-1.4064,-1.5515,-1.6308,-1.5995,-1.5962,-1.5007,-1.2687,0.0,0.0,0.0,0.0,0.0,0.0,-1.1939,-1.3078,-1.4362,-1.5104,-1.5806,-1.6522,-1.6522,-1.6522,-1.6522,-1.6522,-1.6281,-1.5884,-1.5952,-1.4713,-1.2718,-1.2479,-1.1887,-1.1106,0.0,0.0,0.0,0.0,0.0,0.0,0.0,0.0,0.0,0.0,0.0,0.0,0.0,0.0,0.0,0.0,0.0,0.0,0.0,0.0,0.0,0.0,0.0,0.0,0.0,0.0,0.0,0.0,0.0,0.0,0.0,0.0,0.0,0.0,0.0,-1.0176,-0.9883,-0.9906,-0.9667,-0.8976,-0.8928,-0.8944,-0.8832,-0.8652,-0.8772,-0.9391,-0.8896,-0.8798,-0.9209,-0.9089,-0.9081,-0.9283,-0.9501,-0.9692,-0.9866,-0.9437,-0.9422,-0.9835,-0.9125,-0.8951,-0.9213,-0.9372,-0.9343,-0.9206,-0.9206,-0.8791,-0.8161,-0.7961,-0.7882,-0.7895,-0.8043,-0.8203,-0.839,0.0,0.0,0.0,0.0,0.0,0.0,0.0,0.0,0.0,0.0,-1.3137,-1.4064,-1.4752,-1.6533,-1.7302,-1.6427,-1.5664,-1.4313,-1.2133,-1.0433,0.0,0.0,0.0,0.0,-1.1588,-1.3267,-1.4387,-1.4941,-1.5982,-1.6522,-1.6522,-1.6522,-1.6522,-1.6522,-1.6534,-1.6534,-1.6522,-1.6559,-1.5251,-1.3078,-1.2297,-1.182,-1.1508,0.0,0.0,0.0,0.0,0.0,0.0,0.0,0.0,0.0,0.0,0.0,0.0,0.0,0.0,0.0,0.0,0.0,0.0,0.0,0.0,0.0,0.0,0.0,0.0,0.0,0.0,0.0,0.0,0.0,0.0,0.0,0.0,0.0,-1.042,-1.0312,-1.0322,-1.0322,-0.9762,-0.9594,-1.0205,-0.9674,-0.9717,-1.0753,-0.9794,-0.9305,-0.9703,-0.8936,-0.8349,-0.801,-0.9818,-1.0648,-1.0398,-1.2011,-1.2452,-1.1814,-1.1116,-1.0466,-0.9865,-0.9159,-0.8857,-0.891,-0.8857,-0.8857,-0.8857,-0.8857,-0.8857,-0.8751,-0.8183,-0.7908,-0.7948,-0.8283,-0.839,-0.843,0.0,0.0,0.0,0.0,0.0,0.0,0.0,0.0,0.0,0.0,-1.3019,-1.4244,-1.5409,-1.6398,-1.7005,-1.7009,-1.4947,-1.3065,-1.1744,0.0,0.0,0.0,0.0,0.0,-1.2165,-1.3833,-1.4953,-1.5467,-1.617,-1.6522,-1.6522,-1.6522,-1.6522,-1.6534,-1.6961,-1.6911,-1.6572,-1.7388,-1.6537,-1.4595,-1.3839,-1.3021,-1.216,0.0,0.0,0.0,0.0,0.0,0.0,0.0,0.0,0.0,0.0,0.0,0.0,0.0,0.0,0.0,0.0,0.0,0.0,0.0,0.0,0.0,0.0,0.0,0.0,0.0,0.0,0.0,0.0,0.0,0.0,0.0,0.0,-1.1006,-1.0771,-1.1006,-1.1253,-1.1253,-1.1074,-1.068,-0.9926,-0.9707,-0.9465,-0.9131,-0.9667,-1.0192,-1.0499,-1.0714,-1.0822,-1.0712,-1.0311,-1.0273,-1.0673,-1.0679,-1.1023,-1.1814,-1.1116,-1.1233,-1.2008,-1.0779,-1.0517,-1.0965,-1.0466,-1.0261,-1.021,-0.9718,-0.951,-0.9444,-0.883,-0.8564,-0.8577,-0.8657,-0.8691,-0.8697,0.0,0.0,0.0,0.0,0.0,0.0,0.0,0.0,0.0,0.0,-1.3211,-1.4513,-1.5304,-1.6159,-1.641,-1.5679,-1.3769,-1.1813,-1.007,0.0,0.0,0.0,0.0,-1.1713,-1.3069,-1.4525,-1.5492,-1.6045,-1.6358,-1.6522,-1.6522,-1.6522,-1.6647,-1.6886,-1.6974,-1.7099,-1.7205,-1.7341,-1.6908,-1.5964,-1.4946,-1.4176,-1.3531,-1.2597,-1.2549,-1.2916,-1.2508,-1.2477,-1.261,-1.2691,0.0,0.0,0.0,0.0,0.0,0.0,0.0,0.0,0.0,0.0,0.0,0.0,0.0,0.0,0.0,0.0,0.0,0.0,0.0,0.0,0.0,0.0,0.0,0.0,-1.1387,-1.1455,-1.1455,-1.1514,-1.1577,-1.1438,-1.1448,-1.1196,-1.0643,-1.0565,-1.0525,-1.0319,-1.0712,-1.0936,-1.0805,-1.0914,-1.0965,-1.0965,-1.0466,-1.0517,-1.1216,-1.1133,-1.1325,-1.1814,-1.1116,-1.1074,-1.1543,-1.0474,-1.032,0.0,-1.0261,-1.0115,-1.032,-0.9666,-0.9361,0.0,0.0,0.0,0.0,0.0,-0.8804,-0.8804,0.0,0.0,0.0,0.0,0.0,0.0,0.0,0.0,0.0,0.0,0.0,-1.4588,-1.4677,-1.5696,-1.5506,-1.3368,-1.2316,-1.0648,0.0,0.0,0.0,-0.9151,-1.0834,-1.2524,-1.4047,-1.5191,-1.6019,-1.6522,-1.6522,-1.6522,-1.6522,-1.6522,-1.6823,-1.7363,-1.6911,-1.7262,-1.8131,-1.7122,-1.6883,-1.7027,-1.588,-1.531,-1.5047,-1.3815,-1.3984,-1.4717,-1.3104,-1.2894,-1.3257,-1.2604,0.0,0.0,0.0,0.0,0.0,0.0,0.0,0.0,0.0,0.0,0.0,0.0,0.0,0.0,0.0,0.0,0.0,0.0,0.0,0.0,0.0,0.0,0.0,0.0,-1.1719,-1.2219,-1.2307,-1.1992,-1.1657,-1.1415,-1.1404,-1.1492,-1.1778,-1.1715,-1.1931,-1.252,-1.203,-1.1416,-1.0813,0.0,0.0,0.0,0.0,-1.1216,-1.1922,-1.2501,-1.2501,-1.1922,-1.1325,-1.072,-1.0123,-0.9517,-0.9569,-1.0123,-0.9413,-0.9465,-0.9969,-0.9211,-0.8857,-0.8804,-0.8804,-0.8804,-0.8804,-0.8804,-0.8804,-0.8804,0.0,0.0,0.0,0.0,0.0,0.0,0.0,0.0,0.0,-1.1854,-1.2598,-1.34,-1.3929,-1.4229,-1.386,-1.2603,-1.1313,-0.966,0.0,0.0,-0.9052,-0.9717,-1.1776,-1.327,-1.4072,-1.5567,-1.6409,-1.6522,-1.6522,-1.6522,-1.6522,-1.6522,-1.6823,-1.74,-1.7727,-1.8003,-1.8254,-1.8859,-1.8438,-1.7427,-1.7387,-1.6472,-1.5091,-1.49,-1.4938,-1.5067,-1.4562,-1.4682,-1.4882,-1.4027,-1.4027,-1.4301,-1.3794,0.0,0.0,0.0,0.0,0.0,0.0,0.0,0.0,0.0,0.0,0.0,0.0,0.0,0.0,0.0,0.0,0.0,0.0,0.0,0.0,-1.183,-1.2073,-1.2424,-1.3164,-1.2891,-1.2656,-1.259,-1.259,-1.2366,-1.1864,-1.1316,-1.0813,-1.0423,-1.0771,-1.0965,-1.0813,-1.1742,-1.2314,-1.2314,-1.1832,-1.1931,-1.2666,-1.2236,-1.2236,-1.2666,0.0,0.0,-1.2314,-1.2166,-1.2166,-1.2264,-1.1525,-1.1275,-1.1292,-1.0123,-0.9316,-0.8804,-0.8804,-0.8804,-0.8804,-0.8804,-0.8804,-0.8804,0.0,0.0,0.0,0.0,0.0,0.0,0.0,0.0,0.0,0.0,-1.2373,-1.2936,-1.3256,-1.3301,-1.2969,-1.2123,-1.057,0.0,0.0,-0.8889,-0.9868,-1.0709,-1.2605,-1.4023,-1.489,-1.5957,-1.6522,-1.6522,-1.6522,-1.6522,-1.6522,-1.6522,-1.6974,-1.779,-1.779,-1.8242,-1.897,-1.8906,-1.8582,-1.8047,-1.7418,-1.6645,-1.5781,-1.553,-1.5701,-1.594,-1.5524,-1.5394,-1.5333,-1.4814,-1.4853,-1.496,-1.3955,-1.3763,-1.3699,0.0,0.0,0.0,0.0,0.0,0.0,0.0,0.0,0.0,0.0,0.0,0.0,0.0,0.0,-1.1299,0.0,0.0,-1.1787,-1.2451,-1.2734,-1.3096,-1.373,-1.3457,-1.3093,-1.2733,-1.2485,-1.2187,-1.1814,-1.1516,-1.1316,-1.1342,-1.1642,-1.1683,-1.1316,-1.1981,-1.2344,-1.2344,-1.1972,-1.2129,-1.2881,-1.255,-1.2559,-1.2881,-1.251,-1.2344,-1.2344,-1.199,-1.2049,-1.2295,-1.1625,-1.1325,-1.1183,-0.9873,-0.9309,-0.9263,-0.8903,-0.8804,-0.8804,-0.8804,-0.8804,-0.8804,0.0,0.0,0.0,0.0,0.0,0.0,0.0,0.0,0.0,0.0,0.0,-1.2644,-1.2675,-1.2644,-1.2328,0.0,0.0,0.0,0.0,-0.9616,-1.0634,-1.155,-1.3304,-1.4664,-1.5517,-1.6183,-1.6522,-1.6522,-1.6522,-1.6522,-1.6522,-1.6522,-1.7061,-1.8028,-1.7689,-1.8329,-1.9571,-1.8651,-1.8498,-1.8696,-1.7457,-1.6818,-1.6566,-1.5956,-1.617,-1.6697,-1.6138,-1.5669,-1.5315,-1.5167,-1.5174,-1.5083,-1.3955,-1.3924,-1.41,-1.2528,-1.2295,0.0,0.0,0.0,0.0,0.0,0.0,0.0,0.0,0.0,-1.1528,-1.1221,-1.1377,-1.1655,-1.1832,-1.2041,-1.2373,-1.2812,-1.3164,-1.3525,-1.3955,-1.3652,-1.3205,-1.2757,-1.2287,-1.2021,-1.2021,-1.1864,-1.203,-1.2657,-1.2666,-1.2452,-1.1814,-1.1922,-1.2021,-1.2021,-1.2021,-1.2295,-1.2881,-1.2881,-1.2881,-1.2881,-1.2295,-1.2021,-1.1972,-1.1475,-1.1475,-1.1972,-1.1425,-1.1124,-1.0914,-0.9814,-0.9614,-0.9917,-0.9263,-0.9008,-0.8956,-0.8857,-0.8804,-0.8818,0.0,0.0,0.0,0.0,0.0,0.0,0.0,0.0,0.0,0.0,0.0,0.0,0.0,0.0,0.0,0.0,0.0,0.0,0.0,-1.0671,-1.145,-1.1575,-1.367,-1.4878,-1.5004,-1.5982,-1.6522,-1.6522,-1.6522,-1.6522,-1.6522,-1.6522,-1.6861,-1.7488,-1.7928,-1.8493,-1.9083,-1.9433,-1.9474,-1.927,-1.8689,-1.7891,-1.7015,-1.6171,-1.6153,-1.6528,-1.6258,-1.5858,-1.5418,-1.4896,-1.4553,-1.4193,-1.3846,-1.3527,-1.3065,-1.1969,0.0,-1.1103,-1.1006,-1.1016,-1.1133,-1.1518,-1.1309,-1.124,0.0,0.0,-1.1704,-1.2012,-1.1807,-1.1851,-1.2588,-1.2461,-1.2373,-1.2812,-1.292,-1.3096,-1.3516,-1.3213,-1.3086,-1.3355,-1.3035,-1.2774,-1.2774,-1.2187,-1.1814,-1.1922,-1.1922,-1.1873,-1.1814,-1.2403,-1.2774,-1.2774,-1.2774,-1.2822,-1.2881,-1.2881,-1.2881,-1.2881,-1.2822,-1.2774,-1.2774,-1.2715,-1.2725,-1.2774,-1.2715,-1.2295,-1.1665,-1.1516,-1.1166,-1.0618,-0.9969,-0.9666,-0.9614,-0.9008,-0.8804,-0.8844,0.0,0.0,0.0,0.0,0.0,0.0,0.0,0.0,0.0,0.0,0.0,0.0,0.0,0.0,0.0,0.0,0.0,0.0,-1.01,-1.1157,-1.1912,-1.2052,-1.3909,-1.5067,-1.5341,-1.612,-1.6522,-1.6522,-1.6522,-1.6522,-1.6522,-1.6522,-1.6999,-1.7865,-1.8103,-1.8681,-1.9497,-1.971,-1.9716,-1.9609,-1.9318,-1.8343,-1.7026,-1.6554,-1.5538,-1.445,-1.48,-1.4577,0.0,0.0,-1.386,-1.3707,-1.3062,-1.3026,-1.2939,-1.1591,-1.1416,0.0,-1.1357,-1.1332,-1.1328,-1.1557,-1.1807,-1.2158,-1.252,-1.2656,-1.2744,-1.293,-1.2822,-1.2812,-1.3174,-1.29,-1.2744,0.0,-1.3242,-1.3389,-1.3818,-1.3516,-1.3311,-1.3486,-1.3135,-1.2881,-1.2881,-1.1891,-1.1575,-1.2393,-1.2669,-1.2802,-1.2802,-1.3082,-1.3242,-1.3242,-1.3008,-1.2881,-1.2881,-1.2881,-1.3008,-1.3242,-1.2998,-1.3008,-1.3242,-1.2998,-1.2881,-1.2881,-1.2452,-1.2344,-1.2393,-1.1575,-1.1275,-1.1292,-1.0218,-0.9814,-0.971,-0.9061,-0.8918,-0.9024,0.0,0.0,0.0,0.0,0.0,0.0,0.0,0.0,0.0,0.0,0.0,0.0,0.0,0.0,0.0,0.0,0.0,0.0,0.0,-1.1362,-1.1871,-1.2068,-1.3743,0.0,-1.5229,-1.6082,-1.6522,-1.6522,-1.6522,-1.6522,-1.6522,-1.6522,-1.6961,-1.7752,-1.7903,-1.8493,-1.9371,-1.9522,-1.9673,-1.9772,-1.9548,-1.859,-1.7156,-1.6431,-1.4906,-1.3152,-1.3424,-1.3076,0.0,0.0,-1.2722,-1.2767,-1.2208,-1.2383,-1.2596,-1.1439,-1.1631,-1.2064,-1.1533,-1.1694,-1.1969,-1.1969,-1.2578,-1.3232,-1.3232,-1.3555,-1.3828,-1.3711,-1.3584,-1.3506,-1.3506,-1.3164,-1.2978,-1.3281,-1.334,-1.3437,-1.375,-1.3525,-1.334,-1.334,-1.2899,-1.2666,-1.2881,-1.1999,-1.1837,-1.2988,-1.334,-1.3555,-1.3672,-1.3682,-1.3682,-1.3682,-1.3271,-1.3057,-1.3057,-1.3057,-1.3154,-1.333,-1.3145,-1.3154,-1.332,-1.3018,-1.2881,-1.2881,-1.2344,-1.2403,-1.2832,-1.1908,-1.1852,-1.2122,-1.0772,-1.0254,-1.0157,-0.9238,-0.9058,-0.9196,0.0,0.0,0.0,0.0,0.0,0.0,0.0,0.0,0.0,0.0,0.0,0.0,0.0,0.0,0.0,0.0,0.0,0.0,0.0,-1.1234,-1.1215,-1.1241,-1.3081,-1.4123,-1.4135,-1.568,-1.6522,-1.6522,-1.6522,-1.6522,-1.6522,-1.6522,-1.6534,-1.6597,-1.7149,-1.7714,-1.8292,-1.8819,-1.9346,-1.9761,-1.9221,-1.8571,-1.7665,-1.5641,-1.4353,-1.3542,-1.2594,0.0,0.0,0.0,-1.0979,-1.1038,-1.1479,-1.1626,0.0,-1.1596,-1.1865,0.0,0.0,-1.1865,-1.2842,-1.2842,-1.3477,-1.4038,-1.4038,-1.4434,-1.4629,-1.4199,-1.3789,-1.3506,-1.3506,-1.3164,-1.2881,-1.29,-1.29,-1.29,-1.291,-1.291,-1.29,-1.29,-1.2295,-1.2129,0.0,-1.2881,-1.2998,-1.3457,-1.3496,-1.3682,-1.4038,-1.4058,-1.4058,-1.4058,-1.3711,-1.3486,-1.3486,-1.3486,-1.3291,-1.29,-1.3301,-1.3281,-1.29,-1.2891,-1.2881,-1.2881,-1.2881,-1.2881,-1.291,-1.327,-1.3435,-1.3323,-1.1983,-1.1447,-1.1235,-0.9762,-0.9176,-0.9223,0.0,0.0,0.0,0.0,0.0,0.0,0.0,0.0,0.0,0.0,0.0,0.0,0.0,0.0,0.0,0.0,0.0,0.0,0.0,-1.1658,-1.1664,-1.1215,-1.2533,-1.3357,-1.3496,-1.4412,-1.5104,-1.5429,-1.5429,-1.5618,-1.5969,-1.5969,-1.6371,-1.7099,-1.73,-1.7689,-1.8216,-1.8405,-1.8581,-1.8731,-1.8555,-1.7626,-1.6265,-1.5199,-1.383,-1.2341,0.0,0.0,0.0,0.0,0.0,0.0,-1.0576,0.0,0.0,-1.1439,0.0,0.0,0.0,0.0,-1.3428,-1.4004,-1.4561,-1.5059,-1.5352,-1.5303,-1.5078,-1.4648,-1.4004,-1.3418,-1.3145,-1.2744,-1.2451,-1.2451,-1.293,-1.3203,-1.292,-1.3125,-1.3193,-1.291,-1.2666,0.0,0.0,0.0,0.0,-1.3426,-1.3769,-1.4111,-1.4541,-1.4561,-1.4561,-1.4561,-1.415,-1.3789,-1.3506,-1.3506,-1.3437,-1.3301,-1.3437,-1.3281,-1.2881,-1.2881,-1.2881,-1.2881,-1.2881,-1.2881,-1.2891,-1.3037,-1.295,-1.2611,-1.1746,-1.11,-1.0601,-0.9848,-0.9532,-0.9573,0.0,0.0,0.0,0.0,0.0,0.0,0.0,0.0,0.0,0.0,0.0,0.0,0.0,0.0,0.0,0.0,0.0,0.0,0.0,0.0,-1.1686,-1.1246,-1.2104,-1.2649,-1.2768,-1.3427,-1.3935,-1.4287,-1.4287,-1.4463,-1.4814,-1.4814,-1.5203,-1.5906,-1.5906,-1.6321,-1.7011,-1.7011,-1.7011,-1.7011,-1.7011,-1.612,-1.4679,-1.4132,-1.3152,0.0,0.0,0.0,0.0,0.0,0.0,0.0,0.0,0.0,0.0,0.0,0.0,0.0,0.0,-1.3643,-1.4355,-1.5059,-1.5566,-1.5869,-1.584,-1.5615,-1.5166,-1.4287,-1.3672,-1.3154,-1.2725,-1.2285,-1.2041,-1.2161,-1.2559,-1.2773,-1.2666,-1.2881,-1.3008,-1.29,-1.3018,-1.3105,0.0,0.0,0.0,-1.3659,-1.4131,-1.4551,-1.498,-1.5156,-1.5176,-1.501,-1.459,-1.4238,-1.3965,-1.3965,-1.3965,-1.3965,-1.3652,-1.3359,-1.3096,-1.2949,-1.2881,-1.2881,-1.2881,-1.2881,-1.29,-1.3203,-1.317,-1.283,-1.2095,-1.1486,-1.1025,-1.0168,-0.984,-0.9866,0.0,0.0,0.0,0.0,0.0,0.0,0.0,0.0,0.0,0.0,0.0,0.0,0.0,0.0,0.0,0.0,0.0,0.0,0.0,0.0,0.0,-1.1296,-1.1736,-1.1977,-1.1974,-1.2704,-1.3119,-1.3144,-1.311,-1.3135,-1.316,-1.316,-1.3173,-1.3198,-1.3198,-1.381,-1.4828,-1.4828,-1.4828,-1.4828,-1.4802,-1.4124,-1.3098,-1.258,0.0,0.0,0.0,0.0,0.0,0.0,0.0,0.0,0.0,0.0,0.0,0.0,0.0,-1.3516,-1.3584,-1.4502,-1.5557,-1.6016,-1.6436,-1.6504,-1.5644,-1.5391,-1.4883,-1.3252,-1.2881,-1.2725,0.0,0.0,-1.1783,-1.2158,-1.1904,-1.1807,-1.219,-1.2268,-1.248,0.0,0.0,0.0,0.0,0.0,0.0,-1.4145,0.0,-1.5,-1.542,-1.584,-1.5859,-1.542,-1.5029,-1.4805,-1.4785,-1.4766,-1.4736,-1.4707,-1.3896,-1.3496,-1.3467,-1.3066,-1.2881,-1.2881,-1.2881,-1.2881,-1.2939,-1.374,-1.4038,-1.3955,-1.2994,-1.2572,-1.2355,-1.0763,-1.0114,-1.0114,0.0,0.0,0.0,0.0,0.0,0.0,0.0,0.0,0.0,0.0,0.0,0.0,0.0,0.0,0.0,0.0,0.0,0.0,0.0,0.0,0.0,0.0,0.0,0.0,0.0,0.0,0.0,0.0,0.0,-1.2215,-1.2584,-1.2584,-1.281,0.0,-1.3198,-1.3348,-1.3611,-1.3611,-1.3611,-1.3622,0.0,-1.2868,-1.2567,0.0,0.0,0.0,0.0,0.0,0.0,0.0,0.0,0.0,0.0,-1.2453,-1.2772,-1.3,-1.3268,-1.3721,-1.4668,-1.54,-1.6084,-1.6855,-1.6885,-1.6582,-1.6025,-1.5146,-1.4248,-1.3506,-1.2842,-1.2363,-1.22,0.0,0.0,-1.2161,-1.2666,0.0,-1.3164,-1.3447,0.0,-1.3799,0.0,-1.3975,-1.3975,-1.4365,0.0,0.0,-1.5186,-1.5439,-1.5879,-1.6006,-1.5859,-1.542,-1.5312,-1.5107,-1.4785,-1.4463,-1.4141,-1.3828,-1.3613,-1.334,-1.3037,-1.293,-1.2881,-1.2881,-1.2881,-1.2881,-1.29,-1.3115,-1.3204,-1.3204,-1.2919,-1.233,-1.1575,-1.116,-1.0636,-1.0114,0.0,0.0,0.0,0.0,0.0,0.0,0.0,0.0,0.0,0.0,0.0,0.0,0.0,0.0,0.0,0.0,0.0,0.0,0.0,0.0,0.0,0.0,0.0,0.0,0.0,0.0,0.0,0.0,0.0,0.0,0.0,-1.1519,-1.1611,-1.1733,-1.1733,-1.1871,-1.2096,0.0,0.0,0.0,0.0,0.0,0.0,0.0,0.0,0.0,0.0,0.0,0.0,0.0,0.0,-1.2896,-1.2918,-1.315,-1.3478,-1.3742,-1.4043,-1.4541,-1.5449,-1.6162,-1.6768,-1.7256,-1.6904,-1.6279,-1.5644,-1.4648,-1.363,-1.3066,-1.2521,-1.218,-1.218,-1.1869,-1.1733,0.0,0.0,0.0,-1.2891,-1.3311,-1.3652,0.0,-1.4355,0.0,-1.4697,-1.5264,-1.582,0.0,-1.6103,-1.6103,-1.6338,-1.6533,-1.6348,-1.5723,-1.5693,-1.5488,-1.5068,-1.4814,-1.458,-1.4336,-1.3965,-1.3662,-1.3418,-1.3047,-1.2988,-1.3145,0.0,-1.2988,-1.3154,-1.3154,-1.3279,-1.3413,-1.3032,-1.2745,-1.2484,-1.1562,-1.1076,-1.0786,0.0,0.0,0.0,0.0,0.0,0.0,0.0,0.0,0.0,0.0,0.0,0.0,0.0,0.0,0.0,0.0,0.0,0.0,0.0,0.0,0.0,0.0,0.0,0.0,0.0,0.0,0.0,0.0,0.0,0.0,0.0,0.0,0.0,0.0,0.0,0.0,0.0,0.0,0.0,0.0,0.0,0.0,0.0,0.0,0.0,0.0,0.0,0.0,0.0,0.0,-1.389,-1.3509,-1.3674,-1.3916,-1.4146,-1.4127,-1.4872,-1.58,-1.6247,-1.6938,-1.757,-1.757,-1.6835,-1.59,-1.498,-1.4072,-1.3213,-1.2471,-1.2219,-1.22,-1.2258,-1.1689,-1.1426,-1.2187,0.0,-1.1455,-1.2239,-1.2773,-1.3203,-1.3623,-1.4756,-1.5498,-1.5498,-1.6299,-1.6973,-1.7353,-1.708,-1.6875,-1.6826,-1.7178,-1.7002,-1.6243,-1.6154,-1.5879,-1.5498,-1.5439,-1.5381,-1.5322,-1.458,-1.4107,-1.397,-1.3301,-1.3135,-1.3408,-1.3037,0.0,-1.3418,-1.3418,-1.3711,-1.4024,-1.3304,-1.351,-1.3981,-1.2166,-1.1609,-1.1703,0.0,0.0,0.0,0.0,0.0,0.0,0.0,0.0,0.0,0.0,-1.3363,-1.3329,0.0,0.0,0.0,0.0,0.0,0.0,0.0,0.0,0.0,0.0,0.0,0.0,0.0,0.0,0.0,0.0,0.0,0.0,0.0,0.0,0.0,0.0,0.0,0.0,0.0,0.0,0.0,0.0,0.0,0.0,0.0,0.0,0.0,0.0,0.0,0.0,0.0,0.0,-1.4688,-1.4698,-1.5166,-1.5584,-1.5892,-1.5686,-1.6475,-1.7455,-1.7638,-1.802,-1.8361,-1.8361,-1.7244,-1.59,-1.498,-1.3857,0.0,-1.2803,-1.248,-1.2344,-1.2705,-1.2646,-1.2588,-1.2744,-1.2637,-1.2715,-1.3223,-1.3652,-1.4072,0.0,-1.5381,-1.5947,-1.5947,-1.6748,0.0,0.0,-1.7637,-1.7637,-1.7285,-1.7344,-1.7148,-1.6631,-1.626,-1.6086,-1.5947,-1.5586,-1.5234,-1.4893,-1.4746,-1.4297,-1.3613,-1.3467,-1.3252,-1.2988,-1.291,0.0,-1.2988,-1.2988,-1.3437,-1.4077,-1.397,-1.4026,-1.41,-1.3531,-1.2687,-1.1727,0.0,0.0,0.0,0.0,0.0,0.0,0.0,-1.2888,-1.3261,-1.2888,-1.2837,-1.2973,-1.3362,-1.2926,-1.261,0.0,0.0,0.0,0.0,0.0,0.0,0.0,0.0,0.0,0.0,0.0,0.0,0.0,0.0,0.0,0.0,0.0,0.0,0.0,0.0,0.0,0.0,0.0,0.0,0.0,0.0,0.0,0.0,0.0,0.0,0.0,0.0,0.0,0.0,0.0,-1.4475,-1.4676,-1.5768,-1.6235,-1.6362,-1.6515,-1.7262,-1.8136,-1.8506,-1.9116,-1.9414,-1.849,-1.7315,-1.606,-1.4749,-1.3633,-1.2881,-1.2881,-1.2715,-1.2627,-1.2842,-1.2695,-1.2617,-1.2842,-1.2547,-1.2422,-1.3086,-1.3545,-1.4053,-1.4707,-1.5742,-1.6504,-1.6728,-1.7334,-1.7705,-1.7705,-1.79,-1.793,-1.7715,-1.75,-1.7178,-1.6685,-1.6299,-1.5957,-1.5723,-1.5518,-1.5312,-1.5107,-1.4893,-1.4453,-1.3828,-1.3613,-1.3516,-1.3516,-1.3301,0.0,-1.3838,-1.3389,-1.3711,-1.4434,-1.3984,-1.4234,-1.47,-1.3944,-1.3395,-1.2907,0.0,0.0,0.0,0.0,0.0,0.0,0.0,-1.2414,-1.3074,-1.2162,-1.2195,-1.2517,-1.3108,-1.2732,-1.2488,0.0,0.0,0.0,0.0,0.0,0.0,0.0,0.0,0.0,0.0,0.0,0.0,0.0,0.0,0.0,0.0,0.0,0.0,0.0,0.0,0.0,0.0,0.0,0.0,0.0,0.0,0.0,0.0,0.0,0.0,0.0,0.0,0.0,0.0,0.0,-1.4085,-1.4337,-1.5718,-1.623,-1.6371,-1.667,-1.7653,-1.8737,-1.9238,-2.0007,-2.0347,-1.8862,-1.7679,-1.6499,-1.4897,-1.3872,-1.3248,-1.3104,-1.3104,-1.3065,-1.2929,-1.2607,-1.248,-1.2832,-1.2341,-1.2135,-1.2783,-1.332,-1.3896,-1.457,-1.5879,0.0,-1.7207,-1.7705,0.0,-1.8008,-1.8008,0.0,-1.8008,-1.7695,-1.7324,-1.6885,-1.6436,-1.5996,-1.5557,-1.5459,-1.541,-1.541,-1.5078,-1.4697,-1.4268,-1.3936,-1.3867,-1.3984,-1.375,0.0,0.0,-1.3887,-1.4092,-1.4717,-1.4043,-1.4453,-1.5313,-1.4333,-1.4068,-1.4025,0.0,0.0,0.0,0.0,0.0,0.0,0.0,-1.2414,-1.2871,-1.14,-1.184,-1.2331,-1.2381,-1.214,-1.2151,0.0,0.0,0.0,0.0,0.0,0.0,0.0,0.0,0.0,0.0,0.0,0.0,0.0,0.0,0.0,0.0,0.0,0.0,0.0,0.0,0.0,0.0,0.0,0.0,0.0,0.0,0.0,0.0,0.0,0.0,0.0,0.0,0.0,0.0,0.0,0.0,-1.4198,-1.4853,-1.5702,-1.638,-1.5742,-1.7497,-1.9719,-2.0148,-2.0594,-2.0818,-2.0322,-1.8827,-1.7267,-1.6247,-1.5222,-1.4376,-1.3826,-1.3732,-1.3552,-1.3017,-1.2842,-1.2832,-1.2871,0.0,-1.2793,-1.2871,-1.3574,-1.4048,-1.4126,0.0,0.0,-1.6787,-1.7529,-1.8008,-1.8008,-1.8008,0.0,-1.8008,-1.7978,-1.7764,-1.7334,-1.6904,-1.6455,-1.6066,-1.5605,-1.541,-1.541,-1.5371,-1.5127,-1.4727,-1.4687,-1.4268,-1.3584,-1.3873,0.0,0.0,-1.3955,-1.4355,-1.4775,-1.4697,-1.4971,-1.541,-1.5255,-1.4777,-1.4213,0.0,0.0,0.0,0.0,0.0,0.0,-1.0612,-1.1797,-1.2517,-1.1891,-1.1671,-1.1925,-1.2871,-1.1647,-1.1328,-1.2722,0.0,0.0,0.0,0.0,0.0,0.0,0.0,0.0,0.0,0.0,0.0,0.0,0.0,0.0,0.0,0.0,0.0,0.0,0.0,0.0,0.0,0.0,0.0,0.0,0.0,0.0,0.0,0.0,0.0,0.0,0.0,0.0,0.0,0.0,0.0,0.0,-1.3433,-1.4149,0.0,0.0,-1.7384,-1.9021,-1.9846,-2.0662,-2.1003,-1.967,-1.8637,-1.7514,-1.6002,-1.5143,-1.4606,-1.4376,-1.4329,-1.4154,-1.3552,-1.342,-1.3324,-1.2968,0.0,0.0,-1.289,-1.3823,-1.4489,-1.4543,-1.5938,0.0,0.0,0.0,-1.8787,-1.8787,-1.8787,0.0,-1.8008,-1.8008,-1.7695,-1.7012,-1.6826,-1.6387,-1.5684,-1.5498,-1.541,-1.541,-1.541,-1.5186,-1.4785,-1.4785,-1.46,-1.4287,-1.4453,0.0,0.0,-1.4561,-1.4775,-1.5137,-1.4883,-1.5039,-1.541,-1.541,-1.5167,-1.4902,0.0,0.0,0.0,0.0,0.0,-1.0408,-1.0227,-1.1408,-1.2241,-1.1975,-1.1654,-1.1773,-1.2634,-1.1502,-1.1244,-1.2672,-1.2378,0.0,0.0,0.0,0.0,0.0,0.0,0.0,0.0,0.0,0.0,-1.2516,-1.2029,0.0,0.0,0.0,0.0,0.0,0.0,0.0,0.0,0.0,0.0,0.0,0.0,0.0,0.0,0.0,0.0,0.0,0.0,0.0,0.0,0.0,0.0,0.0,0.0,0.0,0.0,0.0,-1.6572,-1.7903,-1.8832,-1.9911,-2.0457,-1.9125,-1.8479,-1.775,-1.6254,-1.5568,-1.5197,-1.5017,-1.4971,-1.4778,-1.419,-1.405,-1.392,0.0,0.0,-1.3538,-1.3437,-1.4273,-1.4822,-1.4707,0.0,-1.7012,0.0,-1.8814,-1.9562,-1.9299,-1.9299,0.0,-1.8395,-1.8026,-1.749,-1.6694,-1.6602,-1.6172,-1.542,-1.541,-1.541,-1.541,-1.541,-1.5254,-1.4971,-1.4971,-1.4902,-1.4795,-1.4922,0.0,0.0,-1.5039,-1.5146,-1.5381,-1.5088,-1.5146,-1.543,-1.5557,-1.5605,-1.5605,0.0,0.0,0.0,0.0,0.0,0.0,-1.0239,-1.1441,-1.2089,-1.1242,-1.1789,-1.1992,-1.1214,-1.1806,-1.228,-1.2314,-1.2057,0.0,0.0,0.0,0.0,0.0,0.0,0.0,0.0,0.0,-1.1805,-1.1805,-1.1805,-1.1805,-1.1805,0.0,0.0,0.0,0.0,0.0,0.0,0.0,0.0,0.0,0.0,0.0,0.0,0.0,0.0,0.0,0.0,0.0,0.0,0.0,0.0,0.0,0.0,0.0,0.0,0.0,-1.4776,-1.666,-1.725,-1.8216,-1.8995,-1.8983,-1.857,-1.8066,-1.7501,-1.6892,-1.6293,-1.572,-1.5588,-1.541,-1.4789,-1.4709,-1.4709,-1.4698,-1.4698,0.0,-1.4698,-1.5018,-1.5077,0.0,0.0,-1.6798,-1.7371,-1.9346,-2.0204,-1.9365,0.0,0.0,-1.9299,-1.8127,-1.7187,-1.6685,-1.6299,-1.5859,-1.542,-1.541,-1.541,-1.541,-1.541,-1.541,-1.54,-1.54,-1.5176,0.0,0.0,0.0,0.0,-1.5234,-1.541,-1.541,-1.541,-1.541,-1.5469,-1.5898,-1.6115,-1.6184,0.0,0.0,0.0,0.0,0.0,0.0,0.0,-1.1083,-1.1709,-1.1889,-1.1654,-1.1773,-1.2583,-1.1502,-1.1367,-1.2922,-1.2806,0.0,0.0,0.0,0.0,0.0,0.0,0.0,0.0,0.0,-1.1982,-1.1805,-1.1805,-1.1805,-1.1805,-1.1805,-1.1805,0.0,0.0,0.0,0.0,0.0,0.0,0.0,0.0,0.0,0.0,0.0,0.0,0.0,0.0,0.0,0.0,0.0,0.0,0.0,0.0,0.0,0.0,0.0,0.0,0.0,-1.6082,-1.676,-1.7313,-1.7313,-1.7174,-1.7011,-1.6823,-1.6647,-1.6436,-1.6238,-1.6238,-1.6008,-1.541,-1.532,-1.5186,-1.4744,-1.5062,0.0,0.0,0.0,0.0,-1.6203,-1.779,-1.9287,0.0,0.0,-2.1365,-2.1112,0.0,0.0,-1.9646,-1.9315,-1.8647,-1.7647,-1.6647,-1.585,-1.542,-1.541,-1.541,-1.541,-1.541,-1.541,-1.54,-1.5117,-1.5068,0.0,0.0,0.0,0.0,-1.5352,-1.541,-1.541,-1.541,-1.541,-1.543,-1.5566,-1.5615,-1.5684,0.0,0.0,0.0,0.0,0.0,0.0,0.0,-1.0732,-1.117,-1.1768,-1.14,-1.135,-1.2043,-1.1367,-1.1316,-1.2431,-1.2908,0.0,0.0,0.0,0.0,0.0,0.0,0.0,0.0,-1.2164,-1.2188,-1.2164,-1.2033,-1.2033,-1.2164,-1.191,-1.1805,-1.1805,-1.2059,0.0,0.0,0.0,0.0,0.0,0.0,0.0,-1.5359,0.0,0.0,0.0,0.0,0.0,0.0,0.0,0.0,0.0,0.0,0.0,0.0,0.0,0.0,0.0,0.0,-1.5316,-1.5944,-1.6158,-1.6208,-1.6258,-1.6471,-1.6522,-1.6522,-1.6522,-1.6522,-1.638,-1.6008,-1.5952,-1.582,-1.5421,-1.5688,0.0,0.0,0.0,0.0,-1.7745,0.0,0.0,0.0,-2.2141,-2.2261,0.0,0.0,0.0,-2.0232,-1.9783,-1.9287,-1.8618,-1.7319,-1.6316,-1.5816,-1.5526,-1.541,-1.541,-1.5254,-1.5176,-1.5166,-1.4902,-1.4932,0.0,0.0,0.0,0.0,-1.541,-1.541,-1.541,-1.541,-1.541,-1.543,-1.5596,-1.5762,-1.5967,0.0,0.0,0.0,0.0,0.0,0.0,0.0,-1.0372,-1.0552,-1.0981,-1.1076,-1.0859,-1.022,-1.1451,-1.2026,-1.1316,0.0,0.0,0.0,0.0,0.0,0.0,0.0,0.0,-1.1854,-1.2107,-1.2436,-1.2795,-1.2461,-1.2507,-1.2855,-1.2276,-1.1983,-1.1998,-1.2591,-1.2906,-1.2996,-1.366,-1.4648,-1.5754,-1.5111,-1.5231,0.0,0.0,0.0,0.0,0.0,0.0,0.0,0.0,0.0,0.0,0.0,0.0,0.0,0.0,0.0,0.0,0.0,-1.4011,-1.4991,-1.5542,-1.5693,-1.5844,-1.6396,-1.6522,0.0,-1.6522,-1.6522,-1.6522,-1.6522,-1.6522,-1.6522,-1.6522,-1.6559,0.0,0.0,-1.7124,0.0,0.0,-2.0104,0.0,-2.1387,-2.246,-2.2738,0.0,0.0,0.0,-2.1045,-1.9897,-1.9402,-1.9598,-1.8293,-1.7233,-1.6492,-1.5758,-1.541,-1.541,-1.5019,-1.4834,-1.4834,-1.4795,-1.4805,0.0,0.0,0.0,0.0,-1.541,-1.541,-1.541,-1.541,-1.541,-1.5459,-1.5869,-1.6299,-1.6738,0.0,0.0,0.0,0.0,0.0,0.0,0.0,0.0,0.0,0.0,-1.0808,-1.1265,-1.1705,-1.2077,-1.2449,0.0,0.0,0.0,0.0,0.0,0.0,0.0,0.0,0.0,-1.2416,-1.2665,-1.2764,-1.2652,-1.3113,-1.3383,-1.3494,-1.3642,-1.3721,-1.3713,-1.3603,-1.3855,-1.4363,-1.5064,-1.5514,-1.5784,-1.5634,-1.5664,0.0,0.0,0.0,0.0,-1.5134,-1.5104,0.0,0.0,0.0,0.0,0.0,0.0,0.0,0.0,-1.3493,0.0,-1.3198,0.0,-1.4513,-1.5442,-1.5693,-1.5844,0.0,0.0,0.0,0.0,0.0,0.0,0.0,-1.6522,-1.6522,-1.6522,0.0,-1.7024,-1.6572,0.0,0.0,-2.02,-2.1618,-2.2072,-2.0978,-2.2234,0.0,0.0,0.0,-2.1956,-2.1411,-2.108,-2.0563,-1.9763,-1.9309,-1.825,-1.6492,-1.5758,-1.541,-1.541,-1.5312,-1.5264,-1.5254,-1.4932,-1.4961,0.0,0.0,0.0,-1.541,-1.541,-1.541,-1.541,-1.541,-1.541,-1.542,-1.5527,-1.584,-1.6191,0.0,0.0,0.0,0.0,0.0,0.0,0.0,0.0,0.0,0.0,0.0,-1.0825,-1.1197,-1.1874,0.0,0.0,0.0,0.0,0.0,0.0,0.0,0.0,0.0,-1.2908,-1.261,-1.2852,-1.3195,-1.3551,-1.3779,-1.4068,-1.4419,-1.4335,-1.4225,-1.4078,-1.4212,-1.4618,-1.5274,-1.5319,-1.5529,-1.5769,-1.5469,0.0,0.0,0.0,0.0,0.0,-1.5418,-1.5418,0.0,-1.4907,-1.4907,-1.5013,0.0,0.0,0.0,0.0,-1.3702,-1.3629,-1.4108,-1.4192,-1.4286,-1.5142,-1.5505,-1.5844,-1.6396,0.0,0.0,0.0,0.0,0.0,0.0,0.0,0.0,0.0,-1.6773,0.0,0.0,0.0,-1.9459,-2.0592,-2.1681,-2.2133,0.0,0.0,0.0,0.0,0.0,-2.2071,-2.1518,-2.1255,-2.0715,-1.9823,-1.9388,-1.8455,-1.7034,-1.6255,-1.5748,-1.541,-1.501,-1.4932,-1.5107,-1.4678,-1.4727,0.0,0.0,0.0,-1.541,-1.541,-1.541,-1.541,-1.541,-1.541,-1.541,-1.541,-1.5693,-1.6086,0.0,0.0,0.0,0.0,0.0,0.0,0.0,0.0,0.0,0.0,0.0,0.0,0.0,0.0,0.0,0.0,0.0,0.0,0.0,0.0,0.0,0.0,0.0,-1.2706,-1.2649,-1.2924,-1.3533,-1.4492,-1.4508,-1.4788,-1.5332,-1.5058,-1.4692,-1.4278,-1.4784,-1.5357,-1.5839,-1.5282,-1.5344,-1.5754,-1.5171,0.0,0.0,0.0,0.0,0.0,0.0,0.0,0.0,-1.5359,-1.5195,-1.5104,-1.4406,0.0,0.0,0.0,0.0,0.0,-1.5033,-1.4782,-1.4436,-1.5004,-1.548,-1.5944,-1.6409,0.0,0.0,0.0,0.0,0.0,0.0,-1.6522,0.0,0.0,0.0,0.0,-1.789,-1.8417,-1.9196,-2.0567,-2.123,0.0,-2.1794,0.0,0.0,0.0,0.0,-2.1895,-2.1506,-2.0878,-2.0313,-1.9823,-1.9202,-1.8466,-1.763,-1.689,-1.6136,-1.532,-1.4619,-1.4482,-1.4775,-1.4473,-1.4531,-1.4902,0.0,0.0,-1.541,-1.541,-1.541,-1.541,-1.541,-1.5449,-1.5498,-1.5439,-1.5732,-1.6152,0.0,0.0,0.0,0.0,0.0,0.0,0.0,0.0,0.0,0.0,0.0,0.0,0.0,0.0,0.0,0.0,0.0,0.0,0.0,0.0,0.0,-1.3346,-1.3295,-1.3173,-1.2942,-1.3191,-1.3412,-1.3596,-1.5418,-1.6055,-1.5579,-1.7082,-1.7261,-1.6317,-1.6138,-1.6126,-1.6219,-1.6111,-1.5976,-1.5784,-1.5694,0.0,0.0,0.0,0.0,0.0,0.0,0.0,0.0,-1.5712,-1.5697,-1.5668,-1.5551,0.0,0.0,0.0,0.0,0.0,-1.4179,-1.4708,-1.5427,-1.609,-1.6333,-1.6409,-1.6497,0.0,0.0,0.0,0.0,0.0,0.0,-1.6522,-1.6522,0.0,0.0,-1.8631,0.0,0.0,-2.0903,-2.0743,0.0,-2.1481,0.0,0.0,0.0,0.0,0.0,-2.1091,-2.1468,-2.0501,-1.9899,-1.9798,-1.9695,-1.9047,-1.7855,-1.6939,-1.605,-1.5141,-1.5157,-1.5059,-1.4795,-1.5088,-1.5254,-1.5322,0.0,-1.541,-1.541,-1.541,-1.541,-1.541,-1.541,-1.5635,-1.5918,-1.5547,-1.5928,-1.6572,0.0,0.0,0.0,0.0,0.0,0.0,0.0,0.0,0.0,0.0,0.0,0.0,0.0,0.0,0.0,0.0,0.0,0.0,0.0,0.0,0.0,-1.3396,-1.3768,-1.3935,-1.381,-1.3935,-1.4377,-1.5191,-1.6208,-1.6648,-1.652,-1.7224,-1.7274,-1.6789,-1.6633,-1.6474,-1.6313,-1.6474,-1.6382,-1.6067,0.0,0.0,0.0,0.0,0.0,0.0,0.0,0.0,0.0,0.0,-1.5799,-1.577,-1.5507,0.0,0.0,0.0,0.0,0.0,-1.4999,-1.5634,-1.6336,-1.6705,-1.6883,-1.6909,-1.6909,-1.6909,0.0,0.0,0.0,0.0,0.0,0.0,-1.6722,-1.7325,0.0,-1.9095,-2.0388,-2.0577,-2.0602,0.0,0.0,0.0,0.0,0.0,0.0,0.0,0.0,0.0,-2.1029,-2.025,-1.9798,-1.9798,-1.9522,-1.8958,-1.8056,-1.7243,-1.6328,-1.5392,-1.4914,-1.4863,-1.5117,-1.4844,-1.4971,-1.54,0.0,-1.5205,-1.541,-1.541,-1.541,-1.541,-1.541,-1.5537,-1.5684,-1.5488,-1.5664,-1.5986,0.0,0.0,0.0,0.0,0.0,0.0,0.0,0.0,0.0,0.0,0.0,0.0,0.0,0.0,0.0,0.0,0.0,0.0,0.0,0.0,-1.3396,-1.3396,-1.4107,-1.4494,-1.4494,-1.4663,-1.5308,-1.6445,-1.6631,-1.6941,-1.7415,-1.7076,-1.6968,-1.7043,-1.6952,-1.6773,-1.6554,-1.6815,-1.6722,-1.6409,0.0,0.0,0.0,0.0,0.0,0.0,0.0,0.0,0.0,0.0,0.0,0.0,0.0,0.0,0.0,-1.5255,-1.5255,-1.5341,-1.5679,-1.6317,-1.6915,-1.6913,0.0,-1.7353,-1.7463,-1.7418,0.0,0.0,0.0,0.0,0.0,-1.6635,0.0,-1.8216,-1.897,-1.9648,-2.03,-2.0388,-2.0501,-2.0869,0.0,0.0,0.0,0.0,0.0,0.0,0.0,0.0,-2.0706,-1.9999,-1.9673,-1.9798,-1.9171,-1.8631,-1.8204,-1.7339,-1.6508,-1.5667,-1.4913,-1.473,-1.5157,-1.4701,-1.4749,-1.5254,-1.5029,-1.5117,-1.541,-1.541,-1.541,-1.541,-1.541,-1.541,-1.542,-1.5527,-1.5498,-1.541,0.0,0.0,0.0,0.0,0.0,0.0,0.0,0.0,0.0,0.0,0.0,0.0,0.0,0.0,0.0,0.0,0.0,0.0,0.0,0.0,-1.3396,-1.3396,-1.4107,-1.4494,-1.4494,-1.5172,-1.5561,-1.568,-1.636,-1.7067,-1.7766,-1.7415,-1.7432,-1.7704,-1.7392,-1.7248,-1.7224,-1.7231,-1.7076,-1.6738,-1.6421,0.0,0.0,0.0,0.0,0.0,0.0,0.0,0.0,0.0,0.0,0.0,0.0,0.0,-1.5741,0.0,-1.5741,-1.5654,-1.5283,-1.602,-1.6815,-1.6458,-1.6831,-1.7422,-1.7947,-1.7705,0.0,-1.7306,0.0,0.0,0.0,-1.6961,-1.7689,-1.8794,-1.9861,-2.0916,-2.1983,0.0,-2.1958,0.0,0.0,0.0,0.0,0.0,0.0,0.0,0.0,0.0,-2.0693,-1.966,-1.9309,-1.9786,-1.8807,-1.8242,-1.8204,-1.7024,-1.6148,-1.5631,-1.5789,-1.5351,-1.4518,-1.5225,-1.531,-1.4844,-1.5215,-1.5381,-1.541,-1.541,-1.541,-1.541,-1.541,-1.541,-1.5459,-1.5869,-1.5762,-1.541,0.0,0.0,0.0,0.0,0.0,0.0,0.0,0.0,0.0,0.0,0.0,0.0,0.0,0.0,0.0,0.0,0.0,0.0,0.0,-1.3617,-1.3494,-1.3396,-1.4107,-1.4697,-1.5172,-1.546,-1.5595,-1.5595,-1.6343,-1.7067,-1.7811,-1.7681,-1.7681,-1.7789,-1.7658,-1.7502,-1.732,-1.7526,-1.7432,-1.7076,-1.6763,-1.6607,0.0,0.0,0.0,0.0,0.0,0.0,0.0,0.0,-1.5799,0.0,0.0,0.0,0.0,0.0,0.0,-1.577,-1.558,-1.6465,-1.7269,-1.6695,-1.7441,0.0,0.0,-1.8777,-1.8235,-1.7975,-1.8713,0.0,0.0,0.0,-1.8141,-1.8907,-1.9949,-2.0983,-2.1694,-2.1794,0.0,0.0,0.0,0.0,0.0,0.0,0.0,0.0,0.0,0.0,-1.9145,-1.907,-1.8957,-1.8807,-1.8091,-1.7689,-1.7689,-1.6876,-1.6348,-1.6151,-1.5762,-1.5516,-1.5376,-1.5046,-1.4945,-1.4978,-1.4715,-1.4775,-1.5039,-1.5303,-1.541,-1.541,-1.541,-1.541,-1.543,-1.5596,-1.5557,-1.541,0.0,0.0,0.0,0.0,0.0,0.0,0.0,0.0,0.0,0.0,0.0,0.0,0.0,0.0,0.0,0.0,0.0,0.0,-1.3997,-1.3813,-1.3634,-1.3462,-1.4195,-1.4687,-1.4885,-1.5122,-1.5477,-1.5933,-1.6462,-1.697,-1.7456,-1.7693,-1.7811,-1.7811,-1.7811,-1.7681,-1.7479,-1.7704,-1.7658,-1.7415,-1.7076,-1.6968,0.0,0.0,0.0,0.0,0.0,0.0,0.0,0.0,0.0,0.0,0.0,0.0,0.0,0.0,0.0,-1.5799,-1.5799,-1.6727,-1.7578,-1.713,0.0,0.0,-1.9934,-1.9685,-1.9151,-1.8863,-1.9335,-1.9514,-1.8708,0.0,0.0,0.0,-1.9949,-2.0907,-2.1405,0.0,0.0,0.0,0.0,0.0,0.0,0.0,0.0,0.0,0.0,0.0,0.0,-1.8392,-1.8417,-1.8216,-1.7488,-1.72,-1.7388,-1.681,-1.6522,-1.6479,-1.5968,-1.5751,-1.583,-1.5262,-1.5163,-1.5392,-1.4856,-1.4819,-1.5129,-1.5349,-1.541,-1.541,-1.541,-1.541,-1.541,-1.541,-1.541,-1.541,0.0,0.0,0.0,0.0,0.0,0.0,0.0,0.0,0.0,0.0,0.0,0.0,0.0,0.0,0.0,0.0,0.0,0.0,-1.4188,-1.4011,-1.3795,-1.3617,-1.4362,-1.4349,-1.343,-1.4141,-1.5223,-1.6682,-1.6699,-1.6699,-1.6716,-1.7456,-1.7811,-1.7811,-1.7811,-1.7811,-1.7811,-1.7811,-1.7811,-1.7766,-1.7439,-1.7296,-1.7224,0.0,0.0,0.0,0.0,0.0,0.0,0.0,0.0,0.0,0.0,0.0,0.0,0.0,-1.5799,-1.5799,-1.5814,-1.6727,-1.7682,0.0,0.0,0.0,-2.0393,-2.0278,-1.9893,-1.9921,-1.9482,-1.9127,-1.9141,-1.9068,0.0,-1.903,-1.9936,-2.0907,-2.1393,0.0,0.0,0.0,0.0,0.0,0.0,0.0,0.0,0.0,0.0,0.0,0.0,-1.7677,-1.7626,-1.8179,-1.7099,-1.6798,-1.7363,-1.681,-1.6522,-1.6522,-1.6522,-1.6194,-1.5599,-1.6066,-1.6263,-1.6199,-1.585,-1.5781,-1.5857,-1.5558,-1.541,-1.541,-1.541,-1.541,-1.541,-1.541,-1.541,-1.541,0.0,0.0,0.0,0.0,0.0,0.0,0.0,0.0,0.0,0.0,0.0,0.0,0.0,0.0,0.0,0.0,0.0,0.0,-1.4201,-1.4011,-1.3795,-1.3617,-1.3732,-1.3939,-1.4174,-1.4902,-1.524,-1.5155,-1.5663,-1.6208,-1.6716,-1.7456,-1.7811,-1.7811,-1.7811,-1.7811,-1.7811,-1.7811,-1.7811,-1.7766,-1.7439,-1.7296,-1.7231,0.0,0.0,0.0,0.0,0.0,0.0,0.0,0.0,0.0,0.0,0.0,0.0,-1.5799,-1.5799,-1.5903,-1.6338,-1.6712,0.0,-1.7578,0.0,0.0,0.0,-1.9169,0.0,0.0,-2.0148,-1.9627,-2.0855,0.0,0.0,-1.9769,-2.0289,-2.0669,0.0,0.0,0.0,0.0,0.0,0.0,0.0,0.0,0.0,0.0,0.0,0.0,0.0,-1.725,-1.7262,-1.7024,-1.6697,-1.6609,-1.6773,-1.6609,-1.6522,-1.6522,-1.6522,-1.6423,-1.6194,-1.5945,-1.5784,-1.5765,-1.5503,-1.5214,-1.4871,-1.4924,-1.5146,-1.541,-1.541,-1.541,-1.541,-1.541,-1.541,-1.541,0.0,0.0,0.0,0.0,0.0,0.0,0.0,0.0,0.0,0.0,0.0,0.0,0.0,0.0,0.0,0.0,0.0,0.0,0.0,-1.4219,-1.4011,-1.3721,-1.3711,-1.4047,-1.4727,-1.5103,-1.522,-1.5102,-1.5722,-1.6407,-1.7134,-1.7591,-1.7811,-1.7811,-1.7811,-1.7811,-1.7811,-1.7811,-1.7811,-1.7789,-1.7572,-1.7502,-1.7455,0.0,0.0,0.0,0.0,0.0,0.0,0.0,0.0,0.0,0.0,0.0,0.0,-1.6011,-1.5898,-1.5888,-1.6248,-1.6697,0.0,-1.7593,-1.8403,-1.9031,-1.8762,0.0,0.0,0.0,-2.0885,-2.0261,-2.1671,-2.1326,0.0,-2.0062,-2.0435,-2.0505,0.0,0.0,0.0,0.0,0.0,0.0,0.0,0.0,0.0,0.0,0.0,0.0,0.0,-1.6848,-1.6886,-1.6522,-1.6522,-1.6522,-1.6522,-1.6522,-1.6522,-1.6522,-1.6522,-1.6522,-1.6479,-1.6139,-1.6195,-1.6608,-1.5998,-1.5333,-1.4685,-1.4834,-1.4998,-1.5176,-1.5352,-1.541,-1.541,-1.541,-1.541,-1.541,0.0,0.0,0.0,0.0,0.0,0.0,0.0,0.0,0.0,0.0,-1.1544,0.0,0.0,0.0,0.0,0.0,0.0,0.0,0.0,0.0,-1.4307,-1.3941,-1.4078,-1.4468,-1.5089,-1.4997,-1.5315,-1.6097,-1.6502,-1.7033,-1.771,-1.7777,-1.7811,-1.7811,-1.7811,-1.7811,-1.7811,-1.7811,-1.7811,-1.7811,-1.7811,-1.7811,-1.7766,-1.7462,0.0,0.0,0.0,0.0,0.0,0.0,0.0,0.0,0.0,0.0,-1.634,-1.6301,-1.608,-1.5842,-1.5873,-1.6727,0.0,-1.7757,-1.8747,0.0,-1.8927,-1.9735,-2.0961,-2.2199,0.0,-2.1,-2.1741,-2.1267,-2.0598,-2.0074,-2.0429,0.0,0.0,0.0,0.0,0.0,0.0,0.0,0.0,0.0,0.0,0.0,0.0,0.0,0.0,-1.6522,-1.6522,-1.6522,-1.6522,-1.6522,-1.6522,-1.6522,-1.6522,-1.6522,-1.6522,-1.6547,-1.6597,-1.6547,-1.7074,-1.7969,-1.6854,-1.5882,-1.5174,-1.507,-1.4971,-1.4877,-1.5146,-1.5293,-1.5303,-1.5342,-1.5352,-1.5361,0.0,0.0,0.0,0.0,0.0,0.0,0.0,0.0,0.0,0.0,0.0,0.0,0.0,0.0,0.0,0.0,0.0,0.0,0.0,0.0,-1.4232,-1.4136,-1.4024,-1.4325,-1.5089,-1.5669,-1.6273,-1.686,-1.6758,-1.6783,-1.6953,-1.754,-1.7811,-1.7811,-1.7811,-1.7811,-1.7811,-1.7811,-1.7811,-1.7811,-1.7811,-1.7811,-1.7789,-1.7726,-1.7681,0.0,0.0,0.0,0.0,0.0,0.0,0.0,-1.6892,-1.6738,-1.6633,-1.6382,-1.6246,-1.6258,0.0,-1.6712,0.0,0.0,-1.9091,-1.9645,-1.951,-1.9705,-1.9989,-2.0273,-2.0946,-2.1535,-2.1724,-2.1609,-2.1274,-2.064,0.0,0.0,0.0,0.0,0.0,0.0,0.0,0.0,0.0,0.0,0.0,0.0,0.0,0.0,-1.6522,-1.6522,-1.6522,-1.6522,-1.6522,-1.6522,-1.6522,-1.6522,-1.6522,0.0,-1.6522,-1.676,-1.7187,-1.6722,-1.6647,-1.6817,-1.6082,-1.588,-1.5955,-1.4956,-1.4738,-1.4973,-1.4538,-1.435,-1.4389,-1.4795,-1.4922,-1.4971,0.0,0.0,0.0,0.0,0.0,0.0,0.0,0.0,0.0,0.0,0.0,0.0,0.0,0.0,0.0,0.0,0.0,0.0,0.0,0.0,-1.4332,-1.4332,-1.4522,-1.5038,-1.5948,-1.6619,-1.7309,-1.802,-1.7602,-1.7352,-1.7236,-1.7625,-1.7811,-1.7811,-1.7811,-1.7811,-1.7811,-1.7811,-1.7811,-1.7811,-1.7811,-1.7811,-1.7811,-1.7811,-1.7811,-1.7811,-1.7811,0.0,0.0,0.0,0.0,0.0,0.0,0.0,-1.7455,-1.6921,-1.6908,0.0,0.0,0.0,0.0,-1.8407,0.0,-1.969,-1.969,-1.969,-1.969,-1.969,-2.0243,-2.0932,-2.1575,-2.144,-2.1099,-2.0778,0.0,0.0,0.0,0.0,0.0,0.0,0.0,0.0,0.0,0.0,0.0,0.0,0.0,-1.6522,-1.6522,-1.6522,-1.6522,-1.6522,-1.6522,-1.6522,-1.6522,-1.6522,-1.6522,-1.6522,-1.6522,-1.6672,-1.6974,-1.6936,-1.6773,-1.6466,-1.6194,-1.5989,-1.5948,-1.5479,-1.5094,-1.4747,-1.4623,-1.4526,-1.4473,-1.4697,-1.4785,-1.4814,0.0,0.0,0.0,0.0,0.0,0.0,0.0,0.0,0.0,0.0,0.0,0.0,0.0,0.0,0.0,0.0,0.0,0.0,0.0,0.0,0.0,-1.4701,-1.5181,-1.5964,-1.7092,-1.7536,-1.8169,-1.9002,-1.8547,-1.8208,-1.7927,-1.7839,-1.7833,-1.7878,-1.7833,-1.7811,-1.7811,-1.7811,-1.7811,-1.7811,-1.7811,-1.7811,-1.7805,-1.7946,-1.7997,-1.7997,-1.7997,-1.7997,-1.798,-1.7845,0.0,0.0,0.0,0.0,-1.8369,-1.7683,-1.7631,0.0,0.0,0.0,-1.7514,-1.8374,-1.9051,0.0,-1.951,-1.96,-1.969,-1.969,-1.969,-2.0034,-2.1141,-2.0902,-2.0543,0.0,0.0,0.0,0.0,0.0,0.0,0.0,0.0,0.0,0.0,0.0,0.0,0.0,0.0,-1.6595,-1.6522,-1.6522,-1.6522,-1.6522,-1.6522,-1.6522,-1.6522,-1.6522,-1.6522,-1.6522,-1.6522,-1.6522,-1.6534,-1.7011,-1.6974,-1.6522,-1.6522,-1.6238,-1.5756,-1.6041,-1.5552,-1.4612,-1.4826,-1.4756,-1.4617,-1.4586,-1.457,-1.458,0.0,0.0,0.0,0.0,0.0,0.0,0.0,0.0,0.0,0.0,0.0,0.0,0.0,0.0,0.0,0.0,0.0,0.0,0.0,0.0,0.0,-1.5509,-1.5625,-1.6395,-1.7913,-1.8012,-1.8364,-1.9002,-1.8931,-1.8752,-1.8489,-1.8014,-1.7927,-1.8125,-1.7905,-1.7811,-1.7811,-1.7811,-1.7811,-1.7811,-1.7811,-1.7811,-1.7879,-1.8504,-1.8741,-1.8741,-1.8741,-1.8741,-1.8657,-1.8031,-1.8217,0.0,0.0,0.0,-1.8757,-1.8369,-1.7831,0.0,0.0,0.0,-1.7465,0.0,-1.8546,-1.8837,0.0,0.0,-1.969,0.0,-1.969,-1.9735,-1.9914,-1.9884,-1.9824,0.0,0.0,0.0,0.0,0.0,0.0,0.0,0.0,0.0,0.0,0.0,0.0,0.0,-1.7229,-1.6993,-1.6522,-1.6522,-1.6522,-1.6522,-1.6522,-1.6522,-1.6522,-1.6522,-1.6522,-1.6522,-1.6522,-1.6522,-1.6522,-1.6597,-1.6584,-1.6522,-1.6522,-1.6466,-1.6337,-1.5893,-1.5593,-1.5335,-1.4352,-1.3951,-1.391,-1.3729,-1.3672,-1.373,0.0,0.0,0.0,0.0,0.0,0.0,0.0,0.0,0.0,0.0,0.0,0.0,0.0,0.0,0.0,0.0,0.0,0.0,0.0,0.0,0.0,-1.5655,-1.6133,-1.6922,-1.8078,-1.8537,-1.8895,-1.9166,-1.9052,-1.9001,-1.8999,-1.8933,-1.8669,-1.8208,-1.8229,-1.8082,-1.7811,-1.7971,-1.8166,-1.842,-1.842,-1.8674,-1.9056,-1.9401,-1.9536,-1.9536,-1.9536,-1.9536,-1.9461,-1.914,-1.9241,-1.9536,-1.9536,0.0,0.0,0.0,-1.8726,0.0,-1.7404,-1.7311,-1.76,0.0,-1.836,-1.8925,-1.8736,0.0,-1.969,-1.969,-1.969,-1.969,-1.969,-1.969,-1.969,0.0,0.0,0.0,0.0,0.0,0.0,0.0,0.0,0.0,0.0,0.0,0.0,0.0,-1.7188,-1.6752,-1.6522,-1.6522,-1.6522,-1.6522,-1.6522,-1.6522,-1.6522,-1.6522,-1.6522,-1.6522,-1.6522,-1.6522,-1.6522,-1.6522,-1.6522,-1.6522,-1.6522,-1.6522,-1.6466,-1.6194,-1.5908,-1.5487,-1.4641,-1.4258,-1.408,-1.3671,-1.3506,-1.3535,0.0,0.0,0.0,0.0,0.0,0.0,0.0,0.0,0.0,0.0,0.0,0.0,0.0,0.0,0.0,0.0,0.0,0.0,0.0,0.0,0.0,-1.6261,-1.6872,-1.7568,-1.839,-1.8977,-1.9305,-1.9305,-1.915,-1.915,-1.9308,-1.9777,-1.9514,-1.8728,-1.9061,-1.8843,-1.8222,-1.8418,-1.8663,-1.8894,-1.8894,-1.935,-2.0018,-2.0221,-2.0289,-2.0289,-2.0289,-2.0289,-2.0255,-2.0069,-2.0137,-2.0289,-2.0289,-2.072,0.0,0.0,0.0,0.0,0.0,0.0,-1.761,-1.7365,-1.8077,-1.8826,0.0,0.0,-1.9607,0.0,-1.9782,-1.969,-1.969,-1.969,-1.969,0.0,0.0,0.0,0.0,0.0,0.0,0.0,0.0,0.0,0.0,0.0,0.0,0.0,-1.7353,-1.6795,-1.6522,-1.6522,-1.6522,-1.6522,-1.6522,-1.6522,-1.6522,-1.6522,-1.6522,-1.6522,-1.6522,-1.6522,-1.6522,-1.6522,-1.6522,-1.6522,-1.6522,-1.6522,-1.6522,-1.6522,-1.6238,-1.5776,-1.5152,-1.4724,-1.4418,-1.382,-1.3491,-1.335,0.0,0.0,0.0,0.0,0.0,0.0,0.0,0.0,0.0,0.0,0.0,0.0,0.0,-1.4925,-1.485,-1.4707,-1.456,-1.4829,-1.5582,-1.634,-1.7128,-1.795,-1.8023,0.0,-1.9216,-1.9286,-1.9305,-1.9305,-1.9289,-1.9289,-1.9308,-2.0101,-2.0332,-2.0119,-2.0646,-2.0294,-1.933,-1.933,-1.9171,-1.8894,-1.8894,-1.935,-2.0069,-2.0839,-2.1153,-2.1153,-2.1153,-2.1153,-2.1008,-2.0255,-2.0517,-2.1153,-2.1153,-2.117,-2.1187,0.0,0.0,0.0,0.0,-1.7542,0.0,-1.7297,-1.7591,0.0,0.0,0.0,0.0,-2.0122,-1.9965,-1.969,-1.969,-1.969,-1.969,0.0,0.0,0.0,0.0,0.0,0.0,0.0,0.0,0.0,0.0,0.0,0.0,0.0,-1.8066,-1.7585,-1.6552,-1.6522,-1.6522,-1.6522,-1.6522,-1.6522,-1.6522,-1.6522,-1.6522,-1.6522,-1.6522,-1.6522,-1.6522,-1.6522,-1.6522,-1.6522,-1.6522,-1.6522,-1.6522,-1.6522,-1.6466,-1.638,-1.5776,-1.5197,-1.4605,-1.3999,-1.3412,-1.291,0.0,0.0,0.0,0.0,0.0,0.0,0.0,0.0,0.0,0.0,0.0,0.0,0.0,-1.6203,-1.6412,-1.6313,-1.6258,-1.6392,-1.6763,-1.7063,-1.7577,-1.8397,-1.8335,-1.8679,-1.9481,-1.9365,-1.9305,-1.9305,-1.9305,-1.9305,-1.9323,-2.0134,-2.0763,-2.1223,-2.0843,-2.0297,-1.9656,-1.9834,-2.002,-2.0236,-2.0748,-2.1389,-2.2104,-2.2359,-2.2489,0.0,0.0,0.0,-2.2117,-2.1825,-2.1805,-2.1904,-2.1904,-2.1904,-2.1718,-2.072,-1.9705,0.0,0.0,0.0,0.0,-1.7368,-1.8058,-1.8843,-1.8888,-1.9653,-2.0333,-2.0302,-2.0193,-2.0,-1.9747,-1.969,-1.969,0.0,0.0,0.0,0.0,0.0,0.0,0.0,0.0,0.0,0.0,0.0,0.0,0.0,0.0,-1.7787,-1.7034,-1.6993,-1.6879,-1.6522,-1.6522,-1.6522,-1.6522,-1.6522,-1.6522,-1.6522,-1.6522,-1.6522,-1.6522,-1.6522,-1.6522,-1.6522,-1.6522,-1.6522,-1.6522,-1.6522,-1.6522,-1.6423,-1.582,-1.5454,-1.5141,-1.419,-1.3637,-1.342,0.0,0.0,0.0,0.0,0.0,0.0,0.0,0.0,0.0,0.0,0.0,0.0,0.0,0.0,-1.7349,-1.7273,-1.7513,-1.7708,-1.7793,-1.8058,-1.8445,-1.8971,-1.8858,-1.9181,-1.9992,-1.9542,-1.9418,-1.9693,-1.9418,-1.9305,-1.9308,-2.0427,-2.1088,-2.1345,-2.107,-2.0716,-2.0344,-2.0515,-2.0727,-2.098,-2.1777,-2.247,-2.3045,-2.3165,0.0,0.0,0.0,0.0,-2.2873,-2.2873,-2.2678,-2.2409,-2.2409,-2.236,-2.2057,-2.0788,0.0,0.0,-1.8735,0.0,0.0,0.0,0.0,-1.9303,-1.9607,0.0,-2.0812,-2.075,-2.0649,-2.0431,-1.9965,-1.9909,-1.9874,0.0,0.0,0.0,0.0,0.0,0.0,0.0,0.0,0.0,0.0,0.0,0.0,0.0,0.0,0.0,-1.7353,-1.7312,-1.7034,-1.6522,-1.6522,-1.6522,-1.6522,-1.6522,-1.6522,-1.6522,-1.6522,-1.6522,-1.6522,-1.6522,-1.6522,-1.6522,-1.6522,-1.6522,-1.6522,-1.6522,-1.6522,-1.6479,-1.6051,-1.5885,-1.5735,-1.4789,-1.4276,-1.3989,0.0,0.0,0.0,0.0,0.0,0.0,0.0,0.0,0.0,-1.6542,0.0,0.0,0.0,0.0,0.0,-1.7492,-1.8191,-1.8653,-1.8653,-1.9379,-1.9802,-1.9802,-1.9701,-2.0019,-2.0788,-1.9871,-1.9745,-2.0519,-1.9711,-1.9341,-1.9363,-2.1013,-2.1345,-2.0613,-2.14,-2.1643,-2.1459,-2.1423,-2.1231,-2.1036,-2.1839,-2.2394,-2.2772,0.0,0.0,0.0,-2.3117,-2.3212,0.0,-2.3212,0.0,0.0,0.0,0.0,0.0,0.0,0.0,0.0,0.0,0.0,0.0,0.0,0.0,0.0,-2.0865,0.0,-2.0755,-2.148,-2.1275,-2.0862,-2.0382,-2.0314,-2.0158,0.0,0.0,0.0,0.0,0.0,0.0,0.0,0.0,0.0,0.0,0.0,0.0,0.0,-1.893,-1.8458,-1.7394,-1.7312,-1.7076,-1.6552,-1.6522,-1.6522,-1.6522,-1.6522,-1.6522,-1.6522,-1.6522,-1.6522,-1.6522,-1.6522,-1.6522,-1.6522,-1.6522,-1.6522,-1.6522,-1.6522,-1.6522,-1.6522,-1.6522,-1.647,-1.6335,-1.5823,-1.5175,-1.4524,0.0,0.0,0.0,0.0,0.0,0.0,0.0,0.0,-1.7369,0.0,0.0,0.0,-1.8631,-1.9063,-1.9316,-1.9269,-1.9468,-1.9678,-1.9818,-2.0047,-2.0162,-2.0162,-2.0591,-2.0933,-2.1161,-2.1218,-2.1079,-2.0726,-2.0341,-2.017,-2.0189,-2.0647,-2.1382,-2.2263,-2.129,-2.1494,-2.252,-2.1953,-2.1972,-2.248,-2.33,-2.3676,0.0,0.0,0.0,0.0,0.0,-2.3774,-2.3566,0.0,-2.3165,-2.2686,0.0,0.0,-2.2175,0.0,0.0,0.0,-2.0204,0.0,0.0,0.0,0.0,0.0,0.0,0.0,0.0,-2.1639,-2.1521,-2.1197,-2.0449,-2.0314,-2.0158,0.0,0.0,0.0,0.0,0.0,0.0,0.0,0.0,0.0,0.0,0.0,0.0,0.0,-1.9479,-1.9169,-1.8496,-1.7706,-1.7229,-1.7076,-1.671,-1.6522,-1.6522,-1.6522,-1.6522,-1.6522,-1.6522,-1.6522,-1.6522,-1.6522,-1.6522,-1.6522,-1.6522,-1.6522,-1.6522,-1.6522,-1.6522,-1.6522,-1.6522,-1.6467,-1.6404,-1.5824,-1.5222,-1.4609,0.0,0.0,0.0,0.0,0.0,0.0,-1.6946,-1.7722,-1.8241,0.0,0.0,0.0,-1.9535,-1.989,-2.0124,-2.0124,-2.0124,-2.0169,-2.0285,-2.0619,-2.0812,-2.0812,-2.1474,-2.1996,-2.2348,-2.2199,-2.2023,0.0,0.0,0.0,0.0,0.0,0.0,0.0,0.0,-2.208,-2.2978,-2.2501,0.0,0.0,-2.3878,0.0,0.0,-2.4151,-2.4113,0.0,0.0,0.0,-2.3917,-2.3917,-2.3566,0.0,0.0,0.0,0.0,0.0,0.0,0.0,0.0,0.0,0.0,0.0,0.0,0.0,-2.1583,-2.1989,-2.2209,0.0,-2.1899,-2.1675,-2.0959,-2.083,-2.0649,0.0,0.0,0.0,0.0,0.0,0.0,0.0,0.0,0.0,0.0,-1.969,-1.969,-1.969,-1.969,-1.9369,-1.8612,-1.7747,-1.7188,-1.6951,-1.668,-1.6522,-1.6522,-1.6522,-1.6522,-1.6522,-1.6522,-1.6522,-1.6522,-1.6522,-1.6522,-1.6522,-1.6522,-1.6522,-1.6522,-1.6522,-1.6522,-1.6522,-1.6522,-1.666,-1.6804,-1.6193,-1.5742,-1.5291,0.0,0.0,0.0,-1.6484,-1.6715,-1.7023,-1.7734,-1.8588,-1.9146,0.0,-1.9812,-2.0312,-2.0312,-2.0389,-2.0427,-2.0427,-2.0523,-2.0581,-2.0581,-2.1254,-2.1639,-2.1639,-2.2374,-2.3097,-2.382,-2.3025,-2.2852,0.0,0.0,0.0,0.0,0.0,0.0,0.0,0.0,0.0,0.0,0.0,0.0,-2.3199,-2.3914,-2.4016,0.0,0.0,-2.4016,-2.3795,-2.4094,-2.419,-2.419,-2.4151,-2.3955,0.0,0.0,0.0,0.0,0.0,-2.2349,0.0,0.0,0.0,0.0,0.0,0.0,0.0,-2.2158,-2.231,-2.231,-2.231,-2.231,-2.2163,-2.1688,-2.1582,-2.1321,0.0,0.0,0.0,0.0,0.0,0.0,0.0,0.0,0.0,-1.969,-1.969,-1.969,-1.969,-1.969,-1.9281,-1.8341,-1.7706,-1.7146,-1.668,-1.6552,-1.6522,-1.6522,-1.6522,-1.6522,-1.6522,-1.6522,-1.6522,-1.6522,-1.6522,-1.6522,-1.6522,-1.6522,-1.6522,-1.6522,-1.6522,-1.6522,-1.6522,-1.6522,-1.6835,-1.7225,-1.671,-1.6402,-1.6172,0.0,0.0,0.0,-1.7311,-1.8049,-1.8568,-1.8727,-1.9485,-2.0042,-2.0042,-2.0196,-2.0312,-2.0312,-2.0889,-2.1273,-2.1273,-2.1908,-2.2312,-2.2312,-2.2466,-2.2543,-2.2543,-2.3352,-2.388,-2.4034,-2.432,-2.4219,-2.37,0.0,0.0,0.0,0.0,0.0,0.0,0.0,0.0,0.0,0.0,0.0,-2.3988,-2.4135,-2.417,-2.4113,-2.417,-2.417,-2.4113,-2.417,-2.419,-2.417,-2.3896,-2.3735,-2.3628,0.0,0.0,0.0,-2.2712,0.0,0.0,0.0,0.0,0.0,0.0,0.0,0.0,-2.2276,-2.231,-2.231,0.0,-2.231,-2.2163,-2.1688,-2.1582,-2.143,0.0,0.0,0.0,0.0,0.0,0.0,0.0,0.0,0.0,-1.969,-1.969,-1.969,-1.969,-1.969,-1.9603,-1.9406,-1.8458,-1.7907,-1.7787,-1.6951,-1.6522,-1.6522,-1.6522,-1.6522,-1.6522,-1.6522,-1.6522,-1.6522,-1.6522,-1.6522,-1.6522,-1.6522,-1.6522,-1.6522,-1.6522,-1.6522,-1.6522,-1.6522,-1.6584,-1.6672,-1.6559,-1.6169,-1.5718,0.0,0.0,-1.6899,-1.8133,-1.8703,-1.9146,-1.9573,-2.0015,-2.0446,-2.085,-2.1273,-2.1543,-2.1543,-2.1908,-2.2158,-2.2158,-2.2543,-2.2793,-2.2793,-2.3206,-2.3456,-2.3456,-2.4255,-2.4697,-2.4697,-2.4992,-2.4889,-2.4393,0.0,0.0,0.0,0.0,0.0,0.0,0.0,0.0,0.0,0.0,-2.3823,-2.419,-2.419,0.0,-2.419,-2.419,-2.419,-2.419,-2.419,-2.419,-2.417,-2.3996,-2.3937,0.0,-2.3566,-2.3437,-2.3392,0.0,-2.2822,-2.2712,0.0,0.0,0.0,-2.2463,0.0,0.0,0.0,-2.231,-2.231,-2.231,-2.231,-2.2237,-2.2003,0.0,-2.1247,-2.0831,0.0,0.0,0.0,0.0,0.0,0.0,0.0,0.0,-1.9196,-1.9196,-1.9331,-1.966,-1.969,-1.9566,-1.9332,-1.8779,-1.8263,-1.7706,-1.7188,-1.6752,-1.6522,-1.6522,-1.6522,-1.6522,-1.6522,-1.6522,-1.6522,-1.6522,-1.6522,-1.6522,-1.6522,-1.6522,-1.6522,-1.6522,-1.6522,-1.6522,-1.6522,-1.6522,-1.6522,-1.6522,-1.6293,-1.6008,0.0,0.0,0.0,-1.8988,-1.9256,-1.9492,-2.0196,-2.0312,-2.06,-2.1389,-2.2254,-2.2793,-2.2793,-2.2947,-2.3043,-2.3043,-2.3197,-2.3274,-2.3274,-2.3928,-2.4341,-2.4341,-2.4947,-2.5303,-2.5303,-2.5303,-2.5214,-2.5065,0.0,0.0,0.0,0.0,0.0,0.0,0.0,0.0,0.0,0.0,0.0,-2.419,0.0,-2.419,-2.419,-2.419,-2.419,-2.419,-2.419,-2.419,-2.419,-2.419,-2.419,-2.4151,-2.3876,-2.3795,0.0,0.0,0.0,0.0,0.0,0.0,0.0,0.0,0.0,-2.236,0.0,0.0,0.0,0.0,0.0,0.0,0.0,0.0,0.0,0.0,0.0,0.0,0.0,0.0,0.0,0.0,0.0,0.0,0.0,-1.8523,-1.8837,-1.963,-1.957,-1.9381,-1.908,-1.8968,-1.8496,-1.7626,-1.7435,-1.7076,-1.668,-1.6552,-1.6522,-1.6522,-1.6522,-1.6522,-1.6522,-1.6522,-1.6522,-1.6522,-1.6522,-1.6522,-1.6522,-1.6522,-1.6522,-1.6522,-1.6522,-1.6522,-1.6522,-1.6522,-1.6522,-1.6423,-1.8925,-1.8843,0.0,0.0,-2.0159,-2.0196,-2.0292,-2.0312,-2.06,-2.1389,-2.2254,-2.2793,-2.2793,-2.3494,-2.3956,-2.3956,-2.4601,-2.5014,-2.5014,-2.5111,-2.5149,-2.5149,-2.5245,-2.5303,-2.5303,-2.5303,-2.5303,-2.5264,-2.5088,0.0,0.0,0.0,0.0,0.0,-2.4495,0.0,0.0,0.0,-2.419,0.0,-2.419,-2.419,0.0,-2.419,-2.419,-2.419,-2.419,-2.419,-2.419,0.0,-2.419,-2.419,0.0,-2.4151,-2.4074,-2.3735,0.0,0.0,0.0,0.0,0.0,0.0,-2.2669,0.0,0.0,0.0,-2.231,-2.231,0.0,0.0,0.0,0.0,0.0,0.0,0.0,0.0,-1.9416,0.0,0.0,0.0,0.0,0.0,0.0,-1.7802,-1.8343,-1.9585,-1.9151,-1.9061,-1.9573,-1.9169,-1.8855,-1.8727,-1.7787,-1.7271,-1.7188,-1.6752,-1.6522,-1.6522,-1.6522,-1.6522,-1.6522,-1.6522,-1.6522,-1.6522,-1.6522,-1.6522,-1.6522,-1.6522,-1.6522,-1.6522,-1.6522,-1.6522,-1.6522,-1.6522,-1.6522,-1.6479,-1.93,-1.9156,0.0,0.0,-2.0294,-2.0312,-2.0312,-2.1139,-2.2043,-2.2889,-2.3735,-2.4255,-2.4255,-2.4582,-2.4793,-2.4793,-2.512,-2.5303,0.0,0.0,-2.5303,-2.5303,-2.5303,-2.5303,-2.5303,-2.5303,-2.5303,-2.5303,-2.5214,-2.5173,0.0,0.0,0.0,0.0,-2.479,0.0,-2.4545,0.0,-2.4375,0.0,0.0,0.0,0.0,-2.419,-2.419,-2.419,-2.419,-2.419,-2.419,0.0,-2.419,0.0,0.0,0.0,0.0,-2.4016,0.0,0.0,0.0,0.0,0.0,0.0,0.0,0.0,-2.2857,0.0,-2.2773,0.0,0.0,0.0,0.0,0.0,0.0,0.0,-1.946,0.0,0.0,0.0,-1.786,0.0,0.0,0.0,0.0,0.0,0.0,0.0,-1.8642,-1.8822,-1.9091,-1.9286,-1.9207,-1.8893,-1.8458,-1.8066,-1.7787,-1.7544,-1.7422,-1.7435,-1.7118,-1.6951,-1.6951,-1.6637,-1.6522,-1.6522,-1.6522,-1.6522,-1.6522,-1.6522,-1.6522,-1.6522,-1.6522,-1.6522,-1.6522,-1.6522,-1.6522,-1.6522,-2.0031,0.0,0.0,0.0,-2.0314,-2.0377,-2.0627,-2.2092,-2.3403,-2.4047,-2.4829,-2.5331,-2.5293,-2.5303,-2.5303,-2.5303,-2.5303,-2.5303,0.0,0.0,-2.5303,-2.5303,-2.5303,-2.5303,-2.5303,-2.5303,-2.5303,-2.5303,-2.5303,-2.5303,0.0,0.0,0.0,0.0,0.0,-2.493,-2.479,0.0,-2.4575,-2.4559,-2.4409,-2.4321,-2.4266,-2.4228,-2.419,-2.419,-2.419,-2.419,-2.419,-2.419,-2.419,0.0,-2.419,0.0,-2.419,0.0,0.0,0.0,-2.4113,0.0,0.0,0.0,0.0,0.0,0.0,0.0,0.0,0.0,0.0,0.0,0.0,0.0,0.0,0.0,0.0,-1.7743,0.0,0.0,0.0,0.0,0.0,0.0,0.0,0.0,0.0,-1.7637,-1.8164,-1.8508,-1.8687,-1.9331,-1.953,-1.9132,-1.8968,-1.8688,-1.8341,-1.8185,-1.8106,-1.8106,-1.7706,-1.7504,-1.7504,-1.6951,-1.671,-1.671,-1.6552,-1.6522,-1.6522,-1.6522,-1.6522,-1.6522,-1.6522,-1.6522,-1.6522,-1.6522,-1.6522,-1.6522,-2.1641,-2.1033,0.0,0.0,-2.0334,-2.0581,-2.1436,-2.303,0.0,0.0,0.0,0.0,0.0,0.0,0.0,-2.5303,0.0,-2.5303,-2.5303,0.0,-2.5303,-2.5303,-2.5303,-2.5303,-2.5303,-2.5303,-2.5303,-2.5303,-2.5303,-2.5303,0.0,0.0,0.0,0.0,-2.501,-2.493,-2.4804,-2.479,-2.479,-2.479,-2.479,-2.467,-2.4461,0.0,-2.419,-2.419,-2.419,0.0,0.0,-2.419,-2.419,0.0,0.0,0.0,0.0,0.0,0.0,0.0,0.0,0.0,0.0,-2.3774,0.0,0.0,0.0,0.0,-2.3189,0.0,0.0,0.0,0.0,0.0,0.0,0.0,0.0,0.0,0.0,0.0,0.0,0.0,0.0,0.0,0.0,0.0,0.0,-1.7593,-1.7712,-1.8029,-1.8672,-1.9331,-1.969,-1.969,-1.9169,-1.8893,-1.8855,-1.838,-1.8106,-1.8106,-1.8066,-1.8066,-1.8066,-1.7504,-1.7271,-1.7229,-1.671,-1.6522,-1.6522,-1.6522,-1.6522,-1.6522,-1.6522,-1.6522,-1.6522,-1.6522,-1.6522,-1.6522,0.0,0.0,0.0,-2.0613,-2.0866,-2.1706,0.0,-2.3893,0.0,0.0,-2.5302,0.0,0.0,-2.5434,-2.5408,0.0,0.0,-2.5357,-2.5293,-2.5303,0.0,-2.5303,-2.5303,-2.5303,-2.5303,-2.5303,-2.5303,-2.5303,-2.5303,0.0,0.0,0.0,0.0,0.0,0.0,-2.5182,0.0,0.0,0.0,0.0,0.0,-2.4685,-2.4495,0.0,-2.4321,-2.419,-2.419,-2.419,0.0,-2.419,-2.419,-2.419,-2.419,-2.419,-2.419,-2.419,-2.419,0.0,0.0,0.0,-2.417,-2.4074,0.0,0.0,0.0,0.0,0.0,0.0,0.0,0.0,0.0,0.0,0.0,0.0,0.0,0.0,0.0,0.0,0.0,0.0,0.0,0.0,0.0,0.0,0.0,-1.6753,-1.7753,-1.8283,-1.8041,-1.9091,-1.969,-1.969,-1.953,-1.9442,-1.9442,-1.9244,-1.9169,-1.9169,-1.8817,-1.8612,-1.8612,-1.8066,-1.7827,-1.7787,-1.7271,-1.7034,-1.6993,-1.6637,-1.6522,-1.6522,-1.6522,-1.6522,-1.6522,-1.6522,-1.6522,-1.6522,-2.3516,0.0,0.0,0.0,-2.2064,0.0,0.0,0.0,0.0,0.0,-2.5543,0.0,-2.5493,0.0,-2.5473,0.0,-2.5434,-2.5413,-2.5348,-2.5339,0.0,-2.5313,-2.5303,-2.5303,0.0,-2.5303,-2.5303,-2.5303,-2.5303,-2.5303,0.0,0.0,0.0,0.0,0.0,-2.5303,-2.5284,-2.5163,-2.5099,0.0,0.0,-2.4869,0.0,0.0,-2.4508,-2.4321,0.0,-2.4409,-2.441,-2.4339,-2.4303,-2.4284,-2.4228,-2.419,-2.419,-2.419,-2.419,-2.419,-2.419,-2.419,0.0,-2.419,-2.419,0.0,-2.419,0.0,0.0,0.0,0.0,0.0,0.0,0.0,0.0,0.0,0.0,0.0,0.0,-1.8566,0.0,0.0,0.0,0.0,0.0,0.0,-1.6915,-1.6475,-1.7729,-1.8386,0.0,0.0,-1.969,-1.969,-1.969,-1.969,-1.969,-1.969,-1.969,-1.969,-1.9369,-1.9169,-1.9169,-1.8612,-1.838,-1.8341,-1.7827,-1.7585,-1.7544,-1.7188,-1.6951,-1.6795,-1.6795,-1.668,-1.6522,-1.6522,-1.6522,-1.6522,-2.4297,-2.3848,0.0,0.0,-2.3823,0.0,0.0,0.0,-2.5603,0.0,-2.5603,-2.557,-2.5526,-2.5503,-2.5517,-2.5517,-2.5498,-2.5488,-2.5408,-2.5401,0.0,0.0,-2.5322,-2.5293,-2.5293,0.0,0.0,0.0,0.0,0.0,0.0,0.0,0.0,0.0,-2.5303,0.0,-2.5303,-2.5303,-2.5303,-2.5303,-2.5303,-2.5173,-2.501,-2.501,-2.4804,-2.4543,-2.4731,-2.4804,-2.4775,-2.4575,-2.4512,-2.4461,-2.4284,-2.4209,-2.419,-2.419,-2.419,-2.419,-2.419,-2.419,-2.419,-2.419,0.0,0.0,0.0,0.0,-2.419,0.0,0.0,0.0,0.0,0.0,0.0,0.0,0.0,0.0,0.0,0.0,0.0,0.0,0.0,0.0,0.0,-1.6863,-1.6815,-1.6698,-1.7685,-1.8358,0.0,0.0,-1.9711,-1.969,-1.969,-1.969,-1.969,-1.969,-1.969,-1.969,-1.969,-1.969,-1.969,-1.9169,-1.893,-1.8893,-1.838,-1.8145,-1.8145,-1.8106,-1.7787,-1.7353,-1.7353,-1.6993,-1.6552,-1.6522,-1.6522,-1.6522,-2.5312,-2.5195,-2.5058,0.0,-2.4676,-2.459,0.0,0.0,0.0,0.0,-2.5662,-2.5662,-2.5658,-2.5658,-2.5633,-2.557,-2.5567,0.0,0.0,0.0,0.0,-2.5453,-2.5406,-2.536,-2.5368,-2.534,-2.5303,-2.5303,0.0,0.0,-2.5303,0.0,0.0,0.0,0.0,-2.5303,-2.5303,-2.5303,-2.5303,-2.5303,-2.5303,-2.5173,-2.5022,0.0,-2.5077,-2.4872,-2.4814,-2.4804,-2.479,-2.4746,-2.4623,-2.4495,-2.4426,-2.4321,-2.419,-2.419,-2.419,-2.419,-2.419,-2.419,-2.419,-2.419,-2.419,-2.419,0.0,0.0,0.0,0.0,0.0,0.0,0.0,0.0,0.0,0.0,0.0,0.0,0.0,0.0,0.0,-2.0822,0.0,0.0,0.0,-1.7873,-1.7321,-1.6811,-1.8204,0.0,0.0,0.0,0.0,-1.9726,-1.969,-1.969,-1.969,-1.969,-1.969,-1.969,-1.969,-1.969,-1.969,-1.9566,-1.9479,-1.9442,-1.893,-1.8688,-1.865,-1.8263,-1.8027,-1.7907,-1.7907,-1.7585,-1.7034,-1.6637,-1.6522,-1.6522,-2.5703,-2.5703,0.0,-2.5703,0.0,0.0,-2.5625,-2.5703,0.0,-2.5703,-2.5703,0.0,-2.5703,-2.5703,-2.5683,-2.5658,-2.5637,0.0,-2.5551,0.0,0.0,-2.5493,-2.5471,-2.5447,-2.5447,-2.5387,0.0,-2.5348,0.0,0.0,-2.5303,0.0,0.0,0.0,0.0,-2.5303,-2.5303,-2.5303,-2.5303,-2.5303,-2.5303,-2.5224,0.0,-2.5264,-2.5224,-2.513,-2.5037,-2.5031,-2.5019,-2.4923,-2.4809,-2.4708,-2.4654,-2.4495,-2.4339,-2.4339,-2.4266,-2.419,-2.419,-2.419,-2.419,-2.419,-2.419,-2.419,-2.419,-2.419,-2.419,0.0,0.0,0.0,0.0,0.0,0.0,0.0,0.0,0.0,0.0,0.0,0.0,0.0,-2.1008,0.0,0.0,-1.9042,-1.8425,-1.8219,-1.9086,0.0,0.0,0.0,0.0,-1.9711,-1.969,-1.969,-1.969,-1.969,-1.969,-1.969,-1.969,-1.969,-1.969,-1.969,-1.969,-1.969,-1.9369,-1.9244,-1.9244,-1.893,-1.865,-1.8419,-1.8185,-1.7787,-1.7271,-1.6951,-1.671,-1.6522,-2.5703,-2.5703,0.0,0.0,0.0,0.0,0.0,-2.5703,0.0,-2.5703,0.0,-2.5703,-2.5703,-2.5703,-2.5703,-2.5703,0.0,-2.5682,-2.5629,-2.5607,-2.5595,-2.5535,-2.5526,-2.5503,-2.5503,-2.5447,-2.5413,0.0,0.0,0.0,0.0,0.0,0.0,0.0,0.0,0.0,0.0,-2.5303,-2.5303,-2.5303,-2.5303,-2.5303,-2.5303,-2.5303,-2.5303,-2.5303,-2.5303,-2.5303,-2.5274,-2.5099,-2.5022,-2.4986,-2.485,-2.4682,-2.4545,-2.4545,-2.4428,-2.4266,-2.4247,-2.4247,-2.4228,-2.4209,-2.419,-2.419,-2.419,-2.419,-2.419,-2.419,-2.419,-2.419,0.0,0.0,0.0,0.0,0.0,0.0,0.0,0.0,0.0,0.0,0.0,0.0,0.0,0.0,0.0,0.0,0.0,0.0,0.0,0.0,0.0,-1.9711,-1.969,-1.969,-1.969,0.0,-1.969,-1.969,-1.969,-1.969,-1.969,-1.969,-1.969,-1.969,-1.969,-1.969,-1.969,-1.969,-1.9442,-1.8968,-1.8419,-1.7907,-1.7504,-1.7422,-1.7076,-1.6595,-2.5703,0.0,0.0,0.0,0.0,-2.5703,-2.5703,-2.5703,-2.5703,-2.5703,-2.5703,-2.5703,-2.5703,-2.5703,-2.5703,-2.5703,-2.5703,0.0,0.0,0.0,0.0,-2.5661,-2.5607,-2.5573,-2.5573,-2.5526,-2.5459,0.0,0.0,0.0,0.0,0.0,0.0,0.0,0.0,0.0,-2.5303,-2.5303,0.0,-2.5303,-2.5303,-2.5303,-2.5303,-2.5303,-2.5303,-2.5303,-2.5303,-2.5303,-2.5284,-2.5264,-2.5141,-2.4998,-2.4974,-2.4864,-2.4746,-2.4746,-2.4731,-2.4654,-2.4495,-2.4444,-2.441,-2.4247,-2.419,-2.419,-2.419,-2.419,-2.419,-2.419,-2.419,-2.419,-2.419,0.0,0.0,0.0,0.0,0.0,0.0,0.0,0.0,0.0,0.0,-2.2348,0.0,0.0,0.0,0.0,0.0,0.0,0.0,0.0,0.0,0.0,-1.969,0.0,0.0,0.0,-1.969,-1.969,-1.969,-1.969,-1.969,-1.969,-1.969,-1.969,-1.969,-1.969,-1.969,-1.969,-1.9639,-1.953,-1.8968,-1.8688,-1.8574,-1.8145,-1.7626,-1.7118,-2.5781,0.0,0.0,0.0,0.0,0.0,0.0,-2.5703,-2.5703,-2.5703,-2.5703,-2.5703,-2.5703,-2.5703,-2.5703,-2.5703,-2.5703,-2.5703,-2.5703,-2.5703,-2.5703,-2.5703,-2.5662,-2.5659,-2.5659,-2.5595,-2.5539,-2.5489,0.0,0.0,0.0,0.0,0.0,0.0,0.0,-2.5303,0.0,0.0,0.0,-2.5303,-2.5303,-2.5303,-2.5303,-2.5303,-2.5303,-2.5303,-2.5303,-2.5303,-2.5303,-2.5303,-2.5243,-2.5152,-2.5152,-2.5041,-2.4904,-2.4904,-2.4855,-2.4775,-2.4685,-2.4575,-2.4478,-2.4375,-2.4266,-2.419,-2.419,-2.419,-2.419,-2.419,-2.419,-2.419,-2.419,-2.4074,0.0,0.0,0.0,0.0,0.0,0.0,-2.3159,0.0,0.0,0.0,0.0,0.0,0.0,0.0,0.0,-2.0953,0.0,0.0,0.0,0.0,0.0,0.0,0.0,0.0,0.0,-1.969,-1.969,-1.969,-1.969,-1.969,-1.969,-1.969,-1.969,-1.969,-1.969,-1.969,-1.969,-1.969,-1.9406,-1.9132,-1.8898,-1.8995,-1.8696,-1.8166,-2.6152,-2.5977,0.0,0.0,-2.5703,-2.5703,-2.5703,-2.5703,-2.5703,-2.5703,-2.5703,-2.5703,-2.5703,-2.5703,-2.5703,-2.5703,-2.5703,-2.5703,-2.5703,-2.5703,-2.5703,-2.5703,-2.5703,-2.5703,-2.5703,-2.5658,-2.5607,0.0,0.0,0.0,0.0,0.0,0.0,0.0,0.0,0.0,0.0,0.0,-2.5303,-2.5303,-2.5303,-2.5303,-2.5303,-2.5303,-2.5303,-2.5303,-2.5303,-2.5303,-2.5303,-2.5303,-2.5303,-2.5303,-2.5303,-2.5203,-2.5057,-2.5057,-2.4981,-2.4902,-2.4855,-2.4727,-2.4588,-2.4528,-2.4375,-2.4247,-2.4209,-2.419,-2.419,-2.419,-2.419,-2.419,-2.419,-2.419,0.0,0.0,0.0,0.0,0.0,0.0,0.0,0.0,0.0,0.0,-2.2822,0.0,0.0,0.0,0.0,-2.1718,-2.1628,-2.1306,-2.0926,0.0,0.0,-1.998,-1.998,0.0,-1.9874,-1.998,-1.9782,-1.9747,-1.9803,-1.9747,-1.969,-1.969,-1.969,-1.969,-1.969,-1.969,-1.969,-1.969,-1.969,-1.9531,-1.9371,-1.9895,-1.9824,-1.9433,0.0,0.0,0.0,0.0,0.0,0.0,-2.5703,-2.5703,-2.5703,-2.5703,-2.5703,-2.5703,-2.5703,-2.5703,-2.5703,-2.5703,-2.5703,-2.5703,-2.5703,-2.5703,-2.5703,-2.5703,-2.5703,-2.5703,-2.5703,-2.5683,-2.566,0.0,0.0,-2.5551,0.0,0.0,0.0,0.0,0.0,0.0,0.0,-2.5303,-2.5303,-2.5303,-2.5303,-2.5303,-2.5303,-2.5303,-2.5303,-2.5303,-2.5303,-2.5303,-2.5303,-2.5303,-2.5303,-2.5303,-2.5303,-2.5303,-2.5274,-2.5274,-2.5264,-2.5203,-2.5022,-2.4974,-2.4885,-2.4591,-2.4478,-2.4409,-2.4247,-2.419,-2.419,-2.419,-2.419,-2.419,-2.419,-2.419,-2.419,0.0,0.0,0.0,0.0,0.0,-2.3996,-2.3692,0.0,0.0,0.0,-2.266,0.0,0.0,-2.2409,-2.2032,-2.1612,-2.1552,-2.1368,-2.0959,0.0,-2.0862,-2.0862,-2.0449,-2.0449,-2.0862,-2.0085,-1.9909,-2.0212,-1.9874,-1.969,-1.969,-1.969,-1.969,-1.969,-1.969,-1.969,-1.969,-1.969,-2.0027,-2.0542,-2.0601,-2.0661,-2.0808,0.0,0.0,0.0,0.0,0.0,0.0,0.0,-2.5703,-2.5703,-2.5703,-2.5703,-2.5703,-2.5703,-2.5703,-2.5703,-2.5703,-2.5703,-2.5703,-2.5703,-2.5703,-2.5703,-2.5703,-2.5703,-2.5703,-2.5703,-2.5703,-2.5683,0.0,0.0,0.0,0.0,0.0,0.0,0.0,0.0,-2.5363,-2.5363,-2.5322,-2.5303,-2.5303,-2.5303,-2.5303,-2.5303,-2.5303,-2.5303,-2.5303,-2.5303,-2.5303,-2.5303,-2.5303,-2.5303,-2.5303,-2.5303,-2.5303,-2.5303,-2.5303,-2.5303,-2.5274,-2.5203,-2.5088,-2.4974,-2.4831,-2.4651,-2.4478,-2.441,-2.4284,-2.419,-2.419,-2.419,-2.419,-2.419,-2.419,-2.419,0.0,0.0,0.0,0.0,0.0,0.0,-2.4016,0.0,-2.3714,0.0,0.0,0.0,0.0,0.0,-2.2209,-2.2032,-2.1748,-2.1521,-2.1368,0.0,-2.0991,-2.0991,-2.0829,-2.0829,-2.1007,-2.0648,-2.0565,-2.0731,-2.0261,-1.9945,-1.969,-1.969,-1.969,-1.969,-1.969,-1.969,-1.9735,-2.0139,-2.0468,-2.0812,-2.1605,-2.1917,-2.2005,-2.6714,0.0,-2.5975,0.0,-2.5703,-2.5703,-2.5703,-2.5703,-2.5703,-2.5703,-2.5703,-2.5703,-2.5703,-2.5703,-2.5703,-2.5703,-2.5703,-2.5703,-2.5703,-2.5703,-2.5703,-2.5703,-2.5703,0.0,-2.5703,-2.5703,-2.5703,-2.5703,-2.5659,0.0,0.0,0.0,0.0,0.0,-2.5453,-2.5415,-2.5406,-2.5346,-2.5476,-2.5668,-2.5668,-2.5851,-2.6063,-2.6063,-2.6063,-2.6024,-2.5764,-2.5668,-2.563,-2.538,-2.5303,-2.5303,-2.5303,-2.5303,-2.5303,-2.5303,-2.5303,-2.5303,-2.5303,-2.5203,-2.5057,-2.5022,-2.4818,-2.462,-2.451,-2.4393,-2.4266,-2.4209,-2.419,-2.419,-2.419,-2.419,-2.419,-2.419,0.0,0.0,0.0,-2.419,0.0,-2.419,-2.4113,-2.3996,-2.3876,-2.3437,0.0,0.0,0.0,0.0,-2.231,-2.2003,0.0,0.0,0.0,0.0,0.0,-2.126,-2.126,-2.1385,-2.1134,-2.1055,-2.115,-2.0715,-2.0296,-1.9874,-1.9874,-1.9818,-1.969,-1.969,-1.969,-1.9735,-2.0228,-2.0662,-2.1111,-2.2054,-2.2544,-2.2724,-2.8324,-2.7474,-2.6626,-2.584,-2.5703,-2.5703,-2.5703,-2.5703,-2.5703,-2.5703,-2.5703,-2.5703,-2.5703,-2.5703,-2.5703,-2.5703,-2.5703,-2.5703,-2.5703,-2.5703,-2.5703,0.0,0.0,-2.5703,-2.5703,-2.5703,-2.5703,-2.5703,0.0,0.0,-2.5703,0.0,-2.5561,-2.5493,-2.5489,-2.5451,-2.5394,-2.5398,-2.5857,-2.6582,-2.6582,-2.7101,-2.7871,-2.7871,-2.7871,-2.7755,-2.689,-2.6582,-2.6447,-2.5591,-2.5303,-2.5303,-2.5303,-2.5303,-2.5303,-2.5303,-2.5303,-2.5303,-2.5303,-2.5303,-2.5253,-2.5046,-2.501,-2.4911,-2.4591,-2.4495,-2.4426,-2.4247,-2.419,-2.419,-2.419,-2.419,-2.419,-2.419,0.0,0.0,0.0,0.0,0.0,-2.419,-2.3917,-2.3837,-2.417,-2.3588,0.0,0.0,0.0,0.0,0.0,0.0,0.0,-2.2282,-2.2282,0.0,-2.2282,-2.1823,-2.1823,-2.2282,-2.1415,-2.1213,-2.1582,-2.1181,-2.0731,-2.028,-2.028,-2.007,-1.969,-1.969,-1.969,-1.969,-1.969,-2.0513,-2.168,-2.1695,-2.2113,-2.2724,-2.6636,-2.6143,-2.5859,-2.5616,-2.5561,-2.557,-2.5611,-2.5634,-2.5658,-2.5683,-2.5703,-2.5703,-2.5703,-2.5703,-2.5703,0.0,-2.5703,-2.5703,0.0,-2.5703,-2.5703,-2.5703,-2.5703,-2.5703,-2.5703,-2.5703,-2.5703,-2.5703,0.0,0.0,0.0,-2.5683,-2.566,-2.5634,-2.5595,-2.5558,-2.5578,-2.6126,-2.6501,-2.678,-2.7326,-2.7727,-2.7969,-2.7913,-2.789,-2.7794,-2.6909,-2.6601,-2.6467,-2.5591,-2.5303,-2.5303,-2.5303,-2.5303,-2.5303,-2.5303,-2.5303,-2.5303,-2.5303,-2.5303,-2.5274,-2.5214,-2.5099,-2.4955,-2.4872,-2.4663,-2.4478,-2.4428,-2.4303,-2.419,-2.419,-2.419,-2.419,-2.419,-2.419,0.0,0.0,0.0,-2.419,-2.419,-2.4094,-2.4074,-2.419,-2.3795,0.0,0.0,0.0,0.0,0.0,0.0,0.0,0.0,-2.231,0.0,-2.231,-2.2135,-2.2135,-2.231,-2.202,-2.1781,-2.1598,-2.146,-2.1181,-2.0797,-2.0797,-2.0516,-2.0089,-2.0089,-1.9945,-1.9735,-2.0198,-2.0647,-2.1081,-2.153,-2.1829,-2.1934,-2.6709,-2.6436,-2.6229,-2.56,-2.5761,-2.5887,-2.5613,-2.5561,-2.559,-2.5629,-2.5611,-2.5634,-2.566,-2.5661,0.0,-2.5703,-2.5703,-2.5703,-2.5703,-2.5703,-2.5703,-2.5703,-2.5703,-2.5703,-2.5703,-2.5703,0.0,-2.5703,-2.6035,-2.6191,-2.6191,-2.6191,-2.6016,-2.5703,-2.5992,-2.6119,-2.6147,-2.6965,-2.7507,-2.779,-2.7971,-2.8216,-2.8454,-2.8067,-2.7943,-2.7817,-2.6929,-2.6601,-2.6467,-2.5591,-2.5303,-2.5303,-2.5303,-2.5303,-2.5303,-2.5303,-2.5303,-2.5303,-2.5303,-2.5303,-2.5303,-2.5303,-2.5203,-2.5099,-2.5022,-2.4809,-2.4607,-2.4607,-2.4444,-2.4321,-2.4321,-2.4266,-2.419,-2.419,-2.419,-2.419,-2.419,0.0,-2.419,0.0,0.0,0.0,0.0,-2.4016,-2.3753,0.0,0.0,0.0,0.0,0.0,0.0,-2.231,-2.231,0.0,-2.231,-2.231,-2.231,-2.231,-2.231,-2.2152,-2.1853,-2.1853,-2.1628,-2.1213,-2.1213,-2.0975,-2.055,-2.055,-2.0296,-1.999,-2.0394,-2.0617,-2.0767,-2.1171,-2.1321,-2.1261,-2.8055,-2.7956,-2.7466,0.0,-2.6207,0.0,-2.5639,-2.5484,-2.5489,-2.5489,-2.5493,-2.5511,-2.5595,-2.5598,-2.5629,-2.5683,0.0,0.0,0.0,-2.5703,-2.5703,-2.5703,-2.5762,-2.5781,-2.5781,-2.5859,-2.5879,-2.5879,-2.6699,-2.709,-2.709,-2.7031,-2.6562,-2.582,-2.6641,-2.6931,-2.6876,-2.7813,-2.8594,-2.9162,-2.8412,-2.8582,-2.9213,-2.8349,-2.8031,-2.7965,-2.6969,-2.6611,-2.6477,-2.5601,-2.5303,-2.5303,-2.5303,-2.5303,-2.5303,-2.5303,-2.5303,-2.5303,-2.5303,-2.5303,-2.5303,-2.5303,-2.5303,-2.5253,-2.5057,-2.4917,-2.4799,-2.4799,-2.4654,-2.4528,-2.4528,-2.4357,-2.4228,-2.4228,-2.4209,-2.419,-2.419,0.0,-2.419,0.0,0.0,0.0,0.0,-2.419,-2.4074,0.0,0.0,0.0,0.0,0.0,-2.2349,-2.2338,-2.231,-2.231,-2.231,-2.231,-2.231,-2.231,-2.231,-2.231,-2.231,-2.231,-2.2061,-2.1658,-2.1658,-2.1399,-2.1023,-2.1023,-2.0748,-2.0348,-2.0348,-2.0502,-2.067,-2.067,-2.0632,-2.0647,0.0,0.0,-2.7383,-2.5637,-2.6071,-2.6367,-2.5556,-2.5421,-2.5447,-2.5484,-2.5493,-2.5517,-2.5511,-2.5511,-2.5554,-2.5629,-2.5662,-2.5703,-2.5703,-2.5703,-2.5703,-2.5703,-2.6348,-2.6699,-2.6699,-2.7344,-2.7676,-2.7676,-2.7891,-2.7988,-2.7988,-2.7305,-2.6894,-2.6699,-2.6914,-2.6621,-2.6073,-2.7616,-2.8005,-2.7609,-2.8015,-2.8684,-2.9343,-2.8435,-2.8456,-2.8787,-2.7237,-2.6674,-2.655,-2.5611,-2.5303,-2.5303,-2.5303,-2.5303,-2.5303,-2.5303,-2.5303,-2.5303,-2.5303,-2.5303,-2.5303,-2.5303,-2.5303,-2.5303,-2.5253,-2.5096,-2.4949,-2.4949,-2.4823,-2.4731,-2.4731,-2.4559,-2.4445,-2.4445,-2.4303,-2.419,-2.419,-2.419,0.0,0.0,-2.419,-2.419,-2.419,-2.419,-2.4074,0.0,0.0,0.0,0.0,-2.3063,-2.2883,-2.2677,-2.2415,-2.231,-2.231,-2.231,-2.231,-2.231,-2.231,-2.231,-2.231,-2.231,-2.2237,-2.2135,-2.2135,-2.1869,-2.146,-2.146,-2.1213,-2.0829,-2.0829,-2.066,-2.0404,-2.0404,-2.0223,-1.9929,-2.8005,-2.8121,-2.7909,-2.6197,-2.6294,-2.6314,-2.5473,-2.5354,-2.5379,-2.5394,-2.542,-2.5415,-2.5459,-2.544,-2.5473,-2.5551,-2.5627,-2.5662,-2.5703,-2.5703,-2.5703,-2.5703,-2.6523,-2.6992,-2.6992,-2.7851,-2.8496,-2.8887,-2.8887,-2.8887,-2.8887,-2.8418,-2.7988,-2.7617,-2.8008,-2.7695,-2.6973,-2.832,-2.8398,-2.7598,-2.7631,-2.792,-2.825,-2.7312,-2.7234,-2.7483,-2.6501,-2.6139,-2.6075,-2.5561,-2.5391,-2.5383,-2.5354,-2.5357,-2.5339,-2.5303,-2.5303,-2.5303,-2.5303,-2.5303,-2.5303,-2.5303,-2.5303,-2.5303,-2.5303,-2.5214,-2.5141,-2.5141,-2.5005,-2.4891,-2.4891,-2.4756,-2.4607,-2.4512,-2.441,-2.4303,-2.4209,-2.419,0.0,-2.419,-2.419,-2.419,-2.419,-2.419,-2.4113,-2.3937,-2.3917,0.0,-2.3671,-2.3522,-2.323,-2.2755,-2.2581,-2.2426,-2.231,-2.231,-2.231,-2.231,-2.231,-2.231,-2.231,-2.231,-2.231,-2.231,-2.231,-2.2152,-2.1928,-2.1928,-2.1658,-2.1275,-2.1275,-2.1023,-2.0616,-2.0616,-2.0465,-2.0277,-2.9275,-2.9102,-2.8563,-2.689,-2.6601,-2.6313,-2.5418,-2.5303,-2.5303,-2.5303,-2.5303,-2.5312,-2.5376,-2.5391,-2.5408,-2.5488,-2.5543,-2.5603,-2.5683,-2.5683,-2.5683,-2.5703,-2.666,-2.7207,-2.7207,-2.8184,-2.9062,-2.9805,-2.9805,-2.9805,-2.9785,-2.9668,-2.9219,-2.8535,-2.9277,-2.9121,-2.8359,-2.9082,-2.8906,-2.8027,-2.7148,-2.6875,-2.6894,-2.5968,-2.5705,-2.58,-2.5582,-2.5526,-2.5503,-2.5493,-2.5493,-2.5503,-2.5596,-2.5524,-2.5425,-2.5493,-2.5418,-2.5313,-2.5293,-2.5303,-2.5303,-2.5303,-2.5303,-2.5303,-2.5303,-2.5303,-2.5303,-2.5303,-2.5163,-2.5046,-2.5046,-2.493,-2.4756,-2.4575,-2.4561,-2.4461,-2.4228,0.0,-2.4228,-2.419,-2.419,-2.419,-2.419,-2.419,-2.419,-2.419,-2.419,-2.419,-2.419,-2.3917,-2.35,-2.2873,-2.2746,-2.2573,-2.231,-2.231,-2.231,-2.231,-2.231,-2.231,-2.231,-2.231,-2.231,-2.231,-2.231,-2.231,-2.231,-2.231,-2.2077,-2.1718,-2.1718,-2.143,-2.1086,-2.1086,-2.1055,-2.0926,-2.9275,-2.9102,-2.8563,-2.689,-2.6601,-2.6313,-2.5418,-2.5303,-2.5303,-2.5303,-2.5303,-2.5293,-2.5313,-2.5322,-2.5329,-2.5408,-2.5441,-2.5488,-2.5605,-2.5627,-2.5636,-2.5703,-2.7246,-2.8105,-2.8105,-2.9668,-3.0566,-3.0703,-3.0703,-3.0703,-3.0684,-2.9941,-2.9531,-2.9394,-2.9531,-2.9121,-2.8301,-2.8437,-2.8008,-2.7129,-2.625,-2.6348,-2.6894,-2.6015,-2.6132,-2.6678,-2.5878,-2.5573,-2.559,-2.5526,-2.5493,-2.5625,-2.634,-2.6081,-2.5618,-2.6292,-2.5952,-2.5368,-2.5322,-2.5303,-2.5303,-2.5303,-2.5303,-2.5303,-2.5303,-2.5303,-2.5303,-2.5303,-2.5274,-2.5253,-2.5253,-2.5107,-2.4911,-2.479,-2.476,-2.4623,-2.4266,0.0,-2.4393,-2.4209,-2.419,-2.419,-2.419,-2.419,-2.419,-2.419,-2.419,-2.419,-2.419,-2.4151,-2.3937,-2.3566,-2.2996,-2.2573,-2.231,-2.231,-2.231,-2.231,-2.231,-2.231,-2.231,-2.231,-2.231,-2.231,-2.231,-2.231,-2.231,-2.231,-2.2254,-2.218,-2.218,-2.1899,-2.1491,-2.1491,-2.1275,-2.0991,-2.989,-2.9313,-2.8544,-2.7486,-2.6524,-2.5774,-2.536,-2.5303,-2.5303,-2.5303,-2.5303,-2.5303,-2.5303,-2.5303,-2.5313,-2.5337,-2.5357,-2.5383,-2.5493,-2.5531,-2.5772,-2.6272,-2.7546,-2.8708,-2.9687,-3.0488,-3.0898,-3.0898,-3.0898,-3.0898,-3.0898,-3.0488,-3.0293,-3.0293,-3.0293,-2.9551,-2.8301,-2.8301,-2.7539,-2.6269,-2.5859,-2.5937,-2.6269,-2.5859,-2.5957,-2.623,-2.5817,-2.5659,-2.5658,-2.5629,-2.5605,-2.5759,-2.6598,-2.6259,-2.5703,-2.6518,-2.6098,-2.5348,-2.5303,-2.5303,-2.5303,-2.5303,-2.5303,-2.5303,-2.5303,-2.5303,-2.5303,-2.5303,-2.5303,-2.5303,-2.5303,-2.5224,-2.5118,-2.4943,-2.4917,0.0,0.0,-2.4512,-2.4461,-2.4375,-2.4284,-2.419,-2.419,-2.419,-2.419,-2.419,-2.419,-2.419,-2.419,-2.419,-2.4132,-2.3976,-2.3323,-2.2915,-2.2773,-2.2773,-2.2773,-2.2773,-2.2773,-2.2695,-2.2527,-2.2527,-2.2453,-2.231,-2.231,-2.231,-2.231,-2.231,-2.231,-2.231,-2.231,-2.218,-2.1974,-2.1974,-2.1869,-2.1645,-3.0398,-2.9544,-2.8602,-2.8005,-2.664,-2.5534,-2.5322,-2.5303,-2.5303,-2.5303,-2.5303,-2.5303,-2.5303,-2.5303,-2.5303,-2.5303,-2.5303,-2.5331,-2.5379,-2.5421,-2.5859,-2.6757,-2.7881,-2.9244,-3.0818,-3.0879,-3.0898,-3.0898,-3.0898,-3.0898,-3.0898,-3.0898,-3.0781,-3.0605,-3.0605,-2.9746,-2.8281,-2.8086,-2.7226,-2.5977,-2.5781,-2.5703,-2.5703,-2.5703,-2.5703,-2.5703,-2.5703,-2.5703,-2.5703,-2.5703,-2.5703,-2.584,-2.6652,-2.6333,-2.5781,-2.6584,-2.6126,-2.5329,-2.5321,-2.5313,-2.5303,-2.5303,-2.5303,-2.5303,-2.5303,-2.5303,-2.5303,-2.5303,-2.5303,-2.5303,-2.5303,-2.5303,-2.5224,-2.5034,0.0,0.0,0.0,-2.4682,-2.4591,-2.4512,-2.4357,-2.4266,-2.419,-2.419,-2.419,-2.419,-2.4373,-2.4392,-2.4208,-2.4373,-2.4392,-2.4208,-2.3628,-2.3277,-2.3189,-2.3189,-2.3189,-2.3189,-2.3189,-2.3069,-2.2822,-2.2746,-2.2573,-2.2388,-2.2338,-2.231,-2.231,-2.231,-2.231,-2.231,-2.231,-2.231,-2.231,-2.231,-2.231,-2.2254,-3.0398,-2.9679,-2.8813,-2.8044,-2.7121,-2.6236,-2.5418,-2.5303,-2.5303,-2.5303,-2.5303,-2.5303,-2.5303,-2.5303,-2.5303,-2.5303,-2.5303,-2.5293,-2.5322,-2.5313,-2.5757,-2.6751,-2.8462,-2.9818,-3.0699,-3.0837,-3.0898,-3.0898,-3.0898,-3.0898,-3.0898,-3.0898,-3.0469,-2.9707,-2.9707,-2.918,-2.8242,-2.7441,-2.7012,-2.6836,-2.6035,-2.5703,-2.5703,-2.5703,-2.5703,-2.5703,-2.5703,-2.5703,-2.5703,-2.5703,-2.5703,-2.5859,-2.6719,-2.6387,-2.5858,-2.6661,-2.6213,-2.5463,-2.5408,-2.5337,-2.5303,-2.5303,-2.5303,-2.5303,-2.5303,-2.5303,-2.5303,-2.5303,-2.5303,-2.5303,-2.5303,-2.5303,-2.5224,-2.5034,0.0,0.0,-2.4847,-2.4904,-2.4845,-2.4526,-2.4495,-2.4392,-2.4209,-2.419,-2.419,-2.419,-2.4887,-2.4999,-2.4245,-2.4905,-2.498,-2.4226,-2.3837,-2.3522,-2.3189,-2.3189,-2.3189,-2.3189,-2.3189,-2.3189,-2.3141,-2.2848,-2.2695,-2.266,-2.2398,-2.231,-2.231,-2.231,-2.231,-2.231,-2.231,-2.231,-2.231,-2.231,-2.231,-2.2282,-3.0513,-3.014,-2.964,-2.8794,-2.7659,-2.6678,-2.6178,-2.5649,-2.5303,-2.5303,-2.5303,-2.5303,-2.5303,-2.5303,-2.5303,-2.5303,-2.5303,-2.5303,-2.5303,-2.5813,-2.6544,-2.751,-2.9195,-3.0289,-3.0624,-3.0685,-3.0716,-3.0716,-3.0716,-3.0729,-3.0771,-3.0771,-3.064,-3.0371,-2.9844,-2.9121,-2.8242,-2.7363,-2.6699,-2.6152,-2.582,-2.5703,-2.5703,-2.5703,-2.5703,-2.5703,-2.5703,-2.5703,-2.5703,-2.5703,-2.5703,-2.5859,-2.6738,-2.6406,-2.5762,-2.6072,-2.5861,-2.5558,-2.5539,-2.5447,-2.5363,-2.5363,-2.5321,-2.5303,-2.5303,-2.5303,-2.5303,-2.5303,-2.5303,-2.5303,-2.5303,-2.5303,-2.5274,-2.5203,0.0,-2.5446,-2.5865,-2.5397,-2.5152,-2.557,-2.4955,-2.4461,-2.4393,-2.4266,-2.419,-2.419,-2.4962,-2.5054,-2.4245,-2.4483,-2.452,-2.4208,-2.4074,-2.3937,-2.3816,-2.3816,-2.3816,-2.3816,-2.3816,-2.3714,-2.3522,-2.3392,-2.3212,-2.2996,-2.2908,-2.273,-2.2537,-2.2537,-2.2436,-2.231,-2.231,-2.231,-2.231,-2.231,-2.231,-2.231,-3.0513,-3.0398,-3.014,-2.9256,-2.8082,-2.714,-2.6678,-2.587,-2.5303,-2.5303,-2.5303,-2.5303,-2.5303,-2.5303,-2.5303,-2.5303,-2.5303,-2.5418,-2.5687,-2.6755,-2.7662,-2.8317,-2.9726,-3.0513,-3.0561,-3.0594,-3.0606,-3.0606,-3.0606,-3.0497,-3.0287,-3.0287,-3.0183,-2.997,-2.9136,-2.8415,-2.781,-2.6953,-2.625,-2.5703,-2.5703,-2.5703,-2.5703,-2.5703,-2.5703,-2.5703,-2.5703,-2.5703,-2.5703,-2.5703,-2.5703,-2.5801,-2.6406,-2.6172,-2.5703,-2.5703,-2.5857,-2.6044,-2.6044,-2.5964,-2.5795,-2.5478,-2.5363,-2.5331,-2.5293,-2.5303,-2.538,-2.5649,-2.5495,-2.5457,-2.6024,-2.589,-2.5813,-2.6082,-2.612,-2.6332,-2.6928,-2.6373,-2.6121,-2.6632,-2.5977,-2.5424,-2.5274,-2.5134,-2.5021,-2.4961,-2.5695,-2.5897,-2.5364,-2.485,-2.4575,-2.4575,-2.4318,-2.419,-2.419,-2.419,-2.419,-2.419,-2.419,-2.4074,-2.3837,-2.3753,-2.3566,-2.3346,-2.3253,-2.3069,-2.2873,-2.2873,-2.2678,-2.2426,-2.2426,-2.236,-2.231,-2.231,-2.231,-2.231,-3.0398,-3.0398,-3.014,-2.9256,-2.8429,-2.7601,-2.6736,-2.587,-2.5303,-2.5303,-2.5303,-2.5303,-2.5303,-2.5303,-2.5303,-2.5303,-2.5303,-2.5668,-2.6544,-2.8159,-2.9102,-2.9102,-2.9989,-3.0498,-3.0498,-3.0561,-3.06,-3.06,-3.06,-3.0197,-2.9405,-2.9405,-2.8932,-2.8057,-2.7261,-2.6908,-2.6847,-2.6032,-2.5703,-2.5703,-2.5703,-2.5703,-2.5703,-2.5703,-2.5703,-2.5703,-2.5703,-2.5703,-2.5703,-2.5703,-2.5703,-2.5703,-2.5703,-2.5703,-2.5703,-2.5723,-2.6328,-2.7012,-2.7012,-2.6967,-2.6679,-2.5667,-2.5398,-2.5395,-2.5322,-2.5313,-2.5563,-2.6428,-2.5928,-2.5851,-2.7582,-2.7198,-2.689,-2.7755,-2.789,-2.789,-2.7909,-2.789,-2.7827,-2.7631,-2.7599,-2.7409,-2.6952,-2.6898,-2.6804,-2.6615,-2.7328,-2.7787,-2.7787,-2.6284,-2.5421,-2.5403,-2.463,-2.4208,-2.419,-2.419,-2.419,-2.419,-2.419,-2.419,-2.419,-2.3876,-2.3692,-2.3692,-2.3346,-2.3212,-2.3189,-2.3189,-2.3021,-2.2695,-2.2695,-2.2537,-2.231,-2.231,-2.231,-2.231,-3.0513,-3.0398,-3.0321,-3.0063,-2.8832,-2.7813,-2.7544,-2.6255,-2.5303,-2.5303,-2.5303,-2.5303,-2.5303,-2.5303,-2.5303,-2.5303,-2.5303,-2.5928,-2.7409,-2.8506,-2.9371,-2.9987,-3.0282,-3.0439,-3.0439,-3.0451,-3.0452,-3.0452,-3.0452,-3.0046,-2.9256,-2.9256,-2.8845,-2.8053,-2.721,-2.6829,-2.679,-2.5974,-2.5633,-2.5634,-2.5683,-2.5703,-2.5703,-2.5703,-2.5703,-2.5703,-2.5703,-2.5703,-2.5703,-2.5703,-2.5703,-2.5801,-2.6426,-2.6602,-2.6738,-2.7344,-2.7715,-2.791,-2.791,-2.7909,-2.7651,-2.6695,-2.6413,-2.6215,-2.5583,-2.6343,-2.7089,-2.6743,-2.6911,-2.7274,-2.7794,-2.7678,-2.7601,-2.7852,-2.789,-2.8102,-2.8659,-2.8255,-2.8091,-2.8595,-2.8026,-2.754,-2.7409,-2.7255,-2.7093,-2.6823,-2.7026,-2.7416,-2.7992,-2.7026,-2.6134,-2.5421,-2.5182,-2.4759,-2.4208,-2.419,-2.419,-2.419,-2.419,-2.419,-2.4208,-2.4094,-2.4054,-2.4054,-2.3955,-2.3774,-2.3544,-2.3544,-2.3346,-2.3045,-2.3045,-2.2865,-2.2573,-2.2573,-2.2463,-2.231,-3.0494,-3.0398,-3.0398,-3.0398,-2.9006,-2.8005,-2.8332,-2.6928,-2.5947,-2.6274,-2.6024,-2.5813,-2.5813,-2.5514,-2.5303,-2.5303,-2.5928,-2.6909,-2.8275,-2.914,-2.9852,-3.0379,-3.0398,-3.0237,-2.989,-3.0217,-3.0237,-2.989,-3.0237,-2.9974,-2.9158,-2.883,-2.8449,-2.7976,-2.6786,-2.6448,-2.672,-2.5909,-2.5561,-2.5564,-2.5634,-2.566,-2.5661,-2.5683,-2.5703,-2.5703,-2.5703,-2.5703,-2.5703,-2.5703,-2.5703,-2.5781,-2.6328,-2.6719,-2.7109,-2.7637,-2.8262,-2.8809,-2.8809,-2.8809,-2.8672,-2.812,-2.7396,-2.6775,-2.6573,-2.7057,-2.7563,-2.7731,-2.7868,-2.8136,-2.8811,-2.8625,-2.8486,-2.8832,-2.889,-2.9063,-2.9544,-2.9198,-2.9063,-2.9563,-2.909,-2.8677,-2.8559,-2.8441,-2.8269,-2.8033,-2.8015,-2.8221,-2.8708,-2.764,-2.671,-2.6022,-2.5669,-2.5242,-2.4667,-2.4997,-2.4832,-2.419,-2.419,-2.419,-2.419,-2.419,-2.419,-2.419,-2.419,-2.4094,-2.3896,-2.3896,-2.3692,-2.3392,-2.3392,-2.3189,-2.2898,-2.2898,-2.273,-2.2463,-3.0398,-3.0398,-3.0398,-3.0398,-2.9063,-2.8255,-2.8986,-2.7736,-2.7005,-2.7794,-2.714,-2.664,-2.6717,-2.587,-2.5322,-2.5399,-2.6948,-2.8236,-2.9044,-2.9929,-3.0398,-3.0398,-3.0398,-2.9967,-2.9006,-2.9833,-2.989,-2.9102,-2.989,-2.9833,-2.8967,-2.8313,-2.7967,-2.7824,-2.6221,-2.5952,-2.6649,-2.5834,-2.5484,-2.5508,-2.5561,-2.5598,-2.5601,-2.566,-2.5683,-2.5683,-2.5683,-2.5683,-2.5703,-2.5703,-2.5703,-2.5703,-2.5781,-2.6406,-2.7129,-2.7207,-2.8418,-2.9726,-2.9726,-2.9726,-2.9726,-2.9726,-2.8414,-2.7318,-2.7967,-2.7619,-2.759,-2.9182,-2.889,-2.8838,-3.0447,-3.0037,-2.9682,-3.0414,-3.0506,-3.0494,-3.0398,-3.0398,-3.0398,-3.0398,-3.0398,-3.0311,-3.0061,-3.0013,-2.9939,-2.9782,-2.9748,-2.9731,-2.9731,-2.8277,-2.7328,-2.7064,-2.6338,-2.582,-2.5553,-2.6268,-2.588,-2.441,-2.441,-2.4373,-2.43,-2.43,-2.4263,-2.419,-2.419,-2.419,-2.419,-2.419,-2.4016,-2.3735,-2.3735,-2.3544,-2.3236,-2.3236,-2.3021,-2.2695,-3.0398,-3.0398,-3.0398,-3.0398,-2.9525,-2.889,-2.9063,-2.8255,-2.7678,-2.7871,-2.714,-2.6851,-2.7544,-2.6236,-2.5572,-2.6255,-2.7294,-2.8236,-2.9044,-2.9929,-3.0398,-3.0398,-3.0398,-2.9698,-2.8179,-2.8948,-2.9294,-2.9102,-2.9294,-2.8948,-2.8159,-2.8621,-2.8486,-2.7852,-2.6805,-2.6449,-2.6574,-2.5766,-2.5421,-2.5421,-2.5484,-2.5511,-2.5511,-2.5543,-2.559,-2.5611,-2.5611,-2.5659,-2.5703,-2.5703,-2.5703,-2.582,-2.6504,-2.7324,-2.8144,-2.8848,-2.9785,-3.0625,-3.0625,-3.0625,-3.0625,-3.0625,-2.9804,-2.8886,-2.8376,-2.9084,-2.9962,-3.0333,-3.0755,-3.1372,-3.2422,-3.2399,-3.2068,-3.1584,-3.1463,-3.1179,-3.0494,-3.0398,-3.0398,-3.0398,-3.0398,-3.0386,-3.0311,-3.0136,-3.0061,-3.0228,-3.0047,-2.9939,-2.9939,-2.9578,-2.9007,-2.8171,-2.7966,-2.7469,-2.6581,-2.6749,-2.6578,-2.608,-2.608,-2.575,-2.5146,-2.5146,-2.4795,-2.419,-2.419,-2.419,-2.419,-2.419,-2.4151,-2.4094,-2.4094,-2.3896,-2.3588,-2.3588,-2.3212,-2.2669,-3.0398,-3.0398,-3.0398,-3.0398,-2.9679,-2.9236,-2.966,-2.9006,-2.8621,-2.9044,-2.8332,-2.7967,-2.8409,-2.6948,-2.6274,-2.714,-2.7986,-2.8832,-2.9679,-3.016,-3.0398,-3.0398,-3.0006,-2.9371,-2.8486,-2.8506,-2.8525,-2.8525,-2.8909,-2.9102,-2.9083,-2.8698,-2.8506,-2.8429,-2.7582,-2.6986,-2.6563,-2.6149,-2.5732,-2.5354,-2.5441,-2.5459,-2.5465,-2.5498,-2.5511,-2.5554,-2.5554,-2.5598,-2.5719,-2.6172,-2.6328,-2.6465,-2.7344,-2.8223,-2.9004,-2.9473,-3.0215,-3.0898,-3.0898,-3.0898,-3.0996,-3.1426,-3.1172,-3.0723,-3.0254,-3.0486,-3.1028,-3.1828,-3.2293,-3.2712,-3.3161,-3.318,-3.2986,-3.2501,-3.2396,-3.2196,-3.1672,-3.1256,-3.116,-3.1545,-3.1256,-3.1179,-3.1564,-3.1469,-3.127,-3.1032,-3.0881,-3.0636,-3.0215,-2.9794,-2.9287,-2.8658,-2.8643,-2.8326,-2.7674,-2.805,-2.8184,-2.807,-2.7069,-2.6374,-2.597,-2.597,-2.5731,-2.5328,-2.4942,-2.4759,-2.474,-2.4355,-2.419,-2.419,-2.419,-2.4094,-2.3937,-2.3937,-2.3522,-2.2898,-3.0398,-3.0398,-3.0398,-3.0398,-2.9752,-2.9509,-3.0283,-2.9752,-2.9529,-3.0302,-2.964,-2.9159,-2.9313,-2.7948,-2.7313,-2.8044,-2.8717,-2.9467,-3.034,-3.0398,-3.0398,-3.0398,-2.9717,-2.9256,-2.9102,-2.8448,-2.8044,-2.789,-2.8698,-2.9467,-3.016,-2.8909,-2.8679,-2.9294,-2.8467,-2.7698,-2.7005,-2.6717,-2.6178,-2.5505,-2.5412,-2.5376,-2.5391,-2.5447,-2.5463,-2.5473,-2.5473,-2.5609,-2.5927,-2.6715,-2.7089,-2.7324,-2.8066,-2.8906,-2.9609,-2.9609,-3.0215,-3.0898,-3.0898,-3.1016,-3.1309,-3.2012,-3.2305,-3.2441,-3.2598,-3.1953,-3.1758,-3.3301,-3.3589,-3.3576,-3.3732,-3.3719,-3.3595,-3.3382,-3.335,-3.3238,-3.2998,-3.2374,-3.2189,-3.2844,-3.2338,-3.2179,-3.2833,-3.2891,-3.2622,-3.1968,-3.191,-3.1525,-3.0679,-2.9948,-2.9402,-2.9084,-2.9077,-2.896,-2.8758,-2.9423,-2.9729,-2.9677,-2.7958,-2.7032,-2.6859,-2.6817,-2.6741,-2.6557,-2.5878,-2.5531,-2.5348,-2.4667,-2.4318,-2.419,-2.419,-2.419,-2.419,-2.4151,-2.3774,-2.3236,-3.0398,-3.0398,-3.0398,-3.0398,-3.0113,-3.0002,-3.0348,-3.0113,-3.0002,-3.0348,-2.964,-2.939,-3.014,-2.9352,-2.8813,-2.8929,-2.9044,-2.9467,-3.034,-3.0398,-3.0398,-3.0398,-3.0294,-2.9871,-2.9121,-2.8986,-2.8602,-2.789,-2.8698,-2.9159,-2.9294,-2.9813,-3.0121,-3.0198,-2.9313,-2.8871,-2.8659,-2.7217,-2.6524,-2.637,-2.5611,-2.5313,-2.5313,-2.5312,-2.5363,-2.5401,-2.5408,-2.5945,-2.6671,-2.6847,-2.7403,-2.8069,-2.8241,-2.8906,-2.9609,-2.9609,-3.0215,-3.0898,-3.0898,-3.1445,-3.2051,-3.2168,-3.2715,-3.3437,-3.4199,-3.3691,-3.334,-3.4316,-3.4512,-3.4746,-3.5507,-3.5572,-3.5287,-3.4527,-3.4344,-3.4043,-3.3271,-3.302,-3.2948,-3.3064,-3.2871,-3.2776,-3.2891,-3.2891,-3.2852,-3.2756,-3.2737,-3.2372,-3.1564,-3.141,-3.0994,-3.0201,-3.0182,-3.0069,-2.9798,-2.9912,-2.9877,-2.9696,-2.9417,-2.8802,-2.7902,-2.7733,-2.7255,-2.6594,-2.6484,-2.6043,-2.5403,-2.5293,-2.4814,-2.419,-2.419,-2.419,-2.417,-2.3858,-2.3714,-2.3588,-3.015,-3.0182,-3.0182,-3.0182,-3.0075,-2.9999,-3.0007,-2.9912,-2.9861,-2.9992,-2.9784,-2.9742,-3.0125,-2.9965,-2.9621,-2.914,-2.9544,-2.9987,-3.0359,-3.0398,-3.0398,-3.0398,-2.9929,-2.9486,-2.9102,-2.9102,-2.8929,-2.8563,-2.8467,-2.8659,-2.9102,-2.9486,-2.9929,-3.0359,-2.9486,-2.9102,-2.9006,-2.7832,-2.7044,-2.6563,-2.6178,-2.5726,-2.5303,-2.5303,-2.5322,-2.5415,-2.5944,-2.6396,-2.6903,-2.7897,-2.85,-2.8894,-2.9429,-2.986,-3.0206,-3.0206,-3.0544,-3.1016,-3.1484,-3.1914,-3.2422,-3.3359,-3.3867,-3.4355,-3.5234,-3.5137,-3.4961,-3.5351,-3.543,-3.5547,-3.5937,-3.5974,-3.5829,-3.5383,-3.5303,-3.5115,-3.4666,-3.4185,-3.3841,-3.3771,-3.4106,-3.4353,-3.4353,-3.4353,-3.416,-3.366,-3.3622,-3.3256,-3.2429,-3.2372,-3.1987,-3.116,-3.1141,-3.0835,-3.0241,-3.0222,-3.0182,-3.0099,-2.9943,-2.9555,-2.8989,-2.8775,-2.8503,-2.8133,-2.7521,-2.7071,-2.6667,-2.577,-2.5201,-2.4814,-2.4373,-2.419,-2.417,-2.4036,-2.3858,-2.3671]},{"header":{"parameterUnit":"m.s-1","parameterCategory":1,"la1":30.6,"la2":28.766,"lo1":-90.7593,"lo2":-88.6598,"dy":0.0162,"dx":0.0183,"nx":116,"ny":114,"refTime":"2023-03-06T06:00:00:Z","depth":0,"parameterNumber":3,"parameterNumberName":"V-component_of_WINDS"},"data":[0.0,0.0,0.0,0.0,0.0,0.0,0.0,0.0,0.0,0.0,0.0,0.0,0.0,0.0,0.0,0.0,0.0,0.0,0.0,0.0,0.0,0.0,0.0,0.0,0.0,0.0,0.0,0.0,0.0,0.0,0.0,0.0,0.0,0.0,0.0,0.0,0.0,0.0,0.0,0.0,0.0,0.0,0.0,0.0,0.0,0.0,0.0,0.0,0.0,0.0,0.0,0.0,0.0,0.0,0.0,0.0,0.0,0.0,0.0,0.0,0.0,0.0,0.0,0.0,0.0,0.0,0.0,0.0,0.0,0.0,0.0,0.0,0.0,0.0,0.0,0.0,0.0,0.0,0.0,0.0,0.0,0.0,0.0,0.0,0.0,0.0,0.0,0.0,0.0,0.0,0.0,0.0,0.0,0.0,0.0,0.0,0.0,0.0,0.0,0.0,0.0,0.0,0.0,0.0,0.0,0.0,0.0,0.0,0.0,0.0,0.0,0.0,0.0,0.0,0.0,0.0,0.0,0.0,0.0,0.0,0.0,0.0,0.0,0.0,0.0,0.0,0.0,0.0,0.0,0.0,0.0,0.0,0.0,0.0,0.0,0.0,0.0,0.0,0.0,0.0,0.0,0.0,0.0,0.0,0.0,0.0,0.0,0.0,0.0,0.0,0.0,0.0,0.0,0.0,0.0,0.0,0.0,0.0,0.0,0.0,0.0,0.0,0.0,0.0,0.0,0.0,0.0,0.0,0.0,0.0,0.0,0.0,0.0,0.0,0.0,0.0,0.0,0.0,0.0,0.0,0.0,0.0,0.0,0.0,0.0,0.0,0.0,0.0,0.0,0.0,0.0,0.0,0.0,0.0,0.0,0.0,0.0,0.0,0.0,0.0,0.0,0.0,0.0,0.0,0.0,0.0,0.0,0.0,0.0,0.0,0.0,0.0,0.0,0.0,0.0,0.0,0.0,0.0,0.0,0.0,0.0,0.0,0.0,0.0,0.0,0.0,0.0,0.0,0.0,0.0,0.0,0.0,0.0,0.0,0.0,0.0,0.0,0.0,0.0,0.0,0.0,0.0,0.0,0.0,0.0,0.0,0.0,0.0,0.0,0.0,0.0,0.0,0.0,0.0,0.0,0.0,0.0,0.0,0.0,0.0,0.0,0.0,0.0,0.0,0.0,0.0,0.0,0.0,0.0,0.0,0.0,0.0,0.0,0.0,0.0,0.0,0.0,0.0,0.0,0.0,0.0,0.0,0.0,0.0,0.0,0.0,0.0,0.0,0.0,0.0,0.0,0.0,0.0,0.0,0.0,0.0,0.0,0.0,0.0,0.0,0.0,0.0,0.0,0.0,0.0,0.0,0.0,0.0,0.0,0.0,0.0,0.0,0.0,0.0,0.0,0.0,0.0,0.0,0.0,0.0,0.0,0.0,0.0,0.0,0.0,0.0,0.0,0.0,0.0,0.0,0.0,0.0,0.0,0.0,0.0,0.0,0.0,0.0,0.0,0.0,0.0,0.0,0.0,0.0,0.0,0.0,0.0,0.0,0.0,0.0,0.0,0.0,0.0,0.0,0.0,0.0,0.0,0.0,0.0,0.0,0.0,0.0,0.0,0.0,0.0,0.0,0.0,0.0,0.0,0.0,0.0,0.0,0.0,0.0,0.0,0.0,0.0,0.0,0.0,0.0,0.0,0.0,0.0,0.0,0.0,0.0,0.0,0.0,0.0,0.0,0.0,0.0,0.0,0.0,0.0,0.0,0.0,0.0,0.0,0.0,0.0,0.0,0.0,0.0,0.0,0.0,0.0,0.0,0.0,0.0,0.0,0.0,0.0,0.0,0.0,0.0,0.0,0.0,0.0,0.0,0.0,0.0,0.0,0.0,0.0,0.0,0.0,0.0,0.0,0.0,0.0,0.0,0.0,0.0,0.0,0.0,0.0,0.0,0.0,0.0,0.0,0.0,0.0,0.0,0.0,0.0,0.0,0.0,0.0,0.0,0.0,0.0,0.0,0.0,0.0,0.0,0.0,0.0,0.0,0.0,0.0,0.0,0.0,0.0,0.0,0.0,0.0,0.0,0.0,0.0,0.0,0.0,0.0,0.0,0.0,0.0,0.0,0.0,0.0,0.0,0.0,0.0,0.0,0.0,0.0,0.0,0.0,0.0,0.0,0.0,0.0,0.0,0.0,0.0,0.0,0.0,0.0,0.0,0.0,0.0,0.0,0.0,0.0,0.0,0.0,0.0,0.0,0.0,0.0,0.0,0.0,0.0,0.0,0.0,0.0,0.0,0.0,0.0,0.0,0.0,0.0,0.0,0.0,0.0,0.0,0.0,0.0,0.0,0.0,0.0,0.0,0.0,0.0,0.0,0.0,0.0,0.0,0.0,0.0,0.0,0.0,0.0,0.0,0.0,0.0,0.0,0.0,0.0,0.0,0.0,0.0,0.0,0.0,0.0,0.0,0.0,0.0,0.0,0.0,0.0,0.0,0.0,0.0,0.0,0.0,0.0,0.0,0.0,0.0,0.0,0.0,0.0,0.0,0.0,0.0,0.0,0.0,0.0,0.0,0.0,0.0,0.0,0.0,0.0,0.0,0.0,0.0,0.0,0.0,0.0,0.0,0.0,0.0,0.0,0.0,0.0,0.0,0.0,0.0,0.0,0.0,0.0,0.0,0.0,0.0,0.0,0.0,0.0,0.0,0.0,0.0,0.0,0.0,0.0,0.0,0.0,0.0,0.0,0.0,0.0,0.0,0.0,0.0,0.0,0.0,0.0,0.0,0.0,0.0,0.0,0.0,0.0,0.0,0.0,0.0,0.0,0.0,0.0,0.0,0.0,0.0,0.0,0.0,0.0,0.0,0.0,0.0,0.0,0.0,0.0,0.0,0.0,0.0,0.0,0.0,0.0,0.0,0.0,0.0,0.0,0.0,0.0,0.0,0.0,0.0,0.0,0.0,0.0,0.0,0.0,0.0,0.0,0.0,0.0,0.0,0.0,0.0,0.0,0.0,0.0,0.0,0.0,0.0,0.0,0.0,0.0,0.0,0.0,0.0,0.0,0.0,0.0,0.0,0.0,0.0,0.0,0.0,0.0,0.0,0.0,0.0,0.0,0.0,0.0,0.0,0.0,0.0,0.0,0.0,0.0,0.0,0.0,0.0,0.0,0.0,0.0,0.0,0.0,0.0,0.0,0.0,0.0,0.0,0.0,0.0,0.0,0.0,0.0,0.0,0.0,0.0,0.0,0.0,0.0,0.0,0.0,0.0,0.0,0.0,0.0,0.0,0.0,0.0,0.0,0.0,0.0,0.0,0.0,0.0,0.0,0.0,0.0,0.0,0.0,0.0,0.0,0.0,0.0,0.0,0.0,0.0,0.0,0.0,0.0,0.0,0.0,0.0,0.0,0.0,0.0,0.0,0.0,0.0,0.0,0.0,0.0,0.0,0.0,0.0,0.0,0.0,0.0,0.0,0.0,0.0,0.0,0.0,0.0,0.0,0.0,0.0,0.0,0.0,0.0,0.0,0.0,0.0,0.0,0.0,0.0,0.0,0.0,0.0,0.0,0.0,0.0,0.0,0.0,0.0,0.0,0.0,0.0,0.0,0.0,0.0,0.0,0.0,0.0,0.0,0.0,0.0,0.0,0.0,0.0,0.0,0.0,0.0,0.0,0.0,0.0,0.0,0.0,0.0,0.0,0.0,0.0,0.0,0.0,0.0,0.0,0.0,0.0,0.0,0.0,0.0,0.0,0.0,0.0,0.0,0.0,0.0,0.0,0.0,0.0,0.0,0.0,0.0,0.0,0.0,0.0,0.0,0.0,0.0,0.0,0.0,0.0,0.0,0.0,0.0,0.0,0.0,0.0,0.0,0.0,0.0,0.0,0.0,0.0,0.0,0.0,0.0,0.0,0.0,0.0,0.0,0.0,0.0,0.0,0.0,0.0,0.0,0.0,0.0,0.0,0.0,0.0,0.0,0.0,0.0,0.0,0.0,0.0,0.0,0.0,0.0,0.0,0.0,0.0,0.0,0.0,0.0,0.0,0.0,0.0,0.0,0.0,0.0,0.0,0.0,0.0,0.0,0.0,0.0,0.0,0.0,0.0,0.0,0.0,0.0,0.0,0.0,0.0,0.0,0.0,0.0,0.0,0.0,0.0,0.0,0.0,0.0,0.0,0.0,0.0,0.0,0.0,0.0,0.0,0.0,0.0,0.0,0.0,0.0,0.0,0.0,0.0,0.0,0.0,0.0,0.0,0.0,0.0,0.0,0.0,0.0,0.0,0.0,0.0,0.0,0.0,0.0,0.0,0.0,0.0,0.0,0.0,0.0,0.0,0.0,0.0,0.0,0.0,0.0,0.0,0.0,0.0,0.0,0.0,0.0,0.0,0.0,0.0,0.0,0.0,0.0,0.0,0.0,0.0,0.0,0.0,0.0,0.0,0.0,0.0,0.0,0.0,0.0,0.0,0.0,0.0,0.0,0.0,0.0,0.0,0.0,0.0,0.0,0.0,0.0,0.0,0.0,0.0,0.0,0.0,0.0,0.0,0.0,0.0,0.0,0.0,0.0,0.0,0.0,0.0,0.0,0.0,0.0,0.0,0.0,0.0,0.0,0.0,0.0,0.0,0.0,0.0,0.0,0.0,0.0,0.0,0.0,0.0,0.0,0.0,0.0,0.0,0.0,0.0,0.0,0.0,0.0,0.0,0.0,0.0,0.0,0.0,0.0,0.0,0.0,0.0,0.0,0.0,0.0,0.0,0.0,0.0,0.0,0.0,0.0,0.0,0.0,0.0,0.0,0.0,0.0,0.0,0.0,0.0,0.0,0.0,0.0,0.0,0.0,0.0,0.0,0.0,0.0,0.0,0.0,0.0,0.0,0.0,0.0,0.0,0.0,0.0,0.0,0.0,0.0,0.0,0.0,0.0,0.0,0.0,0.0,0.0,0.0,0.0,0.0,0.0,0.0,0.0,0.0,0.0,0.0,0.0,0.0,0.0,0.0,0.0,0.0,0.0,0.0,0.0,0.0,0.0,0.0,0.0,0.0,0.0,0.0,0.0,0.0,0.0,0.0,0.0,0.0,0.0,0.0,0.0,0.0,0.0,0.0,0.0,0.0,0.0,0.0,0.0,0.0,0.0,0.0,0.0,0.0,0.0,0.0,0.0,0.0,0.0,0.0,0.0,0.0,0.0,0.0,0.0,0.0,0.0,0.0,0.0,0.0,0.0,0.0,0.0,0.0,0.0,0.0,0.0,0.0,0.0,0.0,0.0,0.0,0.0,0.0,0.0,0.0,0.0,0.0,0.0,0.0,0.0,0.0,0.0,0.0,0.0,0.0,0.0,0.0,0.0,0.0,0.0,0.0,0.0,0.0,0.0,0.0,0.0,0.0,0.0,0.0,0.0,0.0,0.0,0.0,0.0,0.0,0.0,0.0,0.0,0.0,0.0,0.0,0.0,0.0,0.0,0.0,0.0,0.0,0.0,0.0,0.0,0.0,0.0,0.0,0.0,0.0,0.0,0.0,0.0,0.0,0.0,0.0,0.0,0.0,0.0,0.0,0.0,0.0,0.0,0.0,0.0,0.0,0.0,0.0,0.0,0.0,0.0,0.0,0.0,0.0,0.0,0.0,0.0,0.0,0.0,0.0,0.0,0.0,0.0,0.0,0.0,0.0,0.0,0.0,0.0,0.0,0.0,0.0,0.0,0.0,0.0,0.0,0.0,0.0,0.0,0.0,0.0,0.0,0.0,0.0,0.0,0.0,0.0,0.0,0.0,0.0,0.0,0.0,0.0,0.0,0.0,0.0,0.0,0.0,0.0,0.0,0.0,0.0,0.0,0.0,0.0,0.0,0.0,0.0,0.0,0.0,0.0,0.0,0.0,0.0,0.0,0.0,0.0,0.0,0.0,0.0,0.0,0.0,0.0,0.0,0.0,0.0,0.0,0.0,0.0,0.0,0.0,0.0,0.0,0.0,0.0,0.0,0.0,0.0,0.0,0.0,0.0,0.0,0.0,0.0,0.0,0.0,0.0,0.0,0.0,0.0,0.0,0.0,0.0,0.0,0.0,0.0,0.0,0.0,0.0,0.0,0.0,0.0,0.0,0.0,0.0,-1.502,0.0,0.0,0.0,0.0,0.0,0.0,0.0,0.0,0.0,0.0,0.0,0.0,0.0,0.0,0.0,0.0,0.0,0.0,0.0,0.0,0.0,0.0,0.0,0.0,0.0,0.0,0.0,0.0,0.0,0.0,0.0,0.0,0.0,0.0,0.0,0.0,0.0,0.0,0.0,0.0,0.0,0.0,0.0,0.0,0.0,0.0,0.0,0.0,0.0,0.0,0.0,0.0,0.0,0.0,0.0,0.0,0.0,0.0,0.0,0.0,0.0,0.0,0.0,0.0,0.0,0.0,0.0,0.0,0.0,0.0,0.0,0.0,0.0,0.0,0.0,0.0,0.0,0.0,0.0,0.0,0.0,0.0,0.0,0.0,0.0,0.0,0.0,0.0,0.0,0.0,0.0,0.0,0.0,0.0,0.0,0.0,0.0,0.0,0.0,0.0,0.0,0.0,0.0,0.0,0.0,0.0,0.0,0.0,0.0,0.0,0.0,0.0,0.0,0.0,0.0,0.0,-1.5266,0.0,0.0,0.0,0.0,0.0,0.0,0.0,0.0,0.0,0.0,0.0,0.0,0.0,0.0,0.0,0.0,0.0,0.0,0.0,0.0,0.0,0.0,0.0,0.0,0.0,0.0,0.0,0.0,0.0,0.0,0.0,0.0,0.0,0.0,0.0,0.0,0.0,0.0,0.0,0.0,0.0,0.0,0.0,0.0,0.0,0.0,0.0,0.0,0.0,0.0,0.0,0.0,0.0,0.0,0.0,0.0,0.0,0.0,0.0,0.0,0.0,0.0,0.0,0.0,0.0,0.0,0.0,0.0,0.0,0.0,0.0,0.0,0.0,0.0,0.0,0.0,0.0,0.0,0.0,0.0,0.0,0.0,0.0,0.0,0.0,0.0,0.0,0.0,0.0,0.0,0.0,0.0,0.0,0.0,0.0,0.0,0.0,0.0,0.0,0.0,0.0,0.0,0.0,0.0,0.0,0.0,0.0,0.0,-1.4683,-1.4756,-1.4792,-1.5499,-1.6242,-1.6958,-1.6022,-1.6038,-1.6833,-1.7702,0.0,0.0,0.0,0.0,0.0,0.0,0.0,0.0,0.0,0.0,0.0,0.0,0.0,0.0,0.0,0.0,0.0,0.0,0.0,0.0,0.0,0.0,0.0,0.0,0.0,0.0,0.0,0.0,0.0,0.0,0.0,0.0,0.0,0.0,0.0,0.0,0.0,0.0,-1.4408,-1.5094,-1.5725,-1.6278,0.0,0.0,0.0,0.0,0.0,0.0,0.0,0.0,0.0,0.0,0.0,0.0,0.0,0.0,0.0,0.0,0.0,0.0,0.0,0.0,0.0,0.0,0.0,0.0,0.0,0.0,0.0,0.0,0.0,0.0,0.0,0.0,0.0,0.0,0.0,0.0,0.0,0.0,0.0,0.0,0.0,0.0,0.0,0.0,-1.3937,-1.7405,0.0,0.0,0.0,0.0,0.0,0.0,0.0,0.0,0.0,0.0,0.0,0.0,0.0,-1.4188,-1.4188,-1.4544,-1.4738,-1.4771,-1.5468,-1.5801,-1.5818,-1.6155,-1.6717,-1.7379,-1.6733,0.0,-1.7892,-1.786,0.0,0.0,0.0,0.0,0.0,0.0,0.0,0.0,0.0,0.0,0.0,0.0,0.0,0.0,0.0,0.0,0.0,0.0,0.0,0.0,0.0,0.0,0.0,0.0,0.0,0.0,0.0,0.0,0.0,0.0,0.0,0.0,0.0,0.0,0.0,0.0,-1.3525,-1.4333,-1.5379,-1.6009,-1.6443,-1.6697,-1.6502,-1.6517,-1.6697,-1.6413,0.0,0.0,0.0,0.0,0.0,0.0,0.0,0.0,0.0,0.0,0.0,0.0,0.0,0.0,0.0,0.0,0.0,0.0,0.0,0.0,0.0,0.0,0.0,0.0,0.0,0.0,0.0,0.0,0.0,0.0,0.0,0.0,0.0,0.0,0.0,0.0,0.0,0.0,0.0,-1.49,-1.5663,-1.683,-1.7696,-1.7838,0.0,0.0,0.0,0.0,0.0,0.0,0.0,0.0,0.0,-1.4662,-1.4684,-1.4913,-1.538,-1.5655,-1.588,-1.5989,-1.6794,-1.6938,-1.6561,-1.8039,-1.8631,-1.8542,-1.9221,-1.9502,-1.9366,-1.8389,-1.802,-1.8188,0.0,0.0,0.0,0.0,-1.9583,-1.9968,0.0,0.0,0.0,0.0,0.0,0.0,0.0,0.0,0.0,0.0,0.0,0.0,0.0,0.0,0.0,-1.0571,0.0,0.0,0.0,0.0,0.0,0.0,0.0,0.0,0.0,0.0,0.0,0.0,-1.4558,-1.5396,-1.6563,-1.7191,-1.7458,-1.7488,-1.7981,-1.7897,-1.7378,-1.7,-1.7049,0.0,0.0,0.0,0.0,0.0,0.0,0.0,0.0,0.0,0.0,0.0,0.0,0.0,0.0,0.0,0.0,0.0,0.0,0.0,0.0,0.0,0.0,0.0,0.0,0.0,0.0,0.0,0.0,0.0,0.0,0.0,0.0,0.0,0.0,0.0,0.0,0.0,0.0,-1.593,-1.7456,-1.6509,-1.7285,-1.7374,0.0,0.0,0.0,0.0,0.0,0.0,-1.455,-1.4898,-1.5189,-1.5338,-1.5772,-1.6178,-1.6586,-1.6992,-1.7272,-1.7421,-1.8379,-1.8499,-1.799,-1.9941,-2.0519,-2.0021,-2.127,-2.1418,-2.0721,-1.9308,-1.8592,-1.8463,-1.9069,-1.9305,-1.9308,-1.9528,-1.9987,-2.0521,0.0,0.0,0.0,0.0,0.0,0.0,0.0,0.0,0.0,0.0,0.0,0.0,0.0,0.0,-1.1738,-1.2241,-1.1889,-1.1618,0.0,0.0,0.0,0.0,0.0,0.0,0.0,0.0,0.0,-1.4737,-1.6608,-1.7847,-1.8568,-1.9226,-1.954,-1.954,-1.957,-1.9489,-1.9167,-1.7836,-1.7854,-1.8671,0.0,0.0,0.0,0.0,0.0,0.0,0.0,0.0,0.0,0.0,0.0,0.0,0.0,0.0,0.0,0.0,0.0,0.0,0.0,0.0,0.0,0.0,0.0,0.0,0.0,0.0,0.0,0.0,0.0,0.0,0.0,0.0,0.0,0.0,0.0,0.0,0.0,0.0,0.0,-1.6783,-1.6944,0.0,0.0,0.0,0.0,-1.5605,-1.6063,-1.6314,-1.6179,-1.7082,-1.7358,-1.6812,-1.7841,-1.8072,-1.7347,-1.8306,-1.8795,-1.8818,-2.0127,-2.0735,-2.072,-2.1425,-2.1711,-2.1692,-2.1766,-2.1784,-2.1657,-2.0758,-1.9932,-1.9234,-1.9271,-1.9305,-1.9381,-2.017,-2.0466,-2.0613,0.0,0.0,0.0,0.0,0.0,0.0,0.0,0.0,0.0,0.0,0.0,0.0,0.0,-1.2102,-1.273,-1.2885,-1.3238,-1.3116,-1.225,0.0,0.0,0.0,0.0,0.0,0.0,0.0,-1.4516,-1.601,-1.7145,-1.8268,-1.9346,-1.957,-1.969,-1.969,-1.969,-1.9808,-1.9911,-1.8722,-1.8223,-1.8163,-1.7641,-1.787,0.0,0.0,0.0,0.0,0.0,0.0,0.0,0.0,0.0,0.0,0.0,0.0,0.0,0.0,0.0,0.0,0.0,0.0,0.0,0.0,0.0,0.0,0.0,0.0,0.0,0.0,0.0,0.0,0.0,0.0,0.0,0.0,0.0,0.0,0.0,0.0,0.0,-1.68,-1.7207,0.0,-1.5966,-1.6463,-1.6869,-1.6887,-1.6976,-1.7188,-1.757,-1.8038,-1.8378,-1.8499,-1.929,-1.9776,-1.9974,-2.0511,-2.0662,-2.046,-2.1668,-2.1756,-2.0884,-2.2588,-2.2941,-2.2277,-2.2805,-2.2732,-2.2222,-2.1932,-2.1443,-2.0921,-2.0921,-2.0921,-2.0939,-2.1216,-2.1657,-2.2135,0.0,0.0,0.0,0.0,0.0,0.0,0.0,0.0,0.0,0.0,0.0,-1.1224,-1.1801,-1.3019,-1.3745,-1.3661,-1.3998,-1.3631,-1.2251,0.0,0.0,0.0,0.0,0.0,0.0,-1.4229,-1.5517,-1.704,-1.7921,-1.8837,-1.969,-1.969,-1.969,-1.969,-1.969,-1.9839,-2.0058,-1.9351,-1.8917,-1.8679,-1.8156,-1.848,-1.914,0.0,0.0,0.0,0.0,0.0,0.0,0.0,0.0,0.0,0.0,0.0,0.0,0.0,0.0,0.0,0.0,0.0,0.0,0.0,0.0,0.0,0.0,0.0,0.0,0.0,0.0,0.0,0.0,0.0,0.0,0.0,0.0,0.0,0.0,0.0,-1.7625,-1.7117,-1.7599,-1.762,-1.6706,-1.7151,-1.7648,-1.8009,-1.814,-1.8494,-1.9149,-1.9749,-2.0113,-2.0207,-2.0902,-2.1394,-2.1606,-2.1852,-2.1896,-2.1775,-2.2643,-2.2607,-2.1832,-2.3464,-2.3781,-2.3093,-2.364,-2.3567,-2.3075,-2.3075,-2.2902,-2.2574,-2.2023,-2.1803,-2.1839,-2.2097,-2.2538,-2.3052,0.0,0.0,0.0,0.0,0.0,0.0,0.0,0.0,0.0,0.0,-1.0685,-1.1801,-1.2379,-1.3873,-1.4777,-1.4534,-1.3981,-1.3058,-1.1615,-1.0804,0.0,0.0,0.0,0.0,-1.381,-1.5741,-1.707,-1.7727,-1.9046,-1.969,-1.969,-1.969,-1.969,-1.969,-1.9705,-1.9705,-1.969,-1.9735,-2.0055,-2.043,-1.8936,-1.9007,-1.9833,0.0,0.0,0.0,0.0,0.0,0.0,0.0,0.0,0.0,0.0,0.0,0.0,0.0,0.0,0.0,0.0,0.0,0.0,0.0,0.0,0.0,0.0,0.0,0.0,0.0,0.0,0.0,0.0,0.0,0.0,0.0,0.0,0.0,-1.8048,-1.7862,-1.7879,-1.7879,-1.8168,-1.8236,-1.7946,-1.8194,-1.8568,-1.9005,-1.9538,-2.0185,-2.0926,-2.2257,-2.263,-2.186,-2.2715,-2.2835,-2.2046,-2.2237,-2.2463,-2.2695,-2.3045,-2.3369,-2.3671,-2.4016,-2.417,-2.4151,-2.417,-2.417,-2.417,-2.417,-2.417,-2.4043,-2.2483,-2.1876,-2.1986,-2.2758,-2.3052,-2.3162,0.0,0.0,0.0,0.0,0.0,0.0,0.0,0.0,0.0,0.0,-1.0828,-1.1952,-1.2872,-1.376,-1.4524,-1.5114,-1.3697,-1.2507,-1.1899,0.0,0.0,0.0,0.0,0.0,-1.4498,-1.6413,-1.7742,-1.8433,-1.9271,-1.969,-1.969,-1.969,-1.969,-1.9705,-2.0213,-2.0154,-1.975,-2.0722,-2.1358,-2.1536,-2.0042,-1.9488,-1.9555,0.0,0.0,0.0,0.0,0.0,0.0,0.0,0.0,0.0,0.0,0.0,0.0,0.0,0.0,0.0,0.0,0.0,0.0,0.0,0.0,0.0,0.0,0.0,0.0,0.0,0.0,0.0,0.0,0.0,0.0,0.0,0.0,-1.9063,-1.8657,-1.9063,-1.9393,-1.9393,-1.9474,-1.967,-2.0018,-2.0125,-2.0649,-2.1776,-2.1586,-2.1733,-2.2516,-2.2717,-2.2688,-2.2459,-2.316,-2.3348,-2.2888,-2.3165,-2.3111,-2.2695,-2.3045,-2.3032,-2.2703,-2.3248,-2.3346,-2.3117,-2.3369,-2.3459,-2.3482,-2.3753,-2.3837,-2.3821,-2.3618,-2.3529,-2.3566,-2.3786,-2.3878,-2.3896,0.0,0.0,0.0,0.0,0.0,0.0,0.0,0.0,0.0,0.0,-1.1086,-1.2178,-1.2785,-1.3619,-1.4078,-1.3994,-1.2784,-1.1609,-1.0611,0.0,0.0,0.0,0.0,-1.3959,-1.5575,-1.7234,-1.8463,-1.9121,-1.9495,-1.969,-1.969,-1.969,-1.9839,-2.0124,-2.0228,-2.0378,-2.0595,-2.1319,-2.1837,-2.2176,-2.1746,-2.1417,-2.1138,-2.0456,-2.0279,-2.0372,-2.0212,-2.0461,-2.0883,-2.0811,0.0,0.0,0.0,0.0,0.0,0.0,0.0,0.0,0.0,0.0,0.0,0.0,0.0,0.0,0.0,0.0,0.0,0.0,0.0,0.0,0.0,0.0,0.0,0.0,-1.9722,-1.9841,-1.9841,-1.9942,-2.0154,-2.0636,-2.0653,-2.0946,-2.1581,-2.1662,-2.1942,-2.2642,-2.2459,-2.2546,-2.3171,-2.3141,-2.3117,-2.3117,-2.3369,-2.3346,-2.2996,-2.308,-2.2965,-2.2695,-2.3045,-2.3087,-2.29,-2.3387,-2.3455,0.0,-2.3459,-2.3544,-2.3455,-2.3774,-2.3917,0.0,0.0,0.0,0.0,0.0,-2.419,-2.419,0.0,0.0,0.0,0.0,0.0,0.0,0.0,0.0,0.0,0.0,0.0,-1.2241,-1.2316,-1.3229,-1.3302,-1.2036,-1.1536,-1.0509,0.0,0.0,0.0,-1.0857,-1.2912,-1.486,-1.6667,-1.8104,-1.9091,-1.969,-1.969,-1.969,-1.969,-1.969,-2.0049,-2.0692,-2.0154,-2.0572,-2.1704,-2.1719,-2.2102,-2.2801,-2.3543,-2.3802,-2.3506,-2.1582,-2.1028,-2.1215,-2.1176,-2.0938,-2.071,-2.0977,0.0,0.0,0.0,0.0,0.0,0.0,0.0,0.0,0.0,0.0,0.0,0.0,0.0,0.0,0.0,0.0,0.0,0.0,0.0,0.0,0.0,0.0,0.0,0.0,-2.0297,-2.1271,-2.1424,-2.0771,-2.0603,-2.1581,-2.1675,-2.196,-2.2626,-2.2746,-2.2678,-2.247,-2.2625,-2.2898,-2.3189,0.0,0.0,0.0,0.0,-2.2996,-2.266,-2.2436,-2.2436,-2.266,-2.2965,-2.3253,-2.3562,-2.3855,-2.3834,-2.3562,-2.3896,-2.3876,-2.3628,-2.3996,-2.417,-2.419,-2.419,-2.419,-2.419,-2.419,-2.419,-2.419,0.0,0.0,0.0,0.0,0.0,0.0,0.0,0.0,0.0,-0.9816,-1.0571,-1.1194,-1.1688,-1.1939,-1.189,-1.1397,-1.055,-0.9702,0.0,0.0,-1.0787,-1.158,-1.4034,-1.5815,-1.6697,-1.8553,-1.9555,-1.969,-1.969,-1.969,-1.969,-1.969,-2.0049,-2.0737,-2.1126,-2.1455,-2.1754,-2.2776,-2.3813,-2.4659,-2.3822,-2.3635,-2.3803,-2.3276,-2.3112,-2.2981,-2.1488,-2.1263,-2.1553,-2.0505,-2.0505,-2.1004,-2.1549,0.0,0.0,0.0,0.0,0.0,0.0,0.0,0.0,0.0,0.0,0.0,0.0,0.0,0.0,0.0,0.0,0.0,0.0,0.0,0.0,-2.0594,-2.1017,-2.1627,-2.2801,-2.2327,-2.1921,-2.2139,-2.2139,-2.231,-2.2669,-2.2947,-2.3189,-2.341,-2.323,-2.3117,-2.3189,-2.2798,-2.2561,-2.2561,-2.273,-2.2678,-2.2388,-2.2537,-2.2537,-2.2388,0.0,0.0,-2.2561,-2.2642,-2.2642,-2.2588,-2.2865,-2.2989,-2.3025,-2.3562,-2.3955,-2.419,-2.419,-2.419,-2.419,-2.419,-2.419,-2.419,0.0,0.0,0.0,0.0,0.0,0.0,0.0,0.0,0.0,0.0,-1.0383,-1.0806,-1.1123,-1.1161,-1.0979,-1.0585,-0.9857,0.0,0.0,-1.0593,-1.176,-1.2762,-1.5022,-1.6712,-1.7667,-1.9016,-1.969,-1.969,-1.969,-1.969,-1.969,-1.969,-2.0228,-2.1201,-2.1201,-2.1739,-2.2709,-2.3243,-2.3999,-2.4839,-2.4761,-2.4794,-2.4891,-2.4496,-2.4177,-2.3856,-2.3124,-2.2504,-2.2,-2.1859,-2.1311,-2.0877,-2.2118,-2.1708,-2.0796,0.0,0.0,0.0,0.0,0.0,0.0,0.0,0.0,0.0,0.0,0.0,0.0,0.0,0.0,-1.957,0.0,0.0,-2.0416,-2.1566,-2.2057,-2.2682,-2.3782,-2.3308,-2.2909,-2.3089,-2.2757,-2.2563,-2.2695,-2.2848,-2.2947,-2.3,-2.2849,-2.2807,-2.2947,-2.2652,-2.25,-2.25,-2.2634,-2.2573,-2.231,-2.2409,-2.2426,-2.231,-2.2453,-2.25,-2.25,-2.2669,-2.266,-2.2527,-2.2815,-2.2965,-2.3056,-2.3689,-2.3937,-2.3976,-2.4133,-2.419,-2.419,-2.419,-2.419,-2.419,0.0,0.0,0.0,0.0,0.0,0.0,0.0,0.0,0.0,0.0,0.0,-1.0516,-1.0448,-1.0516,-1.0345,0.0,0.0,0.0,0.0,-1.1359,-1.2673,-1.3765,-1.5786,-1.7399,-1.8493,-1.9286,-1.969,-1.969,-1.969,-1.969,-1.969,-1.969,-2.0333,-2.1485,-2.1081,-2.1844,-2.3428,-2.3448,-2.3891,-2.4698,-2.54,-2.5897,-2.6129,-2.5289,-2.4781,-2.4523,-2.4498,-2.345,-2.2179,-2.2916,-2.1873,-2.0571,-2.2441,-2.2068,-2.0904,-2.0954,-2.1295,0.0,0.0,0.0,0.0,0.0,0.0,0.0,0.0,0.0,-1.9866,-1.9435,-1.9705,-2.0086,-2.039,-2.0856,-2.1431,-2.2192,-2.2801,-2.3427,-2.4171,-2.3646,-2.334,-2.3743,-2.3108,-2.2608,-2.2608,-2.2669,-2.2625,-2.2371,-2.2388,-2.2463,-2.2695,-2.266,-2.2608,-2.2608,-2.2608,-2.2527,-2.231,-2.231,-2.231,-2.231,-2.2527,-2.2608,-2.2634,-2.289,-2.289,-2.2634,-2.2915,-2.3063,-2.3141,-2.3692,-2.3795,-2.3649,-2.3976,-2.4094,-2.4113,-2.417,-2.419,-2.4226,0.0,0.0,0.0,0.0,0.0,0.0,0.0,0.0,0.0,0.0,0.0,0.0,0.0,0.0,0.0,0.0,0.0,0.0,0.0,-1.2384,-1.3645,-1.3795,-1.6219,-1.7652,-1.7802,-1.9046,-1.969,-1.969,-1.969,-1.969,-1.969,-1.969,-2.0094,-2.0842,-2.1365,-2.2039,-2.2843,-2.3366,-2.4265,-2.5341,-2.4801,-2.555,-2.6838,-2.5384,-2.5234,-2.5573,-2.3877,-2.2753,-2.1917,-2.1472,-2.0687,-2.0176,-2.1423,-2.1233,-2.0508,-2.0219,0.0,-1.9232,-1.9063,-1.908,-1.9283,-1.9849,-1.9587,-1.9469,0.0,0.0,-2.017,-2.0805,-2.045,-2.0424,-2.1803,-2.1583,-2.1431,-2.2192,-2.2378,-2.2682,-2.341,-2.2885,-2.2665,-2.3367,-2.2807,-2.2349,-2.2349,-2.2563,-2.2695,-2.266,-2.266,-2.2686,-2.2695,-2.249,-2.2349,-2.2349,-2.2349,-2.2321,-2.231,-2.231,-2.231,-2.231,-2.2321,-2.2349,-2.2349,-2.236,-2.2377,-2.2349,-2.236,-2.2527,-2.2772,-2.2848,-2.3021,-2.33,-2.3628,-2.3774,-2.3795,-2.4094,-2.419,-2.43,0.0,0.0,0.0,0.0,0.0,0.0,0.0,0.0,0.0,0.0,0.0,0.0,0.0,0.0,0.0,0.0,0.0,0.0,-1.0878,-1.2556,-1.3764,-1.4363,-1.6502,-1.7876,-1.8283,-1.9211,-1.969,-1.969,-1.969,-1.969,-1.969,-1.969,-2.0258,-2.1291,-2.1575,-2.2263,-2.3236,-2.349,-2.3917,-2.4432,-2.4837,-2.5131,-2.5362,-2.537,-2.4745,-2.3696,-2.2573,-2.1713,0.0,0.0,-1.9979,-1.9395,-2.0903,-2.0948,-2.0311,-1.958,-1.9773,0.0,-1.9672,-1.9529,-1.9621,-1.9917,-2.045,-2.1059,-2.1684,-2.1921,-2.2073,-2.2395,-2.2209,-2.2192,-2.2818,-2.2344,-2.2073,0.0,-2.2936,-2.319,-2.3934,-2.341,-2.3054,-2.3359,-2.275,-2.231,-2.231,-2.2721,-2.284,-2.2473,-2.2856,-2.3095,-2.3095,-2.3005,-2.2936,-2.2936,-2.253,-2.231,-2.231,-2.231,-2.253,-2.2936,-2.2513,-2.253,-2.2936,-2.2513,-2.231,-2.231,-2.2463,-2.25,-2.2473,-2.284,-2.2989,-2.3025,-2.35,-2.3692,-2.3735,-2.4074,-2.4502,-2.4962,0.0,0.0,0.0,0.0,0.0,0.0,0.0,0.0,0.0,0.0,0.0,0.0,0.0,0.0,0.0,0.0,0.0,0.0,0.0,-1.2291,-1.3359,-1.4068,-1.6234,0.0,-1.8149,-1.9166,-1.969,-1.969,-1.969,-1.969,-1.969,-1.969,-2.0213,-2.1156,-2.1335,-2.2039,-2.3086,-2.3266,-2.3445,-2.3668,-2.4356,-2.4337,-2.3941,-2.4019,-2.3063,-2.1673,-2.1483,-2.0825,0.0,0.0,-1.9404,-1.8929,-2.0418,-2.0609,-2.0158,-1.942,-2.0145,-2.1,-1.9976,-2.0154,-2.0627,-2.0627,-2.1786,-2.2919,-2.2919,-2.3477,-2.3951,-2.3748,-2.3528,-2.3393,-2.3393,-2.2801,-2.2479,-2.3004,-2.3105,-2.3274,-2.3816,-2.3427,-2.3105,-2.3105,-2.2683,-2.2388,-2.231,-2.2686,-2.2859,-2.2609,-2.3105,-2.3477,-2.368,-2.3697,-2.3697,-2.3697,-2.2987,-2.2615,-2.2615,-2.2615,-2.2784,-2.3088,-2.2767,-2.2784,-2.3071,-2.2547,-2.231,-2.231,-2.25,-2.249,-2.2338,-2.2998,-2.3137,-2.3041,-2.3638,-2.3867,-2.3929,-2.4383,-2.4887,-2.5439,0.0,0.0,0.0,0.0,0.0,0.0,0.0,0.0,0.0,0.0,0.0,0.0,0.0,0.0,0.0,0.0,0.0,0.0,0.0,-1.1633,-1.2347,-1.2375,-1.5181,-1.6756,-1.6771,-1.8687,-1.969,-1.969,-1.969,-1.969,-1.969,-1.969,-1.9705,-1.9779,-2.0438,-2.1111,-2.1799,-2.2428,-2.3056,-2.355,-2.3008,-2.3036,-2.3126,-2.0569,-1.9846,-2.0267,-2.096,0.0,0.0,0.0,-1.892,-1.9022,-1.9782,-2.0035,0.0,-1.9985,-2.0551,0.0,0.0,-2.0551,-2.2243,-2.2243,-2.3342,-2.4438,-2.4438,-2.5,-2.5338,-2.4594,-2.3883,-2.3393,-2.3393,-2.2801,-2.231,-2.2344,-2.2344,-2.2344,-2.2361,-2.2361,-2.2344,-2.2344,-2.2527,-2.2573,0.0,-2.231,-2.2626,-2.3308,-2.3376,-2.3697,-2.4438,-2.4472,-2.4472,-2.4472,-2.3748,-2.3359,-2.3359,-2.3359,-2.3021,-2.2344,-2.3038,-2.3004,-2.2344,-2.2327,-2.231,-2.231,-2.231,-2.231,-2.2361,-2.31,-2.3388,-2.343,-2.4034,-2.4272,-2.4371,-2.5102,-2.5384,-2.5513,0.0,0.0,0.0,0.0,0.0,0.0,0.0,0.0,0.0,0.0,0.0,0.0,0.0,0.0,0.0,0.0,0.0,0.0,0.0,-1.1208,-1.1869,-1.2293,-1.4103,-1.5433,-1.6084,-1.7176,-1.7921,-1.8388,-1.8388,-1.8612,-1.9031,-1.9031,-1.951,-2.0378,-2.0617,-2.1081,-2.171,-2.1934,-2.2143,-2.2323,-2.2113,-2.1766,-2.1197,-1.9898,-1.8776,-1.7872,0.0,0.0,0.0,0.0,0.0,0.0,-1.8318,0.0,0.0,-1.9714,0.0,0.0,0.0,0.0,-2.3257,-2.4255,-2.522,-2.6082,-2.659,-2.6505,-2.6116,-2.5372,-2.4255,-2.3241,-2.2767,-2.2073,-2.1566,-2.1566,-2.2395,-2.2868,-2.2378,-2.2733,-2.2852,-2.2361,-2.2388,0.0,0.0,0.0,0.0,-2.3371,-2.3849,-2.4441,-2.5186,-2.522,-2.522,-2.522,-2.4509,-2.3883,-2.3393,-2.3393,-2.3274,-2.3038,-2.3274,-2.3004,-2.231,-2.231,-2.231,-2.231,-2.231,-2.231,-2.2327,-2.2581,-2.3124,-2.3843,-2.4216,-2.4497,-2.4823,-2.5823,-2.619,-2.63,0.0,0.0,0.0,0.0,0.0,0.0,0.0,0.0,0.0,0.0,0.0,0.0,0.0,0.0,0.0,0.0,0.0,0.0,0.0,0.0,-1.1236,-1.1594,-1.3094,-1.4235,-1.4883,-1.5861,-1.6608,-1.7026,-1.7026,-1.7236,-1.7655,-1.7655,-1.8119,-1.8957,-1.8957,-1.945,-2.0273,-2.0273,-2.0273,-2.0273,-2.0273,-1.9642,-1.8621,-1.8007,-1.7062,0.0,0.0,0.0,0.0,0.0,0.0,0.0,0.0,0.0,0.0,0.0,0.0,0.0,0.0,-2.363,-2.4864,-2.6082,-2.6962,-2.7486,-2.7435,-2.7046,-2.6268,-2.4746,-2.368,-2.2784,-2.204,-2.1278,-2.0856,-2.117,-2.1752,-2.2124,-2.1938,-2.231,-2.253,-2.2344,-2.2547,-2.2699,0.0,0.0,0.0,-2.3778,-2.4475,-2.5203,-2.5947,-2.6251,-2.6285,-2.5998,-2.527,-2.4661,-2.4188,-2.4188,-2.4188,-2.4188,-2.3646,-2.3139,-2.2682,-2.2429,-2.231,-2.231,-2.231,-2.231,-2.2344,-2.2868,-2.3516,-2.4257,-2.4936,-2.5351,-2.5661,-2.6662,-2.7034,-2.7108,0.0,0.0,0.0,0.0,0.0,0.0,0.0,0.0,0.0,0.0,0.0,0.0,0.0,0.0,0.0,0.0,0.0,0.0,0.0,0.0,0.0,-1.0396,-1.2153,-1.3185,-1.324,-1.4809,-1.5635,-1.5665,-1.5694,-1.5724,-1.5754,-1.5754,-1.5769,-1.5799,-1.5799,-1.6458,-1.7593,-1.7593,-1.7593,-1.7593,-1.7563,-1.6832,-1.5679,-1.4992,0.0,0.0,0.0,0.0,0.0,0.0,0.0,0.0,0.0,0.0,0.0,0.0,0.0,-2.341,-2.3528,-2.5118,-2.6945,-2.774,-2.8467,-2.8586,-2.7097,-2.6657,-2.5778,-2.2953,-2.231,-2.204,0.0,0.0,-2.0306,-2.1059,-2.0619,-2.045,-2.1221,-2.1356,-2.1617,0.0,0.0,0.0,0.0,0.0,0.0,-2.4625,0.0,-2.5981,-2.6708,-2.7435,-2.7469,-2.6708,-2.6031,-2.5642,-2.5609,-2.5575,-2.5524,-2.5473,-2.4069,-2.3376,-2.3325,-2.2632,-2.231,-2.231,-2.231,-2.231,-2.2412,-2.3799,-2.4438,-2.4666,-2.6061,-2.6657,-2.6801,-2.75,-2.7787,-2.7787,0.0,0.0,0.0,0.0,0.0,0.0,0.0,0.0,0.0,0.0,0.0,0.0,0.0,0.0,0.0,0.0,0.0,0.0,0.0,0.0,0.0,0.0,0.0,0.0,0.0,0.0,0.0,0.0,0.0,-1.4558,-1.5064,-1.5064,-1.5334,0.0,-1.5799,-1.5978,-1.6293,-1.6293,-1.6293,-1.6234,0.0,-1.5336,-1.4977,0.0,0.0,0.0,0.0,0.0,0.0,0.0,0.0,0.0,0.0,-1.8904,-2.0439,-2.0804,-2.2082,-2.3765,-2.5406,-2.6674,-2.7858,-2.9194,-2.9245,-2.8721,-2.7757,-2.6234,-2.4678,-2.3393,-2.2243,-2.1414,-2.1237,0.0,0.0,-2.117,-2.1938,0.0,-2.2801,-2.3291,0.0,-2.39,0.0,-2.4205,-2.4205,-2.4881,0.0,0.0,-2.6302,-2.6742,-2.7503,-2.7723,-2.7469,-2.6708,-2.6522,-2.6167,-2.5609,-2.505,-2.4492,-2.3951,-2.3579,-2.3105,-2.2581,-2.2395,-2.231,-2.231,-2.231,-2.231,-2.2344,-2.2716,-2.3699,-2.4965,-2.5355,-2.6144,-2.7104,-2.7278,-2.7528,-2.7787,0.0,0.0,0.0,0.0,0.0,0.0,0.0,0.0,0.0,0.0,0.0,0.0,0.0,0.0,0.0,0.0,0.0,0.0,0.0,0.0,0.0,0.0,0.0,0.0,0.0,0.0,0.0,0.0,0.0,0.0,0.0,-1.3252,-1.3534,-1.4045,-1.4045,-1.421,-1.4479,0.0,0.0,0.0,0.0,0.0,0.0,0.0,0.0,0.0,0.0,0.0,0.0,0.0,0.0,-1.7669,-1.8111,-1.9495,-2.1055,-2.1467,-2.3143,-2.5186,-2.6759,-2.7994,-2.9042,-2.9888,-2.9279,-2.8197,-2.7097,-2.5372,-2.3727,-2.2632,-2.1796,-2.1204,-2.1204,-2.0662,-2.0425,0.0,0.0,0.0,-2.2327,-2.3054,-2.3646,0.0,-2.4864,0.0,-2.5456,-2.6437,-2.7402,0.0,-2.7892,-2.7892,-2.8298,-2.8636,-2.8315,-2.7232,-2.7182,-2.6826,-2.6099,-2.5659,-2.5253,-2.4831,-2.4188,-2.3663,-2.3241,-2.2598,-2.2496,-2.2767,0.0,-2.2496,-2.2784,-2.2784,-2.359,-2.4832,-2.5034,-2.5988,-2.7236,-2.7238,-2.7586,-2.8099,0.0,0.0,0.0,0.0,0.0,0.0,0.0,0.0,0.0,0.0,0.0,0.0,0.0,0.0,0.0,0.0,0.0,0.0,0.0,0.0,0.0,0.0,0.0,0.0,0.0,0.0,0.0,0.0,0.0,0.0,0.0,0.0,0.0,0.0,0.0,0.0,0.0,0.0,0.0,0.0,0.0,0.0,0.0,0.0,0.0,0.0,0.0,0.0,0.0,0.0,-1.7076,-1.7527,-1.8479,-2.006,-2.1577,-2.1753,-2.4032,-2.6689,-2.7582,-2.8898,-2.9977,-2.9977,-2.8868,-2.7401,-2.5947,-2.4374,-2.2885,-2.16,-2.1271,-2.1237,-2.1339,-2.0247,-1.979,-2.1109,0.0,-1.9841,-2.1305,-2.2124,-2.2868,-2.3596,-2.5558,-2.6843,-2.6843,-2.823,-2.9397,-3.0057,-2.9583,-2.9228,-2.9144,-2.9753,-2.9448,-2.7992,-2.784,-2.7503,-2.6843,-2.6742,-2.664,-2.6539,-2.5253,-2.4557,-2.432,-2.3038,-2.275,-2.3224,-2.2581,0.0,-2.3241,-2.3241,-2.3748,-2.4537,-2.489,-2.5952,-2.7291,-2.7166,-2.7684,-2.8428,0.0,0.0,0.0,0.0,0.0,0.0,0.0,0.0,0.0,0.0,-0.7754,-0.7812,0.0,0.0,0.0,0.0,0.0,0.0,0.0,0.0,0.0,0.0,0.0,0.0,0.0,0.0,0.0,0.0,0.0,0.0,0.0,0.0,0.0,0.0,0.0,0.0,0.0,0.0,0.0,0.0,0.0,0.0,0.0,0.0,0.0,0.0,0.0,0.0,0.0,0.0,-1.7582,-1.7751,-1.848,-1.9946,-2.1576,-2.2611,-2.4084,-2.5756,-2.7553,-2.8698,-2.9383,-2.9383,-2.8557,-2.7401,-2.5947,-2.4002,0.0,-2.2175,-2.1617,-2.138,-2.2006,-2.1904,-2.1803,-2.2073,-2.1887,-2.2023,-2.2902,-2.3646,-2.4374,0.0,-2.664,-2.7621,-2.7621,-2.9008,0.0,0.0,-3.0548,-3.0548,-2.9939,-3.004,-2.9702,-2.8805,-2.8163,-2.7722,-2.7621,-2.6996,-2.6387,-2.5795,-2.5541,-2.4763,-2.3579,-2.3325,-2.2953,-2.2496,-2.2361,0.0,-2.2496,-2.2496,-2.3274,-2.4506,-2.4567,-2.5699,-2.723,-2.6556,-2.7207,-2.8312,0.0,0.0,0.0,0.0,0.0,0.0,0.0,-0.7404,-0.7618,-0.7404,-0.7374,-0.7452,-0.7676,-0.8354,-0.8789,0.0,0.0,0.0,0.0,0.0,0.0,0.0,0.0,0.0,0.0,0.0,0.0,0.0,0.0,0.0,0.0,0.0,0.0,0.0,0.0,0.0,0.0,0.0,0.0,0.0,0.0,0.0,0.0,0.0,0.0,0.0,0.0,0.0,0.0,0.0,-1.7174,-1.7413,-1.8792,-2.0228,-2.1615,-2.2524,-2.4201,-2.6022,-2.7308,-2.8475,-2.9193,-2.8746,-2.7711,-2.6465,-2.5291,-2.3613,-2.231,-2.231,-2.2023,-2.187,-2.2243,-2.1989,-2.1854,-2.2243,-2.1623,-2.1515,-2.2665,-2.346,-2.434,-2.5473,-2.7266,-2.8586,-2.8975,-3.0023,-3.0666,-3.0666,-3.1004,-3.1055,-3.0683,-3.0311,-2.9753,-2.9045,-2.823,-2.7638,-2.7232,-2.6877,-2.6522,-2.6167,-2.5795,-2.5033,-2.3951,-2.3579,-2.341,-2.341,-2.3038,0.0,-2.3968,-2.319,-2.3748,-2.5,-2.4222,-2.5159,-2.6933,-2.6364,-2.6865,-2.7837,0.0,0.0,0.0,0.0,0.0,0.0,0.0,-0.7131,-0.7511,-0.7021,-0.7041,-0.7227,-0.753,-0.815,-0.8623,0.0,0.0,0.0,0.0,0.0,0.0,0.0,0.0,0.0,0.0,0.0,0.0,0.0,0.0,0.0,0.0,0.0,0.0,0.0,0.0,0.0,0.0,0.0,0.0,0.0,0.0,0.0,0.0,0.0,0.0,0.0,0.0,0.0,0.0,0.0,-1.6712,-1.701,-1.8732,-2.0132,-2.1239,-2.1823,-2.3747,-2.5907,-2.6846,-2.8049,-2.879,-2.7964,-2.671,-2.5406,-2.4429,-2.3087,-2.2049,-2.2135,-2.2135,-2.218,-2.2282,-2.1837,-2.1617,-2.2226,-2.1269,-2.0914,-2.2141,-2.3071,-2.4069,-2.5236,-2.7503,0.0,-2.9803,-3.0666,0.0,-3.119,-3.119,0.0,-3.119,-3.0649,-3.0006,-2.9245,-2.8467,-2.7706,-2.6945,-2.6776,-2.6691,-2.6691,-2.6116,-2.5456,-2.4712,-2.4137,-2.4019,-2.4222,-2.3816,0.0,0.0,-2.4052,-2.4408,-2.549,-2.4323,-2.5033,-2.6657,-2.6399,-2.674,-2.7378,0.0,0.0,0.0,0.0,0.0,0.0,0.0,-0.7131,-0.7394,-0.6582,-0.6836,-0.7119,-0.7148,-0.7476,-0.8005,0.0,0.0,0.0,0.0,0.0,0.0,0.0,0.0,0.0,0.0,0.0,0.0,0.0,0.0,0.0,0.0,0.0,0.0,0.0,0.0,0.0,0.0,0.0,0.0,0.0,0.0,0.0,0.0,0.0,0.0,0.0,0.0,0.0,0.0,0.0,0.0,-1.6846,-1.7623,-1.8796,-1.9959,-2.0516,-2.2194,-2.4243,-2.6022,-2.7083,-2.7501,-2.6725,-2.5914,-2.489,-2.3529,-2.2148,-2.1213,-2.1598,-2.1658,-2.1794,-2.2209,-2.2243,-2.2226,-2.2293,0.0,-2.2158,-2.2293,-2.3511,-2.4455,-2.4591,0.0,0.0,-2.9076,-3.0362,-3.119,-3.119,-3.119,0.0,-3.119,-3.114,-3.0768,-3.0023,-2.9279,-2.8501,-2.7688,-2.7029,-2.6691,-2.6691,-2.6623,-2.6201,-2.5507,-2.5439,-2.4712,-2.3528,-2.415,0.0,0.0,-2.4171,-2.4864,-2.5592,-2.5456,-2.593,-2.6691,-2.669,-2.6935,-2.7303,0.0,0.0,0.0,0.0,0.0,0.0,-0.5792,-0.6675,-0.7227,-0.6865,-0.6738,-0.6885,-0.7394,-0.6895,-0.7044,-0.8381,0.0,0.0,0.0,0.0,0.0,0.0,0.0,0.0,0.0,0.0,0.0,0.0,0.0,0.0,0.0,0.0,0.0,0.0,0.0,0.0,0.0,0.0,0.0,0.0,0.0,0.0,0.0,0.0,0.0,0.0,0.0,0.0,0.0,0.0,0.0,0.0,-1.6009,-1.6862,0.0,0.0,-2.1182,-2.2768,-2.429,-2.5515,-2.6169,-2.5404,-2.462,-2.3777,-2.2748,-2.1728,-2.1055,-2.1213,-2.1244,-2.1385,-2.1794,-2.1899,-2.1957,-2.2237,0.0,0.0,-2.2215,-2.2338,-2.3074,-2.4936,-2.6789,0.0,0.0,0.0,-3.0658,-3.0658,-3.0658,0.0,-3.119,-3.119,-3.0649,-2.9465,-2.9144,-2.8383,-2.7165,-2.6843,-2.6691,-2.6691,-2.6691,-2.6302,-2.5609,-2.5609,-2.5287,-2.4746,-2.5033,0.0,0.0,-2.522,-2.5592,-2.6218,-2.5778,-2.6048,-2.6691,-2.6691,-2.6808,-2.7023,0.0,0.0,0.0,0.0,0.0,-0.4992,-0.5352,-0.6291,-0.6961,-0.6914,-0.6729,-0.6797,-0.7258,-0.6641,-0.6656,-0.7842,-0.8507,0.0,0.0,0.0,0.0,0.0,0.0,0.0,0.0,0.0,0.0,-1.0456,-1.0094,0.0,0.0,0.0,0.0,0.0,0.0,0.0,0.0,0.0,0.0,0.0,0.0,0.0,0.0,0.0,0.0,0.0,0.0,0.0,0.0,0.0,0.0,0.0,0.0,0.0,0.0,0.0,-1.975,-2.1335,-2.2443,-2.3729,-2.4597,-2.4044,-2.3335,-2.2617,-2.1866,-2.1135,-2.0632,-2.0764,-2.0797,-2.091,-2.1337,-2.143,-2.1538,0.0,0.0,-2.0947,-2.182,-2.1564,-2.2183,-2.4476,0.0,-2.7094,0.0,-2.9675,-3.0123,-3.0293,-3.0293,0.0,-3.0918,-3.0909,-3.0294,-2.9062,-2.8755,-2.801,-2.6708,-2.6691,-2.6691,-2.6691,-2.6691,-2.642,-2.593,-2.593,-2.5812,-2.5625,-2.5845,0.0,0.0,-2.6048,-2.6234,-2.664,-2.6133,-2.6234,-2.6725,-2.6945,-2.7029,-2.7165,0.0,0.0,0.0,0.0,0.0,0.0,-0.533,-0.6148,-0.6632,-0.6426,-0.6807,-0.6924,-0.6475,-0.6816,-0.709,-0.7109,-0.7425,0.0,0.0,0.0,0.0,0.0,0.0,0.0,0.0,0.0,-0.9905,-0.9905,-0.9905,-0.9905,-0.9905,0.0,0.0,0.0,0.0,0.0,0.0,0.0,0.0,0.0,0.0,0.0,0.0,0.0,0.0,0.0,0.0,0.0,0.0,0.0,0.0,0.0,0.0,0.0,0.0,0.0,-1.7687,-1.9854,-2.0557,-2.171,-2.2739,-2.2724,-2.2229,-2.153,-2.0857,-2.022,-1.9854,-2.0212,-2.0314,-2.0449,-2.0926,-2.1007,-2.1007,-2.0991,-2.0991,0.0,-2.0991,-2.1648,-2.2247,0.0,0.0,-2.5021,-2.6749,-2.8414,-2.9673,-3.0251,0.0,0.0,-3.0293,-3.0168,-2.977,-2.9045,-2.823,-2.7469,-2.6708,-2.6691,-2.6691,-2.6691,-2.6691,-2.6691,-2.6674,-2.6674,-2.6285,0.0,0.0,0.0,0.0,-2.6387,-2.6691,-2.6691,-2.6691,-2.6691,-2.6793,-2.7537,-2.7772,-2.7891,0.0,0.0,0.0,0.0,0.0,0.0,0.0,-0.5739,-0.6391,-0.683,-0.6729,-0.6797,-0.7228,-0.6641,-0.6562,-0.7423,-0.7848,0.0,0.0,0.0,0.0,0.0,0.0,0.0,0.0,0.0,-0.9659,-0.9905,-0.9905,-0.9905,-0.9905,-0.9905,-0.9905,0.0,0.0,0.0,0.0,0.0,0.0,0.0,0.0,0.0,0.0,0.0,0.0,0.0,0.0,0.0,0.0,0.0,0.0,0.0,0.0,0.0,0.0,0.0,0.0,0.0,-1.9166,-1.9974,-2.0632,-2.0632,-2.0468,-2.0273,-2.0049,-1.9839,-1.9762,-1.9874,-1.9874,-2.0035,-2.0449,-2.0516,-2.0616,-2.0959,-2.0731,0.0,0.0,0.0,0.0,-2.3465,-2.5644,-2.729,0.0,0.0,-2.8873,-2.9058,0.0,0.0,-2.899,-2.8906,-2.8715,-2.8379,-2.7981,-2.7452,-2.6708,-2.6691,-2.6691,-2.6691,-2.6691,-2.6691,-2.6674,-2.6184,-2.6099,0.0,0.0,0.0,0.0,-2.659,-2.6691,-2.6691,-2.6691,-2.6691,-2.6725,-2.6962,-2.7046,-2.7165,0.0,0.0,0.0,0.0,0.0,0.0,0.0,-0.5351,-0.5908,-0.6726,-0.6582,-0.6553,-0.6953,-0.6562,-0.6533,-0.7141,-0.7756,0.0,0.0,0.0,0.0,0.0,0.0,0.0,0.0,-0.9461,-0.9652,-1.0207,-0.9875,-0.9875,-1.0207,-0.9993,-0.9905,-0.9905,-1.0119,0.0,0.0,0.0,0.0,0.0,0.0,0.0,-1.3648,0.0,0.0,0.0,0.0,0.0,0.0,0.0,0.0,0.0,0.0,0.0,0.0,0.0,0.0,0.0,0.0,-1.8253,-1.9001,-1.9256,-1.9316,-1.9375,-1.963,-1.969,-1.969,-1.969,-1.969,-1.9782,-2.0035,-2.0054,-2.0158,-2.0465,-2.0261,0.0,0.0,0.0,0.0,-2.3336,0.0,0.0,0.0,-2.7834,-2.8238,0.0,0.0,0.0,-2.8104,-2.7992,-2.7672,-2.709,-2.7316,-2.7155,-2.6453,-2.6624,-2.6691,-2.6691,-2.642,-2.6285,-2.6268,-2.5812,-2.5862,0.0,0.0,0.0,0.0,-2.6691,-2.6691,-2.6691,-2.6691,-2.6691,-2.6725,-2.7012,-2.73,-2.7655,0.0,0.0,0.0,0.0,0.0,0.0,0.0,-0.4975,-0.5319,-0.6213,-0.6363,-0.627,-0.5931,-0.6611,-0.6943,-0.6533,0.0,0.0,0.0,0.0,0.0,0.0,0.0,0.0,-0.9816,-0.9502,-0.9716,-1.0547,-0.9779,-0.9815,-1.0597,-1.0164,-0.9966,-0.9979,-1.0518,-1.0781,-1.0856,-1.1462,-1.2291,-1.316,-1.268,-1.278,0.0,0.0,0.0,0.0,0.0,0.0,0.0,0.0,0.0,0.0,0.0,0.0,0.0,0.0,0.0,0.0,0.0,-1.6697,-1.7787,-1.8523,-1.8702,-1.8882,-1.954,-1.969,0.0,-1.969,-1.969,-1.969,-1.969,-1.969,-1.969,-1.969,-1.9735,0.0,0.0,-2.0408,0.0,0.0,-2.4937,0.0,-2.5601,-2.6767,-2.783,0.0,0.0,0.0,-2.7426,-2.7261,-2.6583,-2.5311,-2.6246,-2.6536,-2.6013,-2.6487,-2.6691,-2.6691,-2.6015,-2.5693,-2.5693,-2.5625,-2.5642,0.0,0.0,0.0,0.0,-2.6691,-2.6691,-2.6691,-2.6691,-2.6691,-2.6776,-2.7486,-2.823,-2.8991,0.0,0.0,0.0,0.0,0.0,0.0,0.0,0.0,0.0,0.0,-0.6084,-0.6504,-0.6758,-0.6973,-0.7187,0.0,0.0,0.0,0.0,0.0,0.0,0.0,0.0,0.0,-0.9062,-0.8745,-0.8773,-0.9235,-0.9397,-0.959,-0.9804,-1.0326,-1.0576,-1.0618,-1.1164,-1.1625,-1.2052,-1.2584,-1.296,-1.3185,-1.306,-1.3085,0.0,0.0,0.0,0.0,-1.3868,-1.3901,0.0,0.0,0.0,0.0,0.0,0.0,0.0,0.0,-1.5522,0.0,-1.5799,0.0,-1.7219,-1.8403,-1.8702,-1.8882,0.0,0.0,0.0,0.0,0.0,0.0,0.0,-1.969,-1.969,-1.969,0.0,-2.0288,-1.975,0.0,0.0,-2.4073,-2.5993,-2.6657,-2.5001,-2.6497,0.0,0.0,0.0,-2.6753,-2.6089,-2.6031,-2.5394,-2.4081,-2.5164,-2.5823,-2.6013,-2.6487,-2.6691,-2.6691,-2.6522,-2.6437,-2.642,-2.5862,-2.5913,0.0,0.0,0.0,-2.6691,-2.6691,-2.6691,-2.6691,-2.6691,-2.6691,-2.6708,-2.6894,-2.7435,-2.8044,0.0,0.0,0.0,0.0,0.0,0.0,0.0,0.0,0.0,0.0,0.0,-0.6093,-0.6465,-0.6855,0.0,0.0,0.0,0.0,0.0,0.0,0.0,0.0,0.0,-0.8382,-0.8789,-0.8467,-0.8692,-0.9489,-0.9294,-0.9669,-1.0524,-1.0704,-1.0915,-1.1198,-1.1715,-1.2266,-1.276,-1.2797,-1.2973,-1.3173,-1.2922,0.0,0.0,0.0,0.0,0.0,-1.3581,-1.3581,0.0,-1.4084,-1.4084,-1.4,0.0,0.0,0.0,0.0,-1.5285,-1.561,-1.6229,-1.6544,-1.695,-1.7966,-1.8478,-1.8882,-1.954,0.0,0.0,0.0,0.0,0.0,0.0,0.0,0.0,0.0,-1.9989,0.0,0.0,0.0,-2.3191,-2.4433,-2.5839,-2.6378,0.0,0.0,0.0,0.0,0.0,-2.6303,-2.5644,-2.533,-2.4687,-2.3625,-2.4484,-2.517,-2.5615,-2.6139,-2.647,-2.6691,-2.5998,-2.5862,-2.6167,-2.5423,-2.5507,0.0,0.0,0.0,-2.6691,-2.6691,-2.6691,-2.6691,-2.6691,-2.6691,-2.6691,-2.6691,-2.7182,-2.7722,0.0,0.0,0.0,0.0,0.0,0.0,0.0,0.0,0.0,0.0,0.0,0.0,0.0,0.0,0.0,0.0,0.0,0.0,0.0,0.0,0.0,0.0,0.0,-0.8651,-0.8734,-0.8393,-0.8746,-0.9914,-0.9287,-0.9788,-1.1294,-1.1041,-1.1172,-1.1665,-1.2187,-1.2659,-1.3057,-1.2597,-1.2705,-1.316,-1.273,0.0,0.0,0.0,0.0,0.0,0.0,0.0,0.0,-1.3648,-1.3802,-1.3901,-1.4596,0.0,0.0,0.0,0.0,0.0,-1.6478,-1.6781,-1.6977,-1.7802,-1.8448,-1.9001,-1.9555,0.0,0.0,0.0,0.0,0.0,0.0,-1.969,0.0,0.0,0.0,0.0,-2.1321,-2.1949,-2.2877,-2.4403,-2.53,0.0,-2.5974,0.0,0.0,0.0,0.0,-2.6093,-2.563,-2.4881,-2.4208,-2.3625,-2.4032,-2.4505,-2.4946,-2.564,-2.6075,-2.6269,-2.5321,-2.5084,-2.5592,-2.5067,-2.5169,-2.5812,0.0,0.0,-2.6691,-2.6691,-2.6691,-2.6691,-2.6691,-2.6759,-2.6843,-2.6742,-2.7249,-2.7977,0.0,0.0,0.0,0.0,0.0,0.0,0.0,0.0,0.0,0.0,0.0,0.0,0.0,0.0,0.0,0.0,0.0,0.0,0.0,0.0,0.0,-0.7783,-0.7831,-0.8033,-0.8365,-0.8004,-0.7901,-0.8089,-0.9037,-0.9457,-0.9453,-1.0882,-1.1643,-1.18,-1.2271,-1.2543,-1.2615,-1.2531,-1.2765,-1.3185,-1.311,0.0,0.0,0.0,0.0,0.0,0.0,0.0,0.0,-1.3301,-1.3288,-1.3323,-1.3459,0.0,0.0,0.0,0.0,0.0,-1.5272,-1.6192,-1.7437,-1.9006,-1.9465,-1.9555,-1.966,0.0,0.0,0.0,0.0,0.0,0.0,-1.969,-1.969,0.0,0.0,-2.2203,0.0,0.0,-2.4911,-2.4612,0.0,-2.56,0.0,0.0,0.0,0.0,0.0,-2.5136,-2.5585,-2.4433,-2.3714,-2.3595,-2.3681,-2.3732,-2.3694,-2.5232,-2.5438,-2.4348,-2.5731,-2.6082,-2.5625,-2.6133,-2.642,-2.6539,0.0,-2.6691,-2.6691,-2.6691,-2.6691,-2.6691,-2.6691,-2.708,-2.7571,-2.6928,-2.7588,-2.8704,0.0,0.0,0.0,0.0,0.0,0.0,0.0,0.0,0.0,0.0,0.0,0.0,0.0,0.0,0.0,0.0,0.0,0.0,0.0,0.0,0.0,-0.7695,-0.7949,-0.8168,-0.8339,-0.8168,-0.8301,-0.8727,-0.931,-0.9758,-1.0123,-1.1239,-1.1762,-1.1811,-1.2029,-1.2246,-1.2461,-1.2246,-1.2401,-1.2838,0.0,0.0,0.0,0.0,0.0,0.0,0.0,0.0,0.0,0.0,-1.3198,-1.3232,-1.348,0.0,0.0,0.0,0.0,0.0,-1.4804,-1.5634,-1.6697,-1.8071,-1.8833,-1.9281,-1.9281,-1.9281,0.0,0.0,0.0,0.0,0.0,0.0,-1.9929,-2.0647,0.0,-2.2757,-2.4298,-2.4522,-2.4552,0.0,0.0,0.0,0.0,0.0,0.0,0.0,0.0,0.0,-2.5061,-2.4133,-2.3595,-2.3595,-2.3266,-2.2896,-2.2498,-2.3516,-2.4207,-2.4513,-2.5194,-2.5744,-2.6184,-2.571,-2.593,-2.6674,0.0,-2.6336,-2.6691,-2.6691,-2.6691,-2.6691,-2.6691,-2.6911,-2.7165,-2.6826,-2.7131,-2.7689,0.0,0.0,0.0,0.0,0.0,0.0,0.0,0.0,0.0,0.0,0.0,0.0,0.0,0.0,0.0,0.0,0.0,0.0,0.0,0.0,-0.7695,-0.7695,-0.8145,-0.8411,-0.8411,-0.8509,-0.8838,-0.9447,-0.9554,-1.0029,-1.0829,-1.1356,-1.1553,-1.1442,-1.1542,-1.1799,-1.2138,-1.1774,-1.1872,-1.2365,0.0,0.0,0.0,0.0,0.0,0.0,0.0,0.0,0.0,0.0,0.0,0.0,0.0,0.0,0.0,-1.3735,-1.3735,-1.3873,-1.443,-1.515,-1.5912,-1.684,0.0,-1.8855,-1.8727,-1.9008,0.0,0.0,0.0,0.0,0.0,-1.9824,0.0,-2.171,-2.2607,-2.3415,-2.4193,-2.4298,-2.4433,-2.4761,0.0,0.0,0.0,0.0,0.0,0.0,0.0,0.0,-2.4567,-2.3834,-2.3445,-2.3595,-2.2847,-2.2203,-2.1695,-2.1995,-2.2722,-2.3896,-2.4099,-2.4758,-2.5731,-2.4957,-2.5291,-2.642,-2.6031,-2.6184,-2.6691,-2.6691,-2.6691,-2.6691,-2.6691,-2.6691,-2.6708,-2.6894,-2.6843,-2.6691,0.0,0.0,0.0,0.0,0.0,0.0,0.0,0.0,0.0,0.0,0.0,0.0,0.0,0.0,0.0,0.0,0.0,0.0,0.0,0.0,-0.7695,-0.7695,-0.8145,-0.8411,-0.8411,-0.876,-0.8984,-0.9053,-0.9398,-0.9853,-1.0361,-1.0829,-1.084,-1.0428,-1.0867,-1.1094,-1.1132,-1.1084,-1.1356,-1.1884,-1.2318,0.0,0.0,0.0,0.0,0.0,0.0,0.0,0.0,0.0,0.0,0.0,0.0,0.0,-1.3267,0.0,-1.3267,-1.3369,-1.3821,-1.4809,-1.5818,-1.6244,-1.7658,-1.8765,-1.8263,-1.9407,0.0,-1.9136,0.0,0.0,0.0,-2.0213,-2.1081,-2.2398,-2.367,-2.4926,-2.6198,0.0,-2.6168,0.0,0.0,0.0,0.0,0.0,0.0,0.0,0.0,0.0,-2.4552,-2.343,-2.3011,-2.358,-2.2413,-2.1739,-2.1695,-2.1498,-2.114,-2.0649,-2.2444,-2.3192,-2.301,-2.4365,-2.523,-2.571,-2.6353,-2.664,-2.6691,-2.6691,-2.6691,-2.6691,-2.6691,-2.6691,-2.6776,-2.7486,-2.73,-2.6691,0.0,0.0,0.0,0.0,0.0,0.0,0.0,0.0,0.0,0.0,0.0,0.0,0.0,0.0,0.0,0.0,0.0,0.0,0.0,-0.7089,-0.7442,-0.7695,-0.8145,-0.8528,-0.876,-0.8926,-0.9004,-0.9004,-0.9388,-0.9853,-1.0283,-1.0467,-1.0467,-1.0322,-1.0505,-1.0725,-1.0981,-1.0687,-1.084,-1.1356,-1.1847,-1.2066,0.0,0.0,0.0,0.0,0.0,0.0,0.0,0.0,-1.3198,0.0,0.0,0.0,0.0,0.0,0.0,-1.3232,-1.3425,-1.4313,-1.5144,-1.4967,-1.6407,0.0,0.0,-1.8372,-1.8556,-1.8372,-1.9126,0.0,0.0,0.0,-2.162,-2.2532,-2.3774,-2.4896,-2.5854,-2.5974,0.0,0.0,0.0,0.0,0.0,0.0,0.0,0.0,0.0,0.0,-2.2817,-2.2727,-2.2592,-2.2413,-2.156,-2.1081,-2.1081,-2.0563,-2.0188,-1.9945,-2.1695,-2.2681,-2.3012,-2.3391,-2.3918,-2.4563,-2.5107,-2.5592,-2.6048,-2.6505,-2.6691,-2.6691,-2.6691,-2.6691,-2.6725,-2.7012,-2.6945,-2.6691,0.0,0.0,0.0,0.0,0.0,0.0,0.0,0.0,0.0,0.0,0.0,0.0,0.0,0.0,0.0,0.0,0.0,0.0,-0.6305,-0.67,-0.7098,-0.75,-0.795,-0.831,-0.8594,-0.873,-0.8936,-0.9199,-0.9456,-0.9748,-1.0078,-1.0215,-1.0283,-1.0283,-1.0283,-1.0467,-1.0764,-1.0428,-1.0505,-1.0829,-1.1356,-1.1553,0.0,0.0,0.0,0.0,0.0,0.0,0.0,0.0,0.0,0.0,0.0,0.0,0.0,0.0,0.0,-1.3198,-1.3198,-1.4036,-1.4815,-1.4437,0.0,0.0,-1.7791,-1.8038,-1.8095,-1.8058,-1.8835,-1.9514,-1.9457,0.0,0.0,0.0,-2.3774,-2.4806,-2.551,0.0,0.0,0.0,0.0,0.0,0.0,0.0,0.0,0.0,0.0,0.0,0.0,-2.1919,-2.1949,-2.171,-2.0842,-2.0498,-2.0722,-2.0034,-1.969,-1.9726,-2.081,-2.1679,-2.2296,-2.231,-2.2801,-2.3702,-2.4363,-2.4909,-2.543,-2.632,-2.6691,-2.6691,-2.6691,-2.6691,-2.6691,-2.6691,-2.6691,-2.6691,0.0,0.0,0.0,0.0,0.0,0.0,0.0,0.0,0.0,0.0,0.0,0.0,0.0,0.0,0.0,0.0,0.0,0.0,-0.5913,-0.6275,-0.6691,-0.7089,-0.7476,-0.771,-0.7715,-0.8164,-0.8789,-0.9583,-0.9592,-0.9592,-0.9602,-1.0078,-1.0283,-1.0283,-1.0283,-1.0283,-1.0283,-1.0283,-1.0283,-1.0361,-1.0791,-1.1019,-1.1132,0.0,0.0,0.0,0.0,0.0,0.0,0.0,0.0,0.0,0.0,0.0,0.0,0.0,-1.3198,-1.3198,-1.321,-1.4036,-1.4903,0.0,0.0,0.0,-1.7112,-1.8663,-1.9549,-1.8415,-1.8569,-1.8879,-1.8892,-2.0005,0.0,-2.248,-2.3759,-2.4806,-2.5495,0.0,0.0,0.0,0.0,0.0,0.0,0.0,0.0,0.0,0.0,0.0,0.0,-2.1066,-2.1006,-2.1665,-2.0378,-2.0019,-2.0692,-2.0034,-1.969,-1.969,-1.969,-1.9909,-2.033,-2.1128,-2.2079,-2.3135,-2.4407,-2.4891,-2.489,-2.6151,-2.6691,-2.6691,-2.6691,-2.6691,-2.6691,-2.6691,-2.6691,-2.6691,0.0,0.0,0.0,0.0,0.0,0.0,0.0,0.0,0.0,0.0,0.0,0.0,0.0,0.0,0.0,0.0,0.0,0.0,-0.5882,-0.6275,-0.6691,-0.7089,-0.7495,-0.7846,-0.8184,-0.8603,-0.8799,-0.875,-0.9043,-0.931,-0.9602,-1.0078,-1.0283,-1.0283,-1.0283,-1.0283,-1.0283,-1.0283,-1.0283,-1.0361,-1.0791,-1.1019,-1.1084,0.0,0.0,0.0,0.0,0.0,0.0,0.0,0.0,0.0,0.0,0.0,0.0,-1.3198,-1.3198,-1.3286,-1.3709,-1.4085,0.0,-1.4815,0.0,0.0,0.0,-1.659,0.0,0.0,-1.8544,-1.8954,-1.9448,0.0,0.0,-2.1859,-2.2731,-2.3465,0.0,0.0,0.0,0.0,0.0,0.0,0.0,0.0,0.0,0.0,0.0,0.0,0.0,-2.0557,-2.0572,-2.0288,-1.9899,-1.9794,-1.9989,-1.9794,-1.969,-1.969,-1.969,-1.9747,-1.9909,-2.0408,-2.0852,-2.1208,-2.2453,-2.3095,-2.3456,-2.521,-2.6234,-2.6691,-2.6691,-2.6691,-2.6691,-2.6691,-2.6691,-2.6691,0.0,0.0,0.0,0.0,0.0,0.0,0.0,0.0,0.0,0.0,0.0,0.0,0.0,0.0,0.0,0.0,0.0,0.0,0.0,-0.589,-0.6275,-0.6841,-0.6948,-0.7235,-0.7789,-0.8286,-0.8437,-0.8328,-0.894,-0.9473,-0.9893,-1.0156,-1.0283,-1.0283,-1.0283,-1.0283,-1.0283,-1.0283,-1.0283,-1.0322,-1.0611,-1.0725,-1.0802,0.0,0.0,0.0,0.0,0.0,0.0,0.0,0.0,0.0,0.0,0.0,0.0,-1.2908,-1.3047,-1.3273,-1.3634,-1.4072,0.0,-1.4828,-1.5442,-1.5969,-1.5743,0.0,0.0,0.0,-1.8396,-1.8565,-1.9598,-1.9974,0.0,-2.0865,-2.1535,-2.2085,0.0,0.0,0.0,0.0,0.0,0.0,0.0,0.0,0.0,0.0,0.0,0.0,0.0,-2.0079,-2.0124,-1.969,-1.969,-1.969,-1.969,-1.969,-1.969,-1.969,-1.969,-1.969,-1.9726,-1.9929,-2.036,-2.088,-2.1522,-2.2309,-2.3274,-2.4445,-2.5462,-2.6285,-2.659,-2.6691,-2.6691,-2.6691,-2.6691,-2.6691,0.0,0.0,0.0,0.0,0.0,0.0,0.0,0.0,0.0,0.0,-0.4202,0.0,0.0,0.0,0.0,0.0,0.0,0.0,0.0,0.0,-0.5672,-0.6427,-0.6121,-0.6253,-0.6876,-0.7477,-0.793,-0.8246,-0.9147,-0.9834,-1.0225,-1.0264,-1.0283,-1.0283,-1.0283,-1.0283,-1.0283,-1.0283,-1.0283,-1.0283,-1.0283,-1.0283,-1.0361,-1.0753,0.0,0.0,0.0,0.0,0.0,0.0,0.0,0.0,0.0,0.0,-1.2425,-1.2508,-1.2791,-1.3176,-1.3261,-1.4036,0.0,-1.4966,-1.5731,0.0,-1.5881,-1.6559,-1.7589,-1.8545,0.0,-1.7936,-1.9404,-1.9317,-1.9208,-1.9727,-2.034,0.0,0.0,0.0,0.0,0.0,0.0,0.0,0.0,0.0,0.0,0.0,0.0,0.0,0.0,-1.969,-1.969,-1.969,-1.969,-1.969,-1.969,-1.969,-1.969,-1.969,-1.969,-1.972,-1.9779,-1.972,-2.0348,-2.1509,-2.1283,-2.2163,-2.3704,-2.377,-2.443,-2.551,-2.6234,-2.6488,-2.6505,-2.6573,-2.659,-2.6607,0.0,0.0,0.0,0.0,0.0,0.0,0.0,0.0,0.0,0.0,0.0,0.0,0.0,0.0,0.0,0.0,0.0,0.0,0.0,0.0,-0.5859,-0.6037,-0.6244,-0.6528,-0.6876,-0.739,-0.7981,-0.8683,-0.9289,-0.9641,-0.9738,-1.0127,-1.0283,-1.0283,-1.0283,-1.0283,-1.0283,-1.0283,-1.0283,-1.0283,-1.0283,-1.0283,-1.0322,-1.039,-1.0467,0.0,0.0,0.0,0.0,0.0,0.0,0.0,-1.1664,-1.1884,-1.2029,-1.2401,-1.2579,-1.2817,0.0,-1.4085,0.0,0.0,-1.6019,-1.6484,-1.6371,-1.6534,-1.6773,-1.7011,-1.7576,-1.815,-1.8472,-1.8456,-1.8575,-1.9163,0.0,0.0,0.0,0.0,0.0,0.0,0.0,0.0,0.0,0.0,0.0,0.0,0.0,0.0,-1.969,-1.969,-1.969,-1.969,-1.969,-1.969,-1.969,-1.969,-1.969,0.0,-1.969,-1.9974,-2.0483,-1.9929,-1.9839,-2.013,-2.04,-2.1073,-2.2062,-2.2704,-2.3471,-2.4314,-2.4804,-2.498,-2.5048,-2.5625,-2.5845,-2.593,0.0,0.0,0.0,0.0,0.0,0.0,0.0,0.0,0.0,0.0,0.0,0.0,0.0,0.0,0.0,0.0,0.0,0.0,0.0,0.0,-0.5609,-0.5609,-0.6127,-0.6461,-0.6565,-0.7183,-0.7797,-0.8355,-0.9163,-0.9668,-0.9951,-1.0176,-1.0283,-1.0283,-1.0283,-1.0283,-1.0283,-1.0283,-1.0283,-1.0283,-1.0283,-1.0283,-1.0283,-1.0283,-1.0283,-1.0283,-1.0283,0.0,0.0,0.0,0.0,0.0,0.0,0.0,-1.1774,-1.1793,-1.2116,0.0,0.0,0.0,0.0,-1.5377,0.0,-1.6522,-1.6522,-1.6522,-1.6522,-1.6522,-1.6986,-1.7564,-1.8103,-1.799,-1.7941,-1.8222,0.0,0.0,0.0,0.0,0.0,0.0,0.0,0.0,0.0,0.0,0.0,0.0,0.0,-1.969,-1.969,-1.969,-1.969,-1.969,-1.969,-1.969,-1.969,-1.969,-1.969,-1.969,-1.969,-1.9869,-2.0228,-2.0183,-1.9989,-1.9711,-1.9909,-2.0373,-2.0973,-2.1802,-2.2589,-2.3373,-2.3979,-2.4538,-2.5067,-2.5456,-2.5609,-2.5659,0.0,0.0,0.0,0.0,0.0,0.0,0.0,0.0,0.0,0.0,0.0,0.0,0.0,0.0,0.0,0.0,0.0,0.0,0.0,0.0,0.0,-0.5351,-0.5904,-0.6208,-0.6263,-0.6908,-0.7479,-0.7919,-0.8797,-0.9478,-1.004,-1.0196,-1.0244,-1.0166,-1.0244,-1.0283,-1.0283,-1.0283,-1.0283,-1.0283,-1.0283,-1.0283,-1.0332,-1.0361,-1.0391,-1.0391,-1.0391,-1.0391,-1.0381,-1.0303,0.0,0.0,0.0,0.0,-1.1478,-1.1211,-1.1615,0.0,0.0,0.0,-1.3622,-1.5079,-1.5915,0.0,-1.6371,-1.6446,-1.6522,-1.6522,-1.6522,-1.681,-1.7739,-1.7539,-1.7237,0.0,0.0,0.0,0.0,0.0,0.0,0.0,0.0,0.0,0.0,0.0,0.0,0.0,0.0,-1.9603,-1.969,-1.969,-1.969,-1.969,-1.969,-1.969,-1.969,-1.969,-1.969,-1.969,-1.969,-1.969,-1.9705,-2.0273,-2.0228,-1.969,-1.969,-1.9874,-2.0258,-2.1,-2.1702,-2.2393,-2.3161,-2.408,-2.4938,-2.5137,-2.5236,-2.5253,0.0,0.0,0.0,0.0,0.0,0.0,0.0,0.0,0.0,0.0,0.0,0.0,0.0,0.0,0.0,0.0,0.0,0.0,0.0,0.0,0.0,-0.5645,-0.5726,-0.6008,-0.652,-0.6645,-0.7095,-0.7919,-0.8036,-0.8398,-0.8918,-0.9883,-1.004,-0.9637,-1.0079,-1.0283,-1.0283,-1.0283,-1.0283,-1.0283,-1.0283,-1.0283,-1.0322,-1.0684,-1.082,-1.082,-1.082,-1.082,-1.0771,-1.041,-1.0518,0.0,0.0,0.0,-1.1104,-1.1478,-1.1415,0.0,0.0,0.0,-1.3462,0.0,-1.5085,-1.5806,0.0,0.0,-1.6522,0.0,-1.6522,-1.6559,-1.671,-1.6685,-1.6635,0.0,0.0,0.0,0.0,0.0,0.0,0.0,0.0,0.0,0.0,0.0,0.0,0.0,-1.8968,-1.9207,-1.969,-1.969,-1.969,-1.969,-1.969,-1.969,-1.969,-1.969,-1.969,-1.969,-1.969,-1.969,-1.969,-1.9779,-1.9765,-1.969,-1.969,-1.9711,-1.9818,-2.025,-2.0506,-2.0724,-2.1581,-2.2005,-2.2261,-2.3308,-2.368,-2.3782,0.0,0.0,0.0,0.0,0.0,0.0,0.0,0.0,0.0,0.0,0.0,0.0,0.0,0.0,0.0,0.0,0.0,0.0,0.0,0.0,0.0,-0.5698,-0.5872,-0.6159,-0.658,-0.6747,-0.7018,-0.7405,-0.7746,-0.787,-0.7773,-0.9031,-0.9564,-0.9478,-0.9439,-0.9716,-1.0283,-0.9961,-1.0173,-1.0635,-1.0635,-1.0781,-1.1057,-1.1201,-1.1279,-1.1279,-1.1279,-1.1279,-1.1292,-1.1106,-1.1165,-1.1279,-1.1279,0.0,0.0,0.0,-1.1307,0.0,-1.1356,-1.2121,-1.3023,0.0,-1.4474,-1.5393,-1.5652,0.0,-1.6522,-1.6522,-1.6522,-1.6522,-1.6522,-1.6522,-1.6522,0.0,0.0,0.0,0.0,0.0,0.0,0.0,0.0,0.0,0.0,0.0,0.0,0.0,-1.9006,-1.9442,-1.969,-1.969,-1.969,-1.969,-1.969,-1.969,-1.969,-1.969,-1.969,-1.969,-1.969,-1.969,-1.969,-1.969,-1.969,-1.969,-1.969,-1.969,-1.9711,-1.9909,-2.0089,-2.0366,-2.1007,-2.1644,-2.2316,-2.3093,-2.3393,-2.3444,0.0,0.0,0.0,0.0,0.0,0.0,0.0,0.0,0.0,0.0,0.0,0.0,0.0,0.0,0.0,0.0,0.0,0.0,0.0,0.0,0.0,-0.5919,-0.6182,-0.6438,-0.6693,-0.6907,-0.6979,-0.6979,-0.7447,-0.7447,-0.7027,-0.8141,-0.8893,-0.9185,-0.899,-0.9395,-1.0153,-0.9793,-1.008,-1.0908,-1.0908,-1.1172,-1.1616,-1.1734,-1.1773,-1.1773,-1.1773,-1.1773,-1.1753,-1.1645,-1.1685,-1.1773,-1.1773,-1.1963,0.0,0.0,0.0,0.0,0.0,0.0,-1.2273,-1.2617,-1.356,-1.4511,0.0,0.0,-1.6163,0.0,-1.638,-1.6522,-1.6522,-1.6522,-1.6522,0.0,0.0,0.0,0.0,0.0,0.0,0.0,0.0,0.0,0.0,0.0,0.0,0.0,-1.8855,-1.9406,-1.969,-1.969,-1.969,-1.969,-1.969,-1.969,-1.969,-1.969,-1.969,-1.969,-1.969,-1.969,-1.969,-1.969,-1.969,-1.969,-1.969,-1.969,-1.969,-1.969,-1.9874,-2.0193,-2.0665,-2.1424,-2.2309,-2.2775,-2.3017,-2.3122,0.0,0.0,0.0,0.0,0.0,0.0,0.0,0.0,0.0,0.0,0.0,0.0,0.0,-0.3756,-0.4188,-0.4602,-0.5049,-0.5397,-0.5671,-0.5988,-0.6277,-0.6533,-0.656,0.0,-0.6994,-0.6972,-0.6979,-0.6979,-0.7021,-0.7021,-0.7027,-0.7416,-0.7856,-0.8385,-0.9138,-0.9625,-0.9902,-0.9902,-1.0247,-1.0908,-1.0908,-1.1172,-1.1645,-1.2031,-1.2151,-1.2151,-1.2151,-1.2151,-1.2129,-1.1753,-1.1846,-1.2151,-1.2151,-1.2161,-1.2171,0.0,0.0,0.0,0.0,-1.0697,0.0,-1.1126,-1.1921,0.0,0.0,0.0,0.0,-1.558,-1.6095,-1.6522,-1.6522,-1.6522,-1.6522,0.0,0.0,0.0,0.0,0.0,0.0,0.0,0.0,0.0,0.0,0.0,0.0,0.0,-1.8145,-1.8612,-1.9639,-1.969,-1.969,-1.969,-1.969,-1.969,-1.969,-1.969,-1.969,-1.969,-1.969,-1.969,-1.969,-1.969,-1.969,-1.969,-1.969,-1.969,-1.969,-1.969,-1.9711,-1.9782,-2.0193,-2.0632,-2.1151,-2.1556,-2.1995,-2.2361,0.0,0.0,0.0,0.0,0.0,0.0,0.0,0.0,0.0,0.0,0.0,0.0,0.0,-0.404,-0.4551,-0.5026,-0.5204,-0.5168,-0.4886,-0.4974,-0.5165,-0.5493,-0.5825,-0.6159,-0.6471,-0.681,-0.6979,-0.6979,-0.6979,-0.6979,-0.6985,-0.7328,-0.7711,-0.8041,-0.8158,-0.8668,-0.9375,-0.9039,-0.9336,-1.0145,-1.0344,-1.0722,-1.1081,-1.127,-1.1274,0.0,0.0,0.0,-1.1946,-1.1788,-1.2149,-1.2646,-1.2646,-1.2646,-1.2539,-1.1963,-1.1377,0.0,0.0,0.0,0.0,-1.0905,-1.1783,-1.265,-1.3103,-1.4019,-1.4977,-1.5508,-1.5776,-1.6051,-1.6423,-1.6522,-1.6522,0.0,0.0,0.0,0.0,0.0,0.0,0.0,0.0,0.0,0.0,0.0,0.0,0.0,0.0,-1.8419,-1.9169,-1.9207,-1.9332,-1.969,-1.969,-1.969,-1.969,-1.969,-1.969,-1.969,-1.969,-1.969,-1.969,-1.969,-1.969,-1.969,-1.969,-1.969,-1.969,-1.969,-1.969,-1.9747,-2.0158,-2.0416,-2.0649,-2.1337,-2.1718,-2.1899,0.0,0.0,0.0,0.0,0.0,0.0,0.0,0.0,0.0,0.0,0.0,0.0,0.0,0.0,-0.4527,-0.4953,-0.5105,-0.4994,-0.4602,-0.467,-0.4813,-0.5039,-0.5586,-0.6002,-0.6351,-0.6777,-0.7068,-0.7168,-0.7068,-0.6979,-0.7027,-0.7435,-0.7675,-0.7769,-0.7669,-0.8108,-0.8952,-0.8603,-0.8905,-0.9727,-1.0097,-1.0598,-1.1116,-1.0864,0.0,0.0,0.0,0.0,-1.1466,-1.1466,-1.1931,-1.255,-1.255,-1.2715,-1.2734,-1.2002,0.0,0.0,-1.0871,0.0,0.0,0.0,0.0,-1.2121,-1.2733,0.0,-1.4304,-1.4869,-1.5141,-1.5466,-1.6095,-1.6194,-1.6238,0.0,0.0,0.0,0.0,0.0,0.0,0.0,0.0,0.0,0.0,0.0,0.0,0.0,0.0,0.0,-1.8855,-1.8893,-1.9169,-1.969,-1.969,-1.969,-1.969,-1.969,-1.969,-1.969,-1.969,-1.969,-1.969,-1.969,-1.969,-1.969,-1.969,-1.969,-1.969,-1.969,-1.969,-1.9726,-2.0,-2.0331,-2.0693,-2.1023,-2.1467,-2.1958,0.0,0.0,0.0,0.0,0.0,0.0,0.0,0.0,0.0,-0.2917,0.0,0.0,0.0,0.0,0.0,-0.4361,-0.4704,-0.4867,-0.4867,-0.5102,-0.526,-0.526,-0.5836,-0.6264,-0.6554,-0.6842,-0.7138,-0.7468,-0.7174,-0.6992,-0.7047,-0.7596,-0.7769,-0.7553,-0.7789,-0.82,-0.867,-0.8655,-0.9067,-0.9698,-1.001,-1.0802,-1.1665,0.0,0.0,0.0,-1.0965,-1.0762,0.0,-1.0762,0.0,0.0,0.0,0.0,0.0,0.0,0.0,0.0,0.0,0.0,0.0,0.0,0.0,0.0,-1.1986,0.0,-1.3223,-1.3684,-1.4283,-1.488,-1.5499,-1.5588,-1.582,0.0,0.0,0.0,0.0,0.0,0.0,0.0,0.0,0.0,0.0,0.0,0.0,0.0,-1.7271,-1.7747,-1.8817,-1.8893,-1.9132,-1.9639,-1.969,-1.969,-1.969,-1.969,-1.969,-1.969,-1.969,-1.969,-1.969,-1.969,-1.969,-1.969,-1.969,-1.969,-1.969,-1.969,-1.969,-1.969,-1.969,-2.0339,-2.1193,-2.0528,-2.1275,-2.2473,0.0,0.0,0.0,0.0,0.0,0.0,0.0,0.0,-0.3063,0.0,0.0,0.0,-0.3327,-0.3878,-0.4282,-0.4404,-0.4495,-0.4363,-0.3987,-0.4033,-0.4056,-0.4056,-0.4754,-0.5171,-0.5227,-0.6285,-0.6798,-0.6684,-0.7153,-0.7341,-0.7348,-0.7515,-0.7782,-0.8158,-0.7749,-0.793,-0.8476,-0.8208,-0.8379,-0.8799,-0.9061,-0.9386,0.0,0.0,0.0,0.0,0.0,-0.9666,-1.0064,0.0,-1.0864,-1.1873,0.0,0.0,-1.2803,0.0,0.0,0.0,-1.1724,0.0,0.0,0.0,0.0,0.0,0.0,0.0,0.0,-1.3653,-1.3909,-1.4365,-1.541,-1.5588,-1.582,0.0,0.0,0.0,0.0,0.0,0.0,0.0,0.0,0.0,0.0,0.0,0.0,0.0,-1.671,-1.7034,-1.7706,-1.8496,-1.8968,-1.9132,-1.9479,-1.969,-1.969,-1.969,-1.969,-1.969,-1.969,-1.969,-1.969,-1.969,-1.969,-1.969,-1.969,-1.969,-1.969,-1.969,-1.969,-1.969,-1.969,-1.9888,-2.0167,-2.0254,-2.076,-2.1456,0.0,0.0,0.0,0.0,0.0,0.0,-0.2988,-0.3085,-0.3175,0.0,0.0,0.0,-0.3488,-0.3821,-0.4049,-0.4049,-0.4049,-0.3921,-0.3622,-0.3636,-0.367,-0.367,-0.4369,-0.4826,-0.4954,-0.5896,-0.6523,0.0,0.0,0.0,0.0,0.0,0.0,0.0,0.0,-0.8091,-0.8363,-0.819,0.0,0.0,-0.8691,0.0,0.0,-0.891,-0.8956,0.0,0.0,0.0,-0.9361,-0.9361,-1.0064,0.0,0.0,0.0,0.0,0.0,0.0,0.0,0.0,0.0,0.0,0.0,0.0,0.0,-1.2461,-1.2695,-1.3017,0.0,-1.342,-1.3742,-1.4675,-1.4858,-1.5141,0.0,0.0,0.0,0.0,0.0,0.0,0.0,0.0,0.0,0.0,-1.6522,-1.6522,-1.6522,-1.6522,-1.6837,-1.7585,-1.8458,-1.9006,-1.9244,-1.953,-1.969,-1.969,-1.969,-1.969,-1.969,-1.969,-1.969,-1.969,-1.969,-1.969,-1.969,-1.969,-1.969,-1.969,-1.969,-1.969,-1.969,-1.969,-1.9854,-2.0115,-2.0086,-2.0516,-2.1144,0.0,0.0,0.0,-0.2907,-0.2947,-0.3002,-0.3127,-0.3236,-0.3333,0.0,-0.3493,-0.3581,-0.3581,-0.3595,-0.3602,-0.3602,-0.3619,-0.3629,-0.3629,-0.3748,-0.3816,-0.3816,-0.445,-0.4909,-0.5172,-0.5581,-0.6177,0.0,0.0,0.0,0.0,0.0,0.0,0.0,0.0,0.0,0.0,0.0,0.0,-0.8444,-0.8704,-0.9159,0.0,0.0,-0.9159,-0.9614,-0.9008,-0.8804,-0.8804,-0.891,-0.9316,0.0,0.0,0.0,0.0,0.0,-1.2774,0.0,0.0,0.0,0.0,0.0,0.0,0.0,-1.2793,-1.2881,-1.2881,-1.2881,-1.2881,-1.3055,-1.3684,-1.3815,-1.4179,0.0,0.0,0.0,0.0,0.0,0.0,0.0,0.0,0.0,-1.6522,-1.6522,-1.6522,-1.6522,-1.6522,-1.6909,-1.7867,-1.8496,-1.9043,-1.953,-1.9639,-1.969,-1.969,-1.969,-1.969,-1.969,-1.969,-1.969,-1.969,-1.969,-1.969,-1.969,-1.969,-1.969,-1.969,-1.969,-1.969,-1.969,-1.969,-2.0064,-2.0528,-1.9914,-2.0345,-2.1171,0.0,0.0,0.0,-0.3052,-0.3142,-0.3232,-0.3344,-0.3436,-0.3534,-0.3534,-0.3561,-0.3581,-0.3581,-0.3683,-0.3751,-0.3751,-0.3863,-0.3934,-0.3934,-0.3961,-0.3975,-0.3975,-0.4223,-0.4372,-0.44,-0.5169,-0.5536,-0.5526,0.0,0.0,0.0,0.0,0.0,0.0,0.0,0.0,0.0,0.0,0.0,-0.8731,-0.8784,-0.8857,-0.8956,-0.8857,-0.8857,-0.8956,-0.8857,-0.8804,-0.8857,-0.9413,-0.971,-0.9969,0.0,0.0,0.0,-1.1823,0.0,0.0,0.0,0.0,0.0,0.0,0.0,0.0,-1.2861,-1.2881,-1.2881,0.0,-1.2881,-1.3055,-1.3684,-1.3815,-1.405,0.0,0.0,0.0,0.0,0.0,0.0,0.0,0.0,0.0,-1.6522,-1.6522,-1.6522,-1.6522,-1.6522,-1.6595,-1.6795,-1.7747,-1.8302,-1.8419,-1.9244,-1.969,-1.969,-1.969,-1.969,-1.969,-1.969,-1.969,-1.969,-1.969,-1.969,-1.969,-1.969,-1.969,-1.969,-1.969,-1.969,-1.969,-1.969,-1.9765,-1.9869,-1.9735,-2.0056,-2.0485,0.0,0.0,-0.2676,-0.3116,-0.3256,-0.3333,-0.3495,-0.3574,-0.3605,-0.3676,-0.3751,-0.3799,-0.3799,-0.3863,-0.3907,-0.3907,-0.3975,-0.4019,-0.4019,-0.404,-0.4083,-0.4083,-0.4277,-0.4355,-0.4355,-0.4801,-0.512,-0.5296,0.0,0.0,0.0,0.0,0.0,0.0,0.0,0.0,0.0,0.0,-0.8671,-0.8804,-0.8804,0.0,-0.8804,-0.8804,-0.8804,-0.8804,-0.8804,-0.8804,-0.8857,-0.9211,-0.9309,0.0,-1.0064,-1.0312,-1.0415,0.0,-1.1566,-1.1823,0.0,0.0,0.0,-1.2452,0.0,0.0,0.0,-1.2881,-1.2881,-1.2881,-1.2881,-1.2968,-1.3286,0.0,-1.3212,-1.3788,0.0,0.0,0.0,0.0,0.0,0.0,0.0,0.0,-1.6107,-1.6107,-1.622,-1.6497,-1.6522,-1.6637,-1.6879,-1.7435,-1.7947,-1.8496,-1.9006,-1.9442,-1.969,-1.969,-1.969,-1.969,-1.969,-1.969,-1.969,-1.969,-1.969,-1.969,-1.969,-1.969,-1.969,-1.969,-1.969,-1.969,-1.969,-1.969,-1.969,-1.969,-1.9854,-2.0035,0.0,0.0,0.0,-0.3092,-0.3266,-0.3393,-0.3561,-0.3581,-0.3632,-0.3771,-0.3924,-0.4019,-0.4019,-0.4046,-0.4063,-0.4063,-0.409,-0.4104,-0.4104,-0.4219,-0.4237,-0.4237,-0.4399,-0.4519,-0.4519,-0.4519,-0.4787,-0.5328,0.0,0.0,0.0,0.0,0.0,0.0,0.0,0.0,0.0,0.0,0.0,-0.8804,0.0,-0.8804,-0.8804,-0.8804,-0.8804,-0.8804,-0.8804,-0.8804,-0.8804,-0.8804,-0.8804,-0.891,-0.9465,-0.9614,0.0,0.0,0.0,0.0,0.0,0.0,0.0,0.0,0.0,-1.2715,0.0,0.0,0.0,0.0,0.0,0.0,0.0,0.0,0.0,0.0,0.0,0.0,0.0,0.0,0.0,0.0,0.0,0.0,0.0,-1.5542,-1.5806,-1.6471,-1.6421,-1.6553,-1.7105,-1.7229,-1.7706,-1.8574,-1.8779,-1.9132,-1.953,-1.9639,-1.969,-1.969,-1.969,-1.969,-1.969,-1.969,-1.969,-1.969,-1.969,-1.969,-1.969,-1.969,-1.969,-1.969,-1.969,-1.969,-1.969,-1.969,-1.969,-1.9747,-0.0868,-0.1773,0.0,0.0,-0.3193,-0.3561,-0.3578,-0.3581,-0.3632,-0.3771,-0.3924,-0.4019,-0.4019,-0.409,-0.417,-0.417,-0.4338,-0.4467,-0.4467,-0.4484,-0.4491,-0.4491,-0.4508,-0.4519,-0.4519,-0.4519,-0.4519,-0.4625,-0.5218,0.0,0.0,0.0,0.0,0.0,-0.7723,0.0,0.0,0.0,-0.8804,0.0,-0.8804,-0.8804,0.0,-0.8804,-0.8804,-0.8804,-0.8804,-0.8804,-0.8804,0.0,-0.8804,-0.8804,0.0,-0.891,-0.9061,-0.971,0.0,0.0,0.0,0.0,0.0,0.0,-1.1864,0.0,0.0,0.0,-1.2881,-1.2881,0.0,0.0,0.0,0.0,0.0,0.0,0.0,0.0,-1.2669,0.0,0.0,0.0,0.0,0.0,0.0,-1.5004,-1.5392,-1.6434,-1.607,-1.5994,-1.657,-1.7034,-1.7353,-1.7463,-1.8419,-1.893,-1.9006,-1.9442,-1.969,-1.969,-1.969,-1.969,-1.969,-1.969,-1.969,-1.969,-1.969,-1.969,-1.969,-1.969,-1.969,-1.969,-1.969,-1.969,-1.969,-1.969,-1.969,-1.9726,-0.08,-0.155,0.0,0.0,-0.3214,-0.3581,-0.3581,-0.3727,-0.3887,-0.4036,-0.4185,-0.4277,-0.4277,-0.4334,-0.4372,-0.4372,-0.4429,-0.4519,0.0,0.0,-0.4519,-0.4519,-0.4519,-0.4519,-0.4519,-0.4519,-0.4519,-0.4519,-0.4787,-0.4893,0.0,0.0,0.0,0.0,-0.6411,0.0,-0.7563,0.0,-0.8156,0.0,0.0,0.0,0.0,-0.8804,-0.8804,-0.8804,-0.8804,-0.8804,-0.8804,0.0,-0.8804,0.0,0.0,0.0,0.0,-0.9159,0.0,0.0,0.0,0.0,0.0,0.0,0.0,0.0,-1.1584,0.0,-1.1792,0.0,0.0,0.0,0.0,0.0,0.0,0.0,-1.1867,0.0,0.0,0.0,-1.2799,0.0,0.0,0.0,0.0,0.0,0.0,0.0,-1.5643,-1.5793,-1.6019,-1.6545,-1.6993,-1.7312,-1.7747,-1.8145,-1.8419,-1.865,-1.8765,-1.8779,-1.9095,-1.9244,-1.9244,-1.9566,-1.969,-1.969,-1.969,-1.969,-1.969,-1.969,-1.969,-1.969,-1.969,-1.969,-1.969,-1.969,-1.969,-1.969,-0.0568,0.0,0.0,0.0,-0.3081,-0.3547,-0.3359,-0.3598,-0.3811,-0.3862,-0.4044,-0.4239,-0.446,-0.4519,-0.4519,-0.4519,-0.4519,-0.4519,0.0,0.0,-0.4519,-0.4519,-0.4519,-0.4519,-0.4519,-0.4519,-0.4519,-0.4519,-0.4519,-0.4519,0.0,0.0,0.0,0.0,0.0,-0.5928,-0.6642,0.0,-0.7396,-0.745,-0.799,-0.8315,-0.8533,-0.8699,-0.8804,-0.8804,-0.8804,-0.8804,-0.8804,-0.8804,-0.8804,0.0,-0.8804,0.0,-0.8804,0.0,0.0,0.0,-0.8956,0.0,0.0,0.0,0.0,0.0,0.0,0.0,0.0,0.0,0.0,0.0,0.0,0.0,0.0,0.0,0.0,-1.0819,0.0,0.0,0.0,0.0,0.0,0.0,0.0,0.0,0.0,-1.4865,-1.5241,-1.553,-1.568,-1.622,-1.668,-1.7076,-1.7229,-1.7504,-1.7867,-1.8027,-1.8106,-1.8106,-1.8496,-1.8688,-1.8688,-1.9244,-1.9479,-1.9479,-1.9639,-1.969,-1.969,-1.969,-1.969,-1.969,-1.969,-1.969,-1.969,-1.969,-1.969,-1.969,-0.0047,-0.0964,0.0,0.0,-0.2812,-0.3398,-0.2822,-0.2981,0.0,0.0,0.0,0.0,0.0,0.0,0.0,-0.4519,0.0,-0.4519,-0.4519,0.0,-0.4519,-0.4519,-0.4519,-0.4519,-0.4519,-0.4519,-0.4519,-0.4519,-0.4519,-0.4519,0.0,0.0,0.0,0.0,-0.5487,-0.5928,-0.6588,-0.6642,-0.6642,-0.6642,-0.6642,-0.7074,-0.783,0.0,-0.8804,-0.8804,-0.8804,0.0,0.0,-0.8804,-0.8804,0.0,0.0,0.0,0.0,0.0,0.0,0.0,0.0,0.0,0.0,-0.9666,0.0,0.0,0.0,0.0,-1.0813,0.0,0.0,0.0,0.0,0.0,0.0,0.0,0.0,0.0,0.0,0.0,0.0,0.0,0.0,0.0,0.0,0.0,0.0,-1.4828,-1.4928,-1.5128,-1.5668,-1.622,-1.6522,-1.6522,-1.7034,-1.7312,-1.7353,-1.7827,-1.8106,-1.8106,-1.8145,-1.8145,-1.8145,-1.8688,-1.893,-1.8968,-1.9479,-1.969,-1.969,-1.969,-1.969,-1.969,-1.969,-1.969,-1.969,-1.969,-1.969,-1.969,0.0,0.0,0.0,-0.1713,-0.2147,-0.2377,0.0,-0.2301,0.0,0.0,-0.2548,0.0,0.0,-0.2954,-0.3176,0.0,0.0,-0.3959,-0.446,-0.4519,0.0,-0.4519,-0.4519,-0.4519,-0.4519,-0.4519,-0.4519,-0.4519,-0.4519,0.0,0.0,0.0,0.0,0.0,0.0,-0.4952,0.0,0.0,0.0,0.0,0.0,-0.702,-0.7723,0.0,-0.8374,-0.8804,-0.8804,-0.8804,0.0,-0.8804,-0.8804,-0.8804,-0.8804,-0.8804,-0.8804,-0.8804,-0.8804,0.0,0.0,0.0,-0.8857,-0.9061,0.0,0.0,0.0,0.0,0.0,0.0,0.0,0.0,0.0,0.0,0.0,0.0,0.0,0.0,0.0,0.0,0.0,0.0,0.0,0.0,0.0,0.0,0.0,-1.3326,-1.4635,-1.5341,-1.5205,-1.6019,-1.6522,-1.6522,-1.668,-1.6752,-1.6752,-1.6951,-1.7034,-1.7034,-1.7394,-1.7585,-1.7585,-1.8145,-1.838,-1.8419,-1.893,-1.9169,-1.9207,-1.9566,-1.969,-1.969,-1.969,-1.969,-1.969,-1.969,-1.969,-1.969,0.0,0.0,0.0,0.0,-0.1688,0.0,0.0,0.0,0.0,0.0,-0.1786,0.0,-0.2174,0.0,-0.2397,0.0,-0.2954,-0.3289,-0.4015,-0.407,0.0,-0.4463,-0.4519,-0.4519,0.0,-0.4519,-0.4519,-0.4519,-0.4519,-0.4519,0.0,0.0,0.0,0.0,0.0,-0.4519,-0.4515,-0.4948,-0.5164,0.0,0.0,-0.6258,0.0,0.0,-0.7551,-0.8374,0.0,-0.799,-0.8049,-0.8321,-0.8427,-0.848,-0.8699,-0.8804,-0.8804,-0.8804,-0.8804,-0.8804,-0.8804,-0.8804,0.0,-0.8804,-0.8804,0.0,-0.8804,0.0,0.0,0.0,0.0,0.0,0.0,0.0,0.0,0.0,0.0,0.0,0.0,-1.0773,0.0,0.0,0.0,0.0,0.0,0.0,-1.2862,-1.3047,-1.4356,-1.5157,0.0,0.0,-1.6522,-1.6522,-1.6522,-1.6522,-1.6522,-1.6522,-1.6522,-1.6522,-1.6837,-1.7034,-1.7034,-1.7585,-1.7827,-1.7867,-1.838,-1.8612,-1.865,-1.9006,-1.9244,-1.9406,-1.9406,-1.953,-1.969,-1.969,-1.969,-1.969,0.0,0.0,0.0,0.0,-0.1457,0.0,0.0,0.0,-0.1062,0.0,-0.1062,-0.134,-0.2009,-0.2063,-0.212,-0.212,-0.2119,-0.2454,-0.3176,-0.3231,0.0,0.0,-0.4408,-0.446,-0.446,0.0,0.0,0.0,0.0,0.0,0.0,0.0,0.0,0.0,-0.4519,0.0,-0.4519,-0.4519,-0.4519,-0.4519,-0.4519,-0.4893,-0.5487,-0.5487,-0.6357,-0.7503,-0.6858,-0.6588,-0.6696,-0.7396,-0.767,-0.783,-0.854,-0.8752,-0.8804,-0.8804,-0.8804,-0.8804,-0.8804,-0.8804,-0.8804,-0.8804,0.0,0.0,0.0,0.0,-0.8804,0.0,0.0,0.0,0.0,0.0,0.0,0.0,0.0,0.0,0.0,0.0,0.0,0.0,0.0,0.0,0.0,-1.1808,-1.2442,-1.3888,-1.4067,-1.4602,0.0,0.0,-1.6466,-1.6522,-1.6522,-1.6522,-1.6522,-1.6522,-1.6522,-1.6522,-1.6522,-1.6522,-1.6522,-1.7034,-1.7271,-1.7312,-1.7827,-1.8066,-1.8066,-1.8106,-1.8419,-1.8855,-1.8855,-1.9207,-1.9639,-1.969,-1.969,-1.969,0.0,0.0,-0.0055,0.0,-0.0754,-0.0966,0.0,0.0,0.0,0.0,-0.028,-0.0336,-0.056,-0.056,-0.0783,-0.134,-0.1396,0.0,0.0,0.0,0.0,-0.2788,-0.3345,-0.3677,-0.3622,-0.4184,-0.4519,-0.4519,0.0,0.0,-0.4519,0.0,0.0,0.0,0.0,-0.4519,-0.4519,-0.4519,-0.4519,-0.4519,-0.4519,-0.4893,-0.5433,0.0,-0.5273,-0.6086,-0.6475,-0.6588,-0.6642,-0.6804,-0.7235,-0.7723,-0.7937,-0.8374,-0.8804,-0.8804,-0.8804,-0.8804,-0.8804,-0.8804,-0.8804,-0.8804,-0.8804,-0.8804,0.0,0.0,0.0,0.0,0.0,0.0,0.0,0.0,0.0,0.0,0.0,0.0,0.0,0.0,0.0,-1.2021,0.0,0.0,0.0,-1.1886,-1.2412,-1.2383,-1.378,0.0,0.0,0.0,0.0,-1.6479,-1.6522,-1.6522,-1.6522,-1.6522,-1.6522,-1.6522,-1.6522,-1.6522,-1.6522,-1.6637,-1.671,-1.6752,-1.7271,-1.7504,-1.7544,-1.7947,-1.8185,-1.8302,-1.8302,-1.8612,-1.9169,-1.9566,-1.969,-1.969,0.0,0.0,0.0,0.0,0.0,0.0,-0.0056,0.0,0.0,0.0,0.0,0.0,0.0,0.0,-0.0168,-0.056,-0.0615,0.0,-0.1675,0.0,0.0,-0.2174,-0.2621,-0.2843,-0.2843,-0.3624,0.0,-0.4015,0.0,0.0,-0.4519,0.0,0.0,0.0,0.0,-0.4519,-0.4519,-0.4519,-0.4519,-0.4519,-0.4519,-0.4732,0.0,-0.4625,-0.4732,-0.5113,-0.555,-0.5664,-0.5719,-0.6041,-0.6416,-0.6794,-0.7128,-0.7723,-0.8321,-0.8321,-0.8533,-0.8804,-0.8804,-0.8804,-0.8804,-0.8804,-0.8804,-0.8804,-0.8804,-0.8804,-0.8804,0.0,0.0,0.0,0.0,0.0,0.0,0.0,0.0,0.0,0.0,0.0,0.0,0.0,-1.2129,0.0,0.0,-1.2131,-1.2604,-1.2698,-1.3803,0.0,0.0,0.0,0.0,-1.6466,-1.6522,-1.6522,-1.6522,-1.6522,-1.6522,-1.6522,-1.6522,-1.6522,-1.6522,-1.6522,-1.6522,-1.6522,-1.6837,-1.6951,-1.6951,-1.7271,-1.7544,-1.7787,-1.8027,-1.8419,-1.893,-1.9244,-1.9479,-1.969,0.0,0.0,0.0,0.0,0.0,0.0,0.0,0.0,0.0,0.0,0.0,0.0,0.0,0.0,0.0,0.0,0.0,-0.028,-0.0895,-0.095,-0.1229,-0.1898,-0.2009,-0.2063,-0.2063,-0.2843,-0.3289,0.0,0.0,0.0,0.0,0.0,0.0,0.0,0.0,0.0,0.0,-0.4519,-0.4519,-0.4519,-0.4519,-0.4519,-0.4519,-0.4519,-0.4519,-0.4519,-0.4519,-0.4519,-0.457,-0.5164,-0.5433,-0.5597,-0.6253,-0.6961,-0.7563,-0.7563,-0.7996,-0.8533,-0.8646,-0.8646,-0.8699,-0.8752,-0.8804,-0.8804,-0.8804,-0.8804,-0.8804,-0.8804,-0.8804,-0.8804,0.0,0.0,0.0,0.0,0.0,0.0,0.0,0.0,0.0,0.0,0.0,0.0,0.0,0.0,0.0,0.0,0.0,0.0,0.0,0.0,0.0,-1.6466,-1.6522,-1.6522,-1.6522,0.0,-1.6522,-1.6522,-1.6522,-1.6522,-1.6522,-1.6522,-1.6522,-1.6522,-1.6522,-1.6522,-1.6522,-1.6522,-1.6752,-1.7229,-1.7787,-1.8302,-1.8688,-1.8765,-1.9132,-1.9603,0.0,0.0,0.0,0.0,0.0,0.0,0.0,0.0,0.0,0.0,0.0,0.0,0.0,0.0,0.0,0.0,0.0,0.0,0.0,0.0,0.0,-0.0392,-0.095,-0.1284,-0.1284,-0.2009,-0.2732,0.0,0.0,0.0,0.0,0.0,0.0,0.0,0.0,0.0,-0.4519,-0.4519,0.0,-0.4519,-0.4519,-0.4519,-0.4519,-0.4519,-0.4519,-0.4519,-0.4519,-0.4519,-0.4515,-0.4625,-0.5058,-0.5542,-0.5651,-0.6199,-0.6804,-0.6804,-0.6858,-0.7128,-0.7723,-0.7883,-0.8049,-0.8646,-0.8804,-0.8804,-0.8804,-0.8804,-0.8804,-0.8804,-0.8804,-0.8804,-0.8804,0.0,0.0,0.0,0.0,0.0,0.0,0.0,0.0,0.0,0.0,-1.2134,0.0,0.0,0.0,0.0,0.0,0.0,0.0,0.0,0.0,0.0,-1.6522,0.0,0.0,0.0,-1.6522,-1.6522,-1.6522,-1.6522,-1.6522,-1.6522,-1.6522,-1.6522,-1.6522,-1.6522,-1.6522,-1.6522,-1.6552,-1.668,-1.7229,-1.7504,-1.7626,-1.8066,-1.8574,-1.9095,0.0,0.0,0.0,0.0,0.0,0.0,0.0,0.0,0.0,0.0,0.0,0.0,0.0,0.0,0.0,0.0,0.0,0.0,0.0,0.0,0.0,0.0,-0.0336,-0.0504,-0.0504,-0.1229,-0.1842,-0.223,0.0,0.0,0.0,0.0,0.0,0.0,0.0,-0.4519,0.0,0.0,0.0,-0.4519,-0.4519,-0.4519,-0.4519,-0.4519,-0.4519,-0.4519,-0.4519,-0.4519,-0.4519,-0.4519,-0.4736,-0.5003,-0.5003,-0.5437,-0.6036,-0.6036,-0.6312,-0.6696,-0.702,-0.7396,-0.7777,-0.8156,-0.8533,-0.8804,-0.8804,-0.8804,-0.8804,-0.8804,-0.8804,-0.8804,-0.8804,-0.9061,0.0,0.0,0.0,0.0,0.0,0.0,-1.0922,0.0,0.0,0.0,0.0,0.0,0.0,0.0,0.0,-1.3672,0.0,0.0,0.0,0.0,0.0,0.0,0.0,0.0,0.0,-1.6522,-1.6522,-1.6522,-1.6522,-1.6522,-1.6522,-1.6522,-1.6522,-1.6522,-1.6522,-1.6522,-1.6522,-1.6522,-1.6795,-1.7076,-1.7393,-1.7947,-1.8453,-1.8976,0.0,0.0,0.0,0.0,0.0,0.0,0.0,0.0,0.0,0.0,0.0,0.0,0.0,0.0,0.0,0.0,0.0,0.0,0.0,0.0,0.0,0.0,0.0,0.0,0.0,-0.056,-0.095,0.0,0.0,0.0,0.0,0.0,0.0,0.0,0.0,0.0,0.0,0.0,-0.4519,-0.4519,-0.4519,-0.4519,-0.4519,-0.4519,-0.4519,-0.4519,-0.4519,-0.4519,-0.4519,-0.4519,-0.4519,-0.4519,-0.4519,-0.4842,-0.5269,-0.5269,-0.571,-0.6209,-0.6312,-0.6799,-0.7283,-0.7616,-0.8156,-0.8586,-0.8752,-0.8804,-0.8804,-0.8804,-0.8804,-0.8804,-0.8804,-0.8804,0.0,0.0,0.0,0.0,0.0,0.0,0.0,0.0,0.0,0.0,-1.1566,0.0,0.0,0.0,0.0,-1.3637,-1.3779,-1.4236,-1.4789,0.0,0.0,-1.6107,-1.6107,0.0,-1.6238,-1.6107,-1.638,-1.6423,-1.6324,-1.6423,-1.6522,-1.6522,-1.6522,-1.6522,-1.6522,-1.6522,-1.6522,-1.6522,-1.6522,-1.6829,-1.7366,-1.7835,-1.8405,-1.9014,0.0,0.0,0.0,0.0,0.0,0.0,0.0,0.0,0.0,0.0,0.0,0.0,0.0,0.0,0.0,0.0,0.0,0.0,0.0,0.0,0.0,0.0,0.0,0.0,0.0,-0.0056,-0.0448,0.0,0.0,-0.1675,0.0,0.0,0.0,0.0,0.0,0.0,0.0,-0.4519,-0.4519,-0.4519,-0.4519,-0.4519,-0.4519,-0.4519,-0.4519,-0.4519,-0.4519,-0.4519,-0.4519,-0.4519,-0.4519,-0.4519,-0.4519,-0.4519,-0.457,-0.457,-0.4625,-0.4842,-0.5433,-0.5651,-0.6032,-0.7343,-0.7777,-0.799,-0.8646,-0.8804,-0.8804,-0.8804,-0.8804,-0.8804,-0.8804,-0.8804,-0.8804,0.0,0.0,0.0,0.0,0.0,-0.9211,-0.9814,0.0,0.0,0.0,-1.2049,0.0,0.0,-1.255,-1.3238,-1.3768,-1.3862,-1.4143,-1.4744,0.0,-1.488,-1.488,-1.541,-1.541,-1.488,-1.5976,-1.6194,-1.572,-1.6238,-1.6522,-1.6522,-1.6522,-1.6522,-1.6522,-1.6522,-1.6522,-1.6522,-1.6522,-1.6879,-1.739,-1.744,-1.8119,-1.9067,0.0,0.0,0.0,0.0,0.0,0.0,0.0,0.0,0.0,0.0,0.0,0.0,0.0,0.0,0.0,0.0,0.0,0.0,0.0,0.0,0.0,0.0,0.0,0.0,0.0,0.0,-0.0168,0.0,0.0,0.0,0.0,0.0,0.0,0.0,0.0,-0.379,-0.379,-0.4294,-0.4519,-0.4519,-0.4519,-0.4519,-0.4519,-0.4519,-0.4519,-0.4519,-0.4519,-0.4519,-0.4519,-0.4519,-0.4519,-0.4519,-0.4519,-0.4519,-0.4519,-0.4519,-0.4519,-0.457,-0.4842,-0.5218,-0.5651,-0.6249,-0.7069,-0.7777,-0.8049,-0.848,-0.8804,-0.8804,-0.8804,-0.8804,-0.8804,-0.8804,-0.8804,0.0,0.0,0.0,0.0,0.0,0.0,-0.9159,0.0,-0.9762,0.0,0.0,0.0,0.0,0.0,-1.3017,-1.3238,-1.3589,-1.3909,-1.4143,0.0,-1.4698,-1.4698,-1.4926,-1.4926,-1.4709,-1.5209,-1.5287,-1.5062,-1.5688,-1.6151,-1.6522,-1.6522,-1.6522,-1.6522,-1.6522,-1.6522,-1.6559,-1.6898,-1.7174,-1.7463,-1.8129,-1.8637,-1.9044,0.0525,0.0,0.0283,0.0,0.0,0.0,0.0,0.0,0.0,0.0,0.0,0.0,0.0,0.0,0.0,0.0,0.0,0.0,0.0,0.0,0.0,0.0,0.0,0.0,0.0,0.0,0.0,0.0,-0.0504,0.0,0.0,0.0,0.0,0.0,-0.2788,-0.3121,-0.3345,-0.3901,-0.432,-0.4584,-0.4584,-0.4558,-0.4596,-0.4596,-0.4596,-0.4589,-0.4601,-0.4584,-0.4577,-0.4532,-0.4519,-0.4519,-0.4519,-0.4519,-0.4519,-0.4519,-0.4519,-0.4519,-0.4519,-0.4842,-0.5269,-0.5433,-0.6303,-0.7176,-0.761,-0.8103,-0.8533,-0.8752,-0.8804,-0.8804,-0.8804,-0.8804,-0.8804,-0.8804,0.0,0.0,0.0,-0.8804,0.0,-0.8804,-0.8956,-0.9211,-0.9465,-1.0312,0.0,0.0,0.0,0.0,-1.2881,-1.3286,0.0,0.0,0.0,0.0,0.0,-1.434,-1.434,-1.4154,-1.4525,-1.4606,-1.4468,-1.505,-1.5644,-1.6238,-1.6238,-1.6337,-1.6522,-1.6522,-1.6522,-1.6559,-1.6974,-1.7338,-1.7714,-1.8505,-1.8833,-1.8983,0.1422,0.12,0.0872,0.0113,0.0,0.0,0.0,0.0,0.0,0.0,0.0,0.0,0.0,0.0,0.0,0.0,0.0,0.0,0.0,0.0,0.0,0.0,0.0,0.0,0.0,0.0,0.0,0.0,0.0,0.0,-0.0056,0.0,-0.1507,-0.2174,-0.223,-0.2619,-0.3287,-0.34,-0.3922,-0.4687,-0.4687,-0.4779,-0.4914,-0.4914,-0.4914,-0.4894,-0.4741,-0.4687,-0.4663,-0.457,-0.4519,-0.4519,-0.4519,-0.4519,-0.4519,-0.4519,-0.4519,-0.4519,-0.4519,-0.4519,-0.468,-0.5324,-0.5487,-0.5923,-0.7343,-0.7723,-0.7937,-0.8646,-0.8804,-0.8804,-0.8804,-0.8804,-0.8804,-0.8804,0.0,0.0,0.0,0.0,0.0,-0.8804,-0.9361,-0.951,-0.8857,-1.0012,0.0,0.0,0.0,0.0,0.0,0.0,0.0,-1.2929,-1.2929,0.0,-1.2929,-1.3505,-1.3505,-1.2929,-1.4107,-1.4376,-1.3815,-1.4422,-1.5062,-1.5632,-1.5632,-1.5964,-1.6522,-1.6522,-1.6522,-1.6522,-1.6522,-1.7212,-1.8191,-1.8204,-1.8555,-1.8983,0.2096,0.1885,0.1752,0.1567,0.1507,0.134,0.0838,0.0727,0.056,0.0056,0.0,0.0,0.0,0.0,0.0,0.0,0.0,0.0,0.0,0.0,0.0,0.0,0.0,0.0,0.0,0.0,0.0,0.0,0.0,0.0,0.0,-0.0224,-0.0448,-0.0727,-0.1229,-0.1563,-0.1845,-0.2343,-0.2727,-0.3051,-0.3719,-0.3958,-0.4055,-0.4671,-0.4918,-0.4901,-0.4745,-0.4691,-0.4667,-0.457,-0.4519,-0.4519,-0.4519,-0.4519,-0.4519,-0.4519,-0.4519,-0.4519,-0.4519,-0.4519,-0.457,-0.4787,-0.5164,-0.5647,-0.6086,-0.6956,-0.7777,-0.7996,-0.8427,-0.8804,-0.8804,-0.8804,-0.8804,-0.8804,-0.8804,0.0,0.0,0.0,-0.8804,-0.8804,-0.9008,-0.9061,-0.8804,-0.9614,0.0,0.0,0.0,0.0,0.0,0.0,0.0,0.0,-1.2881,0.0,-1.2881,-1.3104,-1.3104,-1.2881,-1.3296,-1.361,-1.3826,-1.4003,-1.4422,-1.4971,-1.4971,-1.532,-1.5908,-1.5908,-1.6151,-1.6559,-1.6948,-1.7325,-1.7689,-1.8066,-1.8317,-1.8405,0.2984,0.2779,0.2699,0.2296,0.2254,0.2151,0.1623,0.1507,0.1341,0.0895,0.0838,0.0727,0.0448,0.0392,0.0,0.0,0.0,0.0,0.0,0.0,0.0,0.0,0.0,0.0,0.0,0.0,0.0,0.0,0.0,0.0,0.0,0.0,0.0,0.0,-0.0454,-0.0855,-0.1142,-0.159,-0.1984,-0.237,-0.294,-0.3215,-0.3368,-0.4195,-0.4488,-0.453,-0.4627,-0.4691,-0.4667,-0.457,-0.4519,-0.4519,-0.4519,-0.4519,-0.4519,-0.4519,-0.4519,-0.4519,-0.4519,-0.4519,-0.4519,-0.4519,-0.4842,-0.5164,-0.5433,-0.6416,-0.7289,-0.7289,-0.7883,-0.8374,-0.8374,-0.8593,-0.8804,-0.8804,-0.8804,-0.8804,-0.8804,0.0,-0.8804,0.0,0.0,0.0,0.0,-0.9159,-0.9718,0.0,0.0,0.0,0.0,0.0,0.0,-1.2881,-1.2881,0.0,-1.2881,-1.2881,-1.2881,-1.2881,-1.2881,-1.3113,-1.3457,-1.3457,-1.3779,-1.4376,-1.4376,-1.4687,-1.5276,-1.5276,-1.5644,-1.6188,-1.6589,-1.6995,-1.7426,-1.7765,-1.789,-1.784,0.4005,0.3867,0.3555,0.0,0.2523,0.0,0.23,0.2286,0.223,0.223,0.2174,0.1952,0.1229,0.1174,0.0895,0.0168,0.0,0.0,0.0,0.0,0.0,0.0,0.0,0.0,0.0,0.0,0.0,0.0,0.0,0.0,0.0,0.0,0.0,0.0,0.0,-0.0353,-0.0997,-0.1032,-0.1499,-0.2359,-0.2423,-0.2501,-0.2684,-0.3418,-0.3753,-0.3806,-0.4392,-0.4632,-0.4609,-0.4514,-0.4519,-0.4519,-0.4519,-0.4519,-0.4519,-0.4519,-0.4519,-0.4519,-0.4519,-0.4519,-0.4519,-0.4519,-0.4519,-0.468,-0.5269,-0.5982,-0.6529,-0.6529,-0.7128,-0.7616,-0.7616,-0.8209,-0.8699,-0.8699,-0.8752,-0.8804,-0.8804,0.0,-0.8804,0.0,0.0,0.0,0.0,-0.8804,-0.9061,0.0,0.0,0.0,0.0,0.0,-1.2774,-1.2832,-1.2881,-1.2881,-1.2881,-1.2881,-1.2881,-1.2881,-1.2881,-1.2881,-1.2881,-1.2881,-1.319,-1.3732,-1.3732,-1.4097,-1.4652,-1.4652,-1.5005,-1.5543,-1.5543,-1.6235,-1.7267,-1.7267,-1.7313,-1.7325,0.0,0.0,0.4521,0.4061,0.4071,0.3941,0.3251,0.3065,0.2843,0.2286,0.2174,0.212,0.1952,0.1952,0.1619,0.0895,0.0336,0.0,0.0,0.0,0.0,0.0,0.0,0.0,0.0,0.0,0.0,0.0,0.0,0.0,0.0,0.0,0.0,0.0,0.0,-0.0116,-0.0284,-0.0241,-0.0367,-0.0663,-0.1346,-0.1629,-0.173,-0.2613,-0.2991,-0.3026,-0.3646,-0.3868,-0.3909,-0.4343,-0.4519,-0.4519,-0.4519,-0.4519,-0.4519,-0.4519,-0.4519,-0.4519,-0.4519,-0.4519,-0.4519,-0.4519,-0.4519,-0.4519,-0.468,-0.5277,-0.576,-0.576,-0.6362,-0.6858,-0.6858,-0.745,-0.7943,-0.7943,-0.8427,-0.8804,-0.8804,-0.8804,0.0,0.0,-0.8804,-0.8804,-0.8804,-0.8804,-0.9061,0.0,0.0,0.0,0.0,-1.1124,-1.1534,-1.2058,-1.2618,-1.2881,-1.2881,-1.2881,-1.2881,-1.2881,-1.2881,-1.2881,-1.2881,-1.2881,-1.2968,-1.3104,-1.3104,-1.3467,-1.4003,-1.4003,-1.4376,-1.4926,-1.4926,-1.5357,-1.6013,-1.6013,-1.6303,-1.6722,0.4938,0.4958,0.4921,0.4619,0.4636,0.4521,0.3978,0.3846,0.368,0.3287,0.3234,0.3121,0.2732,0.273,0.2397,0.1675,0.0951,0.0336,0.0,0.0,0.0,0.0,0.0,0.0,0.0,0.0,0.0,0.0,0.0,0.0,0.0,0.0,0.0,0.0,0.0,0.0,0.0,0.0,0.0,-0.006,-0.0543,-0.0731,-0.0801,-0.167,-0.1964,-0.2042,-0.2727,-0.2978,-0.3028,-0.3365,-0.3456,-0.3511,-0.3846,-0.3959,-0.407,-0.4405,-0.4519,-0.4519,-0.4519,-0.4519,-0.4519,-0.4519,-0.4519,-0.4519,-0.4519,-0.4787,-0.5058,-0.5058,-0.5601,-0.6091,-0.6091,-0.6691,-0.7289,-0.767,-0.8049,-0.8427,-0.8752,-0.8804,0.0,-0.8804,-0.8804,-0.8804,-0.8804,-0.8804,-0.8956,-0.9309,-0.9361,0.0,-0.9865,-1.0167,-1.0771,-1.1783,-1.2197,-1.2559,-1.2881,-1.2881,-1.2881,-1.2881,-1.2881,-1.2881,-1.2881,-1.2881,-1.2881,-1.2881,-1.2881,-1.3113,-1.3372,-1.3372,-1.3732,-1.4283,-1.4283,-1.4652,-1.5186,-1.5186,-1.5421,-1.57,0.5162,0.5131,0.5036,0.4741,0.4691,0.464,0.4539,0.4519,0.4519,0.4519,0.4519,0.4236,0.3566,0.3456,0.3176,0.2454,0.1786,0.1062,0.0224,0.0168,0.0112,0.0,0.0,0.0,0.0,0.0,0.0,0.0,0.0,0.0,0.0,0.0,0.0,0.0,0.0,0.0,0.0,0.0,0.0,0.0,0.0,0.0,-0.0059,-0.068,-0.0954,-0.1014,-0.1789,-0.2009,-0.2063,-0.2174,-0.2174,-0.2287,-0.2916,-0.319,-0.3347,-0.4095,-0.4311,-0.4349,-0.446,-0.4519,-0.4519,-0.4519,-0.4519,-0.4519,-0.4519,-0.4519,-0.4519,-0.4519,-0.4948,-0.5324,-0.5324,-0.5928,-0.6691,-0.7396,-0.7509,-0.783,-0.8699,0.0,-0.8699,-0.8804,-0.8804,-0.8804,-0.8804,-0.8804,-0.8804,-0.8804,-0.8804,-0.8804,-0.8804,-0.9361,-1.0218,-1.1466,-1.1715,-1.2129,-1.2881,-1.2881,-1.2881,-1.2881,-1.2881,-1.2881,-1.2881,-1.2881,-1.2881,-1.2881,-1.2881,-1.2881,-1.2881,-1.2881,-1.32,-1.3637,-1.3637,-1.405,-1.456,-1.456,-1.4606,-1.4789,0.5162,0.5131,0.5036,0.4741,0.4691,0.464,0.4539,0.4519,0.4519,0.4519,0.4519,0.446,0.4349,0.4294,0.4012,0.3176,0.3067,0.2454,0.1006,0.0951,0.0671,0.0,0.0,0.0,0.0,0.0,0.0,0.0,0.0,0.0,0.0,0.0,0.0,0.0,0.0,0.0,0.0,0.0,0.0,0.0,0.0,0.0,0.0,-0.0114,-0.0171,-0.0291,-0.1017,-0.1284,-0.1341,-0.2009,-0.2174,-0.2242,-0.2362,-0.2397,-0.2523,-0.3345,-0.3532,-0.3622,-0.4294,-0.4519,-0.4519,-0.4519,-0.4519,-0.4519,-0.4519,-0.4519,-0.4519,-0.4519,-0.457,-0.468,-0.468,-0.5222,-0.5923,-0.6642,-0.675,-0.7235,-0.8593,0.0,-0.8103,-0.8752,-0.8804,-0.8804,-0.8804,-0.8804,-0.8804,-0.8804,-0.8804,-0.8804,-0.8804,-0.891,-0.9309,-1.0064,-1.1216,-1.2129,-1.2881,-1.2881,-1.2881,-1.2881,-1.2881,-1.2881,-1.2881,-1.2881,-1.2881,-1.2881,-1.2881,-1.2881,-1.2881,-1.2881,-1.2978,-1.3065,-1.3065,-1.342,-1.3956,-1.3956,-1.4283,-1.4698,0.527,0.5169,0.5033,0.4847,0.4677,0.4545,0.4529,0.4519,0.4519,0.4519,0.4519,0.4519,0.4519,0.4519,0.4349,0.3956,0.3959,0.3511,0.2399,0.1953,0.1576,0.1377,0.0842,0.0376,0.0,0.0,0.0,0.0,0.0,0.0,0.0,0.0,0.0,0.0,0.0,0.0,0.0,0.0,0.0,0.0,0.0,0.0,0.0,0.0,0.0,-0.0057,-0.0394,-0.0504,-0.056,-0.0895,-0.1006,-0.1068,-0.151,-0.1606,-0.1741,-0.2553,-0.332,-0.4015,-0.4405,-0.4519,-0.4519,-0.4519,-0.4519,-0.4519,-0.4519,-0.4519,-0.4519,-0.4519,-0.4519,-0.4519,-0.4519,-0.4732,-0.5167,-0.5873,-0.5982,0.0,0.0,-0.767,-0.783,-0.8156,-0.854,-0.8804,-0.8804,-0.8804,-0.8804,-0.8804,-0.8804,-0.8804,-0.8804,-0.8804,-0.8962,-0.9263,-1.0568,-1.1425,-1.1792,-1.1792,-1.1792,-1.1792,-1.1792,-1.194,-1.2295,-1.2295,-1.251,-1.2881,-1.2881,-1.2881,-1.2881,-1.2881,-1.2881,-1.2881,-1.2881,-1.3065,-1.3334,-1.3334,-1.3467,-1.3789,0.5428,0.5209,0.5043,0.4938,0.4697,0.456,0.4522,0.4519,0.4519,0.4519,0.4519,0.4519,0.4519,0.4519,0.4519,0.4519,0.4519,0.4239,0.368,0.3065,0.2661,0.2517,0.1644,0.0893,0.0336,0.0135,0.0,0.0,0.0,0.0,0.0,0.0,0.0,0.0,0.0,0.0,0.0,0.0,0.0,0.0,0.0,0.0,0.0,0.0,0.0,0.0,0.0,0.0,0.0,0.0,0.0,-0.0113,-0.064,-0.0862,-0.1013,-0.1742,-0.2919,-0.4012,-0.4181,-0.4349,-0.4519,-0.4519,-0.4519,-0.4519,-0.4519,-0.4519,-0.4519,-0.4519,-0.4519,-0.4519,-0.4519,-0.4519,-0.4732,-0.5378,0.0,0.0,0.0,-0.6961,-0.7343,-0.767,-0.8209,-0.8593,-0.8804,-0.8804,-0.8804,-0.8804,-0.8871,-0.8878,-0.8811,-0.8871,-0.8878,-0.8811,-0.9969,-1.0669,-1.0813,-1.0813,-1.0813,-1.0813,-1.0813,-1.1065,-1.1566,-1.1715,-1.2129,-1.2666,-1.2832,-1.2881,-1.2881,-1.2881,-1.2881,-1.2881,-1.2881,-1.2881,-1.2881,-1.2881,-1.2881,-1.2978,0.5428,0.5233,0.5081,0.4945,0.4782,0.4626,0.4539,0.4519,0.4519,0.4519,0.4519,0.4519,0.4519,0.4519,0.4519,0.4519,0.4519,0.446,0.4408,0.4349,0.3792,0.2576,0.1741,0.1237,0.1206,0.0404,0.0,0.0,0.0,0.0,0.0,0.0,0.0,0.0,0.0,0.0,0.0,0.0,0.0,0.0,0.0,0.0,0.0,0.0,0.0,0.0,0.0,0.0,0.0,0.0,0.0,0.0,-0.0058,-0.0058,-0.0226,-0.0989,-0.1718,-0.2508,-0.3176,-0.3956,-0.4519,-0.4519,-0.4519,-0.4519,-0.4519,-0.4519,-0.4519,-0.4519,-0.4519,-0.4519,-0.4519,-0.4519,-0.4732,-0.5378,0.0,0.0,-0.6426,-0.6036,-0.6195,-0.7557,-0.7723,-0.8043,-0.8752,-0.8804,-0.8804,-0.8804,-0.9058,-0.9037,-0.8824,-0.9065,-0.903,-0.8818,-0.951,-1.0167,-1.0813,-1.0813,-1.0813,-1.0813,-1.0813,-1.0813,-1.0914,-1.1516,-1.1814,-1.1922,-1.2608,-1.2881,-1.2881,-1.2881,-1.2881,-1.2881,-1.2881,-1.2881,-1.2881,-1.2881,-1.2881,-1.2929,0.5449,0.5315,0.5226,0.5077,0.4877,0.4704,0.4616,0.458,0.4519,0.4519,0.4519,0.4519,0.4519,0.4519,0.4519,0.4519,0.4519,0.4519,0.4519,0.4551,0.4204,0.3195,0.3068,0.2716,0.2209,0.1877,0.1677,0.1677,0.1677,0.1409,0.0806,0.0806,0.0535,0.0,0.0,0.0,0.0,0.0,0.0,0.0,0.0,0.0,0.0,0.0,0.0,0.0,0.0,0.0,0.0,0.0,0.0,0.0,0.0,0.0,-0.0056,-0.0341,-0.096,-0.1563,-0.1842,-0.2843,-0.379,-0.379,-0.4181,-0.4519,-0.4519,-0.4519,-0.4519,-0.4519,-0.4519,-0.4519,-0.4519,-0.4519,-0.457,-0.4842,0.0,-0.4716,-0.5321,-0.5456,-0.5749,-0.6435,-0.7215,-0.783,-0.8103,-0.8533,-0.8804,-0.8804,-0.9024,-0.9057,-0.8824,-0.8911,-0.8925,-0.8811,-0.9061,-0.9309,-0.9562,-0.9562,-0.9562,-0.9562,-0.9562,-0.9762,-1.0167,-1.0415,-1.0762,-1.1216,-1.1484,-1.1832,-1.2236,-1.2236,-1.2501,-1.2881,-1.2881,-1.2881,-1.2881,-1.2881,-1.2881,-1.2881,0.5449,0.5428,0.5315,0.5159,0.4952,0.4785,0.4704,0.4562,0.4519,0.4519,0.4519,0.4519,0.4519,0.4519,0.4519,0.4519,0.4519,0.4539,0.4587,0.4718,0.4629,0.4106,0.4046,0.3747,0.3145,0.2811,0.2678,0.2678,0.2678,0.2333,0.1654,0.1654,0.1384,0.0785,0.0509,0.0372,0.0364,0.0118,0.0,0.0,0.0,0.0,0.0,0.0,0.0,0.0,0.0,0.0,0.0,0.0,0.0,0.0,0.0,0.0,0.0,0.0,-0.0338,-0.0739,-0.0739,-0.1645,-0.2711,-0.3241,-0.379,-0.4239,-0.446,-0.4519,-0.4532,-0.458,-0.4553,-0.4546,-0.4589,-0.4565,-0.4551,-0.4599,-0.4606,-0.4643,-0.4748,-0.5067,-0.5433,-0.5843,-0.6658,-0.735,-0.7848,-0.8349,-0.8799,-0.9085,-0.9352,-0.9426,-0.9232,-0.9045,-0.8945,-0.8945,-0.8851,-0.8804,-0.8804,-0.8804,-0.8804,-0.8804,-0.8804,-0.9061,-0.951,-0.9718,-1.0064,-1.0517,-1.072,-1.1065,-1.1466,-1.1466,-1.1931,-1.2559,-1.2559,-1.2715,-1.2881,-1.2881,-1.2881,-1.2881,0.5428,0.5428,0.5315,0.5159,0.5013,0.4867,0.4714,0.4562,0.4519,0.4519,0.4519,0.4519,0.4519,0.4519,0.4519,0.4519,0.4519,0.4584,0.468,0.4965,0.5131,0.5131,0.4415,0.4015,0.4015,0.3145,0.2744,0.2744,0.2744,0.2642,0.2508,0.2508,0.2531,0.2455,0.1548,0.1175,0.1231,0.0398,0.0,0.0,0.0,0.0,0.0,0.0,0.0,0.0,0.0,0.0,0.0,0.0,0.0,0.0,0.0,0.0,0.0,0.0,0.0,0.0,0.0,-0.053,-0.1457,-0.2981,-0.34,-0.3569,-0.4294,-0.4463,-0.4507,-0.466,-0.4572,-0.4558,-0.4863,-0.4796,-0.4741,-0.4894,-0.4918,-0.4918,-0.4921,-0.4918,-0.5157,-0.5936,-0.5992,-0.6644,-0.824,-0.8416,-0.8774,-0.9621,-0.9947,-1.0114,-1.0114,-0.9502,-0.919,-0.9183,-0.8965,-0.8811,-0.8804,-0.8804,-0.8804,-0.8804,-0.8804,-0.8804,-0.8804,-0.9465,-0.9814,-0.9814,-1.0517,-1.0762,-1.0813,-1.0813,-1.1166,-1.1814,-1.1814,-1.2236,-1.2881,-1.2881,-1.2881,-1.2881,0.5449,0.5428,0.5415,0.5301,0.5084,0.4904,0.4857,0.4629,0.4519,0.4519,0.4519,0.4519,0.4519,0.4519,0.4519,0.4519,0.4519,0.4572,0.4833,0.5026,0.5179,0.5287,0.5067,0.4957,0.4957,0.4755,0.4619,0.4619,0.4619,0.4156,0.3398,0.3398,0.3032,0.2269,0.2022,0.1876,0.1873,0.1077,0.0783,0.0727,0.0224,0.0,0.0,0.0,0.0,0.0,0.0,0.0,0.0,0.0,0.0,0.0,0.0,0.0,0.0,0.0,0.0,0.0,0.0,-0.0183,-0.0543,-0.1516,-0.2195,-0.264,-0.2858,-0.341,-0.3867,-0.3937,-0.4383,-0.4809,-0.4901,-0.488,-0.4867,-0.4911,-0.4918,-0.4955,-0.5053,-0.4982,-0.5016,-0.53,-0.5766,-0.6169,-0.6644,-0.7176,-0.7833,-0.8715,-0.8847,-0.8974,-0.9163,-0.8847,-0.8808,-0.919,-0.9103,-0.9011,-0.8811,-0.8804,-0.8804,-0.8804,-0.8804,-0.8804,-0.8811,-0.9008,-0.9113,-0.9113,-0.9316,-0.9666,-1.0115,-1.0115,-1.0517,-1.1116,-1.1116,-1.1525,-1.2129,-1.2129,-1.2452,-1.2881,0.5446,0.5428,0.5428,0.5428,0.5114,0.4938,0.4996,0.4748,0.4575,0.4633,0.4589,0.4551,0.4551,0.4556,0.4519,0.4519,0.4572,0.4745,0.4986,0.5138,0.5264,0.5425,0.5428,0.5332,0.527,0.5328,0.5332,0.527,0.5332,0.5016,0.4293,0.4244,0.3872,0.3249,0.2815,0.2663,0.2691,0.1869,0.1507,0.1452,0.0727,0.0448,0.0392,0.0112,0.0,0.0,0.0,0.0,0.0,0.0,0.0,0.0,0.0,0.0,0.0,0.0,0.0,0.0,0.0,0.0,-0.0125,-0.0552,-0.1196,-0.1814,-0.215,-0.2665,-0.3079,-0.316,-0.3793,-0.4393,-0.4499,-0.479,-0.5023,-0.5084,-0.5094,-0.5125,-0.5209,-0.5148,-0.5125,-0.5213,-0.5523,-0.59,-0.6266,-0.6697,-0.7311,-0.8171,-0.8232,-0.8292,-0.8504,-0.8122,-0.823,-0.8833,-0.8839,-0.8877,-0.8978,-0.9098,-0.9038,-0.8804,-0.8804,-0.8804,-0.8804,-0.8804,-0.8804,-0.8804,-0.8804,-0.9008,-0.9413,-0.9413,-0.9814,-1.0415,-1.0415,-1.0813,-1.1416,-1.1416,-1.1832,-1.2452,0.5428,0.5428,0.5428,0.5428,0.5125,0.4982,0.5111,0.4891,0.4762,0.4901,0.4785,0.4697,0.4711,0.4562,0.4522,0.4536,0.4752,0.4979,0.5121,0.5277,0.5428,0.5428,0.5428,0.5284,0.5114,0.526,0.527,0.5131,0.527,0.526,0.5108,0.4992,0.4931,0.4844,0.386,0.3532,0.3627,0.2715,0.2286,0.2232,0.1507,0.1174,0.1118,0.0448,0.0168,0.0112,0.0112,0.0056,0.0,0.0,0.0,0.0,0.0,0.0,0.0,0.0,0.0,0.0,0.0,0.0,0.0,0.0,-0.0496,-0.1193,-0.1833,-0.2052,-0.2171,-0.2361,-0.2973,-0.3605,-0.3806,-0.4489,-0.51,-0.5226,-0.5379,-0.5446,-0.5428,-0.5428,-0.5428,-0.5428,-0.5428,-0.5686,-0.6527,-0.6654,-0.6981,-0.7702,-0.7832,-0.7897,-0.7897,-0.7511,-0.7579,-0.8274,-0.8178,-0.8452,-0.9112,-0.9431,-0.9356,-0.8884,-0.8884,-0.8871,-0.8844,-0.8844,-0.8831,-0.8804,-0.8804,-0.8804,-0.8804,-0.8804,-0.9159,-0.971,-0.971,-1.0115,-1.0712,-1.0712,-1.1166,-1.1814,0.5428,0.5428,0.5428,0.5428,0.5206,0.5094,0.5125,0.4982,0.488,0.4914,0.4785,0.4735,0.4857,0.4626,0.4567,0.4629,0.4813,0.4979,0.5121,0.5277,0.5428,0.5428,0.5428,0.5237,0.4969,0.5104,0.5165,0.5131,0.5165,0.5104,0.4965,0.5047,0.5023,0.4911,0.4546,0.4426,0.4387,0.3449,0.3065,0.3065,0.2286,0.1952,0.1952,0.1786,0.1341,0.0838,0.0838,0.0504,0.0,0.0,0.0,0.0,0.0,0.0,0.0,0.0,0.0,0.0,0.0,0.0,0.0,0.0,-0.013,-0.0252,-0.0433,-0.1016,-0.1505,-0.1523,-0.2285,-0.2883,-0.2979,-0.3763,-0.4364,-0.4298,-0.4983,-0.5498,-0.5446,-0.5428,-0.5428,-0.5428,-0.5428,-0.5495,-0.5686,-0.6268,-0.6527,-0.6013,-0.6593,-0.6981,-0.6981,-0.6897,-0.7098,-0.768,-0.769,-0.7941,-0.8573,-0.8627,-0.8957,-0.9492,-0.9492,-0.9372,-0.909,-0.909,-0.9025,-0.8804,-0.8804,-0.8804,-0.8804,-0.8804,-0.891,-0.9008,-0.9008,-0.9413,-1.0012,-1.0012,-1.0762,-1.1864,0.5428,0.5428,0.5428,0.5428,0.5233,0.5155,0.523,0.5114,0.5047,0.5121,0.4996,0.4931,0.5009,0.4752,0.4633,0.4785,0.4935,0.5084,0.5233,0.5318,0.5428,0.5428,0.5291,0.5179,0.5023,0.5026,0.503,0.503,0.5098,0.5131,0.5128,0.506,0.5026,0.5013,0.4863,0.4758,0.4684,0.42,0.3961,0.3846,0.3067,0.2732,0.2676,0.2343,0.1952,0.1619,0.1619,0.1174,0.0449,0.0114,0.0,0.0,0.0,0.0,0.0,0.0,0.0,0.0,0.0,0.0,0.0,0.0,0.0,0.0,0.0,-0.0333,-0.0677,-0.0694,-0.141,-0.2001,-0.2028,-0.283,-0.3613,-0.4063,-0.4553,-0.5099,-0.5513,-0.5511,-0.5494,-0.5562,-0.5511,-0.5498,-0.5566,-0.5975,-0.6078,-0.5542,-0.5933,-0.6163,-0.6079,-0.5994,-0.6225,-0.688,-0.6943,-0.7326,-0.7935,-0.811,-0.8416,-0.8918,-0.9453,-0.9599,-0.9452,-0.9452,-0.9365,-0.9218,-0.9078,-0.9011,-0.9005,-0.8864,-0.8804,-0.8804,-0.8804,-0.9008,-0.9309,-0.9309,-1.0167,-1.1416,0.5428,0.5428,0.5428,0.5428,0.538,0.5403,0.5408,0.538,0.5406,0.5411,0.5226,0.5142,0.5169,0.4928,0.4816,0.4945,0.5064,0.5196,0.5418,0.5428,0.5428,0.5428,0.524,0.5159,0.5131,0.5016,0.4945,0.4918,0.506,0.5196,0.5318,0.5098,0.5057,0.5165,0.502,0.4884,0.4762,0.4711,0.4616,0.4497,0.3855,0.3566,0.3456,0.2843,0.2508,0.2397,0.2397,0.1959,0.1245,0.0466,0.0177,0.0179,0.0061,0.0,0.0,0.0,0.0,0.0,0.0,0.0,0.0,0.0,0.0,0.0,0.0,0.0,0.0,0.0,-0.0586,-0.1099,-0.1104,-0.1841,-0.2792,-0.3582,-0.3873,-0.4302,-0.5153,-0.5345,-0.5387,-0.5496,-0.5557,-0.5674,-0.5789,-0.58,-0.5752,-0.5637,-0.5627,-0.5559,-0.541,-0.5281,-0.5449,-0.605,-0.618,-0.6619,-0.737,-0.7609,-0.7827,-0.8021,-0.8949,-0.944,-0.9577,-0.9694,-0.9733,-0.9666,-0.9419,-0.923,-0.9163,-0.8978,-0.8851,-0.8804,-0.8804,-0.8804,-0.8804,-0.891,-0.9666,-1.0712,0.5428,0.5428,0.5428,0.5428,0.599,0.624,0.5488,0.599,0.624,0.5488,0.5226,0.5182,0.5315,0.5176,0.5081,0.5101,0.5121,0.5196,0.5418,0.5428,0.5428,0.5428,0.5342,0.5267,0.5135,0.5111,0.5043,0.4918,0.506,0.5142,0.5165,0.5257,0.5311,0.5325,0.5169,0.5091,0.5053,0.4799,0.4677,0.465,0.4458,0.4349,0.4349,0.4236,0.379,0.3231,0.3176,0.2784,0.2158,0.1231,0.1017,0.098,0.0246,0.0,0.0,0.0,0.0,0.0,0.0,0.0,0.0,0.0,0.0,0.0,0.0,0.0,0.0,0.0,-0.0075,-0.0152,-0.0155,-0.1009,-0.1772,-0.1734,-0.2477,-0.3053,-0.313,-0.3835,-0.4411,-0.4426,-0.5206,-0.5779,-0.58,-0.58,-0.5793,-0.5776,-0.5772,-0.5708,-0.5566,-0.5538,-0.5535,-0.5529,-0.5526,-0.5913,-0.6811,-0.6837,-0.7242,-0.8027,-0.8158,-0.8463,-0.8932,-0.9685,-0.992,-0.9679,-0.9639,-0.9479,-0.9183,-0.9143,-0.9031,-0.8804,-0.8804,-0.8804,-0.8857,-0.9458,-0.9762,-1.0012,0.6203,0.6141,0.6141,0.6141,0.6461,0.6719,0.6859,0.7181,0.7307,0.6924,0.6331,0.6051,0.6129,0.5621,0.5223,0.5138,0.5209,0.5287,0.5422,0.5428,0.5428,0.5428,0.5277,0.5199,0.5131,0.5131,0.5101,0.5036,0.502,0.5053,0.5131,0.5199,0.5277,0.5422,0.5199,0.5131,0.5114,0.4908,0.4769,0.4684,0.4616,0.4594,0.4519,0.4519,0.4294,0.3968,0.3589,0.33,0.3006,0.2257,0.2055,0.202,0.1607,0.1173,0.0725,0.0725,0.04,0.0,0.0,0.0,0.0,0.0,0.0,0.0,0.0,0.0,0.0,0.0,0.0,0.0,0.0,-0.0392,-0.086,-0.139,-0.185,-0.2378,-0.288,-0.3216,-0.3706,-0.4296,-0.5402,-0.6057,-0.6057,-0.6057,-0.6023,-0.5935,-0.5928,-0.5864,-0.5718,-0.5708,-0.564,-0.5494,-0.5491,-0.5645,-0.5947,-0.5943,-0.6141,-0.6535,-0.7051,-0.7643,-0.8381,-0.928,-0.9606,-0.9481,-0.9813,-0.9853,-0.9706,-0.9316,-0.911,-0.9031,-0.8871,-0.8804,-0.8857,-0.9106,-0.9458,-0.9865]}]]